<?xml version="1.0" encoding="UTF-8"?>
<gpx xmlns="http://www.topografix.com/GPX/1/1" xmlns:gpsies="http://www.gpsies.com/GPX/1/0" creator="GPSies http://www.gpsies.com - M&amp;#252;nchen - Sachsenkam" version="1.1" xmlns:xsi="http://www.w3.org/2001/XMLSchema-instance" xsi:schemaLocation="http://www.topografix.com/GPX/1/1 http://www.topografix.com/GPX/1/1/gpx.xsd http://www.gpsies.com/GPX/1/0 http://www.gpsies.com/gpsies.xsd">
  <metadata>
    <name>München - Sachsenkam</name>
    <author>
      <name>cany</name>
      <link href="http://www.gpsies.com/mapUser.do?username=cany">
        <text>cany on GPSies.com</text>
        <type>GPSiesUserOnWeb</type>
      </link>
    </author>
    <link href="http://www.gpsies.com/map.do?fileId=fcyhoiwalosbzxae">
      <text>München - Sachsenkam on GPSies.com</text>
      <type>trackOnWeb</type>
    </link>
    <time>2014-05-25T19:17:31Z</time>
    <extensions>
      <gpsies:property>round trip</gpsies:property>
      <gpsies:trackLengthMeter>144919.31313914753</gpsies:trackLengthMeter>
      <gpsies:totalAscentMeter>1167.0</gpsies:totalAscentMeter>
      <gpsies:totalDescentMeter>1168.0</gpsies:totalDescentMeter>
      <gpsies:minHeightMeter>517.0</gpsies:minHeightMeter>
      <gpsies:maxHeightMeter>759.0</gpsies:maxHeightMeter>
    </extensions>
  </metadata>
  <wpt lat="47.90087988" lon="11.60815000">
    <ele>703.00000</ele>
    <name>Biergarten</name>
    <sym>food</sym>
    <type>Food</type>
  </wpt>
  <trk>
    <name>München - Sachsenkam on GPSies.com</name>
    <link href="http://www.gpsies.com/map.do?fileId=fcyhoiwalosbzxae">
      <type>trackOnWeb</type>
    </link>
    <link href="http://www.gpsies.com/charts/fc/map/fcyhoiwalosbzxae_map.png">
      <type>elevationChartUrlMap</type>
    </link>
    <link href="http://www.gpsies.com/charts/fc/mapThumb/fcyhoiwalosbzxae_mapThumb.png">
      <type>elevationChartUrlMapThumb</type>
    </link>
    <link href="http://www.gpsies.com/charts/fc/tab/fcyhoiwalosbzxae_tab.png">
      <type>elevationChartUrlTab</type>
    </link>
    <trkseg>
      <trkpt lat="48.15689640" lon="11.55860420">
        <ele>518.00000</ele>
        <time>2010-01-01T00:00:00Z</time>
      </trkpt>
      <trkpt lat="48.15669760" lon="11.55853790">
        <ele>517.00000</ele>
        <time>2010-01-01T00:00:08Z</time>
      </trkpt>
      <trkpt lat="48.15634270" lon="11.55779920">
        <ele>518.00000</ele>
        <time>2010-01-01T00:00:32Z</time>
      </trkpt>
      <trkpt lat="48.15629270" lon="11.55757090">
        <ele>518.00000</ele>
        <time>2010-01-01T00:00:38Z</time>
      </trkpt>
      <trkpt lat="48.15409360" lon="11.55338340">
        <ele>518.00000</ele>
        <time>2010-01-01T00:03:01Z</time>
      </trkpt>
      <trkpt lat="48.15210930" lon="11.54979640">
        <ele>521.00000</ele>
        <time>2010-01-01T00:05:05Z</time>
      </trkpt>
      <trkpt lat="48.15183110" lon="11.54941320">
        <ele>523.00000</ele>
        <time>2010-01-01T00:05:20Z</time>
      </trkpt>
      <trkpt lat="48.15082030" lon="11.54870020">
        <ele>524.00000</ele>
        <time>2010-01-01T00:06:05Z</time>
      </trkpt>
      <trkpt lat="48.14970020" lon="11.54803100">
        <ele>525.00000</ele>
        <time>2010-01-01T00:06:53Z</time>
      </trkpt>
      <trkpt lat="48.14968830" lon="11.54791930">
        <ele>525.00000</ele>
        <time>2010-01-01T00:06:56Z</time>
      </trkpt>
      <trkpt lat="48.14959830" lon="11.54783690">
        <ele>525.00000</ele>
        <time>2010-01-01T00:07:00Z</time>
      </trkpt>
      <trkpt lat="48.14951320" lon="11.54804870">
        <ele>524.00000</ele>
        <time>2010-01-01T00:07:07Z</time>
      </trkpt>
      <trkpt lat="48.14872310" lon="11.55250080">
        <ele>523.00000</ele>
        <time>2010-01-01T00:09:10Z</time>
      </trkpt>
      <trkpt lat="48.14861400" lon="11.55259960">
        <ele>524.00000</ele>
        <time>2010-01-01T00:09:15Z</time>
      </trkpt>
      <trkpt lat="48.14821950" lon="11.55244270">
        <ele>524.00000</ele>
        <time>2010-01-01T00:09:32Z</time>
      </trkpt>
      <trkpt lat="48.14775500" lon="11.55209130">
        <ele>524.00000</ele>
        <time>2010-01-01T00:09:52Z</time>
      </trkpt>
      <trkpt lat="48.14756490" lon="11.55192190">
        <ele>525.00000</ele>
        <time>2010-01-01T00:10:01Z</time>
      </trkpt>
      <trkpt lat="48.14727380" lon="11.55151030">
        <ele>525.00000</ele>
        <time>2010-01-01T00:10:17Z</time>
      </trkpt>
      <trkpt lat="48.14633570" lon="11.54982460">
        <ele>530.00000</ele>
        <time>2010-01-01T00:11:16Z</time>
      </trkpt>
      <trkpt lat="48.14606570" lon="11.54959930">
        <ele>527.00000</ele>
        <time>2010-01-01T00:11:28Z</time>
      </trkpt>
      <trkpt lat="48.14365860" lon="11.54882640">
        <ele>526.00000</ele>
        <time>2010-01-01T00:13:07Z</time>
      </trkpt>
      <trkpt lat="48.14263370" lon="11.54867520">
        <ele>524.00000</ele>
        <time>2010-01-01T00:13:48Z</time>
      </trkpt>
      <trkpt lat="48.14054970" lon="11.54823970">
        <ele>525.00000</ele>
        <time>2010-01-01T00:15:12Z</time>
      </trkpt>
      <trkpt lat="48.14009710" lon="11.54784720">
        <ele>525.00000</ele>
        <time>2010-01-01T00:15:33Z</time>
      </trkpt>
      <trkpt lat="48.13948000" lon="11.54716130">
        <ele>529.00000</ele>
        <time>2010-01-01T00:16:04Z</time>
      </trkpt>
      <trkpt lat="48.13944430" lon="11.54695560">
        <ele>530.00000</ele>
        <time>2010-01-01T00:16:10Z</time>
      </trkpt>
      <trkpt lat="48.13970660" lon="11.54238230">
        <ele>530.00000</ele>
        <time>2010-01-01T00:18:12Z</time>
      </trkpt>
      <trkpt lat="48.13955790" lon="11.54217290">
        <ele>530.00000</ele>
        <time>2010-01-01T00:18:20Z</time>
      </trkpt>
      <trkpt lat="48.13950820" lon="11.54170300">
        <ele>530.00000</ele>
        <time>2010-01-01T00:18:33Z</time>
      </trkpt>
      <trkpt lat="48.13842320" lon="11.54148500">
        <ele>530.00000</ele>
        <time>2010-01-01T00:19:17Z</time>
      </trkpt>
      <trkpt lat="48.13833960" lon="11.54137890">
        <ele>530.00000</ele>
        <time>2010-01-01T00:19:21Z</time>
      </trkpt>
      <trkpt lat="48.13827810" lon="11.54079450">
        <ele>528.00000</ele>
        <time>2010-01-01T00:19:37Z</time>
      </trkpt>
      <trkpt lat="48.13817190" lon="11.54072430">
        <ele>528.00000</ele>
        <time>2010-01-01T00:19:42Z</time>
      </trkpt>
      <trkpt lat="48.13487580" lon="11.54008270">
        <ele>534.00000</ele>
        <time>2010-01-01T00:21:55Z</time>
      </trkpt>
      <trkpt lat="48.13477730" lon="11.53993290">
        <ele>533.00000</ele>
        <time>2010-01-01T00:22:00Z</time>
      </trkpt>
      <trkpt lat="48.13464620" lon="11.53986000">
        <ele>532.00000</ele>
        <time>2010-01-01T00:22:06Z</time>
      </trkpt>
      <trkpt lat="48.13413550" lon="11.53978770">
        <ele>530.00000</ele>
        <time>2010-01-01T00:22:27Z</time>
      </trkpt>
      <trkpt lat="48.13389730" lon="11.53964070">
        <ele>530.00000</ele>
        <time>2010-01-01T00:22:37Z</time>
      </trkpt>
      <trkpt lat="48.13247030" lon="11.53953650">
        <ele>531.00000</ele>
        <time>2010-01-01T00:23:34Z</time>
      </trkpt>
      <trkpt lat="48.13231520" lon="11.53969210">
        <ele>530.00000</ele>
        <time>2010-01-01T00:23:42Z</time>
      </trkpt>
      <trkpt lat="48.13155950" lon="11.53967870">
        <ele>528.00000</ele>
        <time>2010-01-01T00:24:12Z</time>
      </trkpt>
      <trkpt lat="48.13142110" lon="11.53977030">
        <ele>528.00000</ele>
        <time>2010-01-01T00:24:18Z</time>
      </trkpt>
      <trkpt lat="48.13072830" lon="11.53974810">
        <ele>529.00000</ele>
        <time>2010-01-01T00:24:46Z</time>
      </trkpt>
      <trkpt lat="48.13059020" lon="11.54083090">
        <ele>532.00000</ele>
        <time>2010-01-01T00:25:15Z</time>
      </trkpt>
      <trkpt lat="48.13042290" lon="11.54091510">
        <ele>532.00000</ele>
        <time>2010-01-01T00:25:22Z</time>
      </trkpt>
      <trkpt lat="48.13032880" lon="11.54130220">
        <ele>533.00000</ele>
        <time>2010-01-01T00:25:33Z</time>
      </trkpt>
      <trkpt lat="48.13024400" lon="11.54137720">
        <ele>534.00000</ele>
        <time>2010-01-01T00:25:37Z</time>
      </trkpt>
      <trkpt lat="48.12821220" lon="11.53929280">
        <ele>532.00000</ele>
        <time>2010-01-01T00:27:16Z</time>
      </trkpt>
      <trkpt lat="48.12801400" lon="11.53934120">
        <ele>533.00000</ele>
        <time>2010-01-01T00:27:24Z</time>
      </trkpt>
      <trkpt lat="48.12766650" lon="11.53961620">
        <ele>533.00000</ele>
        <time>2010-01-01T00:27:39Z</time>
      </trkpt>
      <trkpt lat="48.12757060" lon="11.53958570">
        <ele>533.00000</ele>
        <time>2010-01-01T00:27:43Z</time>
      </trkpt>
      <trkpt lat="48.12724740" lon="11.53926660">
        <ele>534.00000</ele>
        <time>2010-01-01T00:27:59Z</time>
      </trkpt>
      <trkpt lat="48.12707260" lon="11.53711860">
        <ele>534.00000</ele>
        <time>2010-01-01T00:28:57Z</time>
      </trkpt>
      <trkpt lat="48.12675330" lon="11.53576730">
        <ele>533.00000</ele>
        <time>2010-01-01T00:29:35Z</time>
      </trkpt>
      <trkpt lat="48.12647510" lon="11.53506310">
        <ele>534.00000</ele>
        <time>2010-01-01T00:29:57Z</time>
      </trkpt>
      <trkpt lat="48.12604070" lon="11.53460860">
        <ele>533.00000</ele>
        <time>2010-01-01T00:30:18Z</time>
      </trkpt>
      <trkpt lat="48.12582920" lon="11.53419870">
        <ele>534.00000</ele>
        <time>2010-01-01T00:30:32Z</time>
      </trkpt>
      <trkpt lat="48.12568270" lon="11.53292980">
        <ele>533.00000</ele>
        <time>2010-01-01T00:31:06Z</time>
      </trkpt>
      <trkpt lat="48.12548160" lon="11.53208330">
        <ele>532.00000</ele>
        <time>2010-01-01T00:31:30Z</time>
      </trkpt>
      <trkpt lat="48.12528580" lon="11.53175290">
        <ele>531.00000</ele>
        <time>2010-01-01T00:31:42Z</time>
      </trkpt>
      <trkpt lat="48.12472020" lon="11.53114880">
        <ele>531.00000</ele>
        <time>2010-01-01T00:32:10Z</time>
      </trkpt>
      <trkpt lat="48.12455010" lon="11.53090570">
        <ele>531.00000</ele>
        <time>2010-01-01T00:32:19Z</time>
      </trkpt>
      <trkpt lat="48.12443540" lon="11.53059970">
        <ele>532.00000</ele>
        <time>2010-01-01T00:32:29Z</time>
      </trkpt>
      <trkpt lat="48.12439760" lon="11.53004960">
        <ele>533.00000</ele>
        <time>2010-01-01T00:32:43Z</time>
      </trkpt>
      <trkpt lat="48.12474370" lon="11.52897410">
        <ele>532.00000</ele>
        <time>2010-01-01T00:33:15Z</time>
      </trkpt>
      <trkpt lat="48.12468850" lon="11.52851760">
        <ele>531.00000</ele>
        <time>2010-01-01T00:33:28Z</time>
      </trkpt>
      <trkpt lat="48.12443660" lon="11.52806580">
        <ele>531.00000</ele>
        <time>2010-01-01T00:33:44Z</time>
      </trkpt>
      <trkpt lat="48.12393240" lon="11.52776720">
        <ele>532.00000</ele>
        <time>2010-01-01T00:34:05Z</time>
      </trkpt>
      <trkpt lat="48.12370950" lon="11.52751140">
        <ele>533.00000</ele>
        <time>2010-01-01T00:34:16Z</time>
      </trkpt>
      <trkpt lat="48.12337430" lon="11.52669440">
        <ele>530.00000</ele>
        <time>2010-01-01T00:34:42Z</time>
      </trkpt>
      <trkpt lat="48.12335800" lon="11.52612910">
        <ele>531.00000</ele>
        <time>2010-01-01T00:34:57Z</time>
      </trkpt>
      <trkpt lat="48.12320860" lon="11.52563840">
        <ele>532.00000</ele>
        <time>2010-01-01T00:35:12Z</time>
      </trkpt>
      <trkpt lat="48.12320240" lon="11.52472820">
        <ele>533.00000</ele>
        <time>2010-01-01T00:35:36Z</time>
      </trkpt>
      <trkpt lat="48.12312510" lon="11.52411680">
        <ele>534.00000</ele>
        <time>2010-01-01T00:35:53Z</time>
      </trkpt>
      <trkpt lat="48.12300260" lon="11.52358380">
        <ele>535.00000</ele>
        <time>2010-01-01T00:36:08Z</time>
      </trkpt>
      <trkpt lat="48.12252330" lon="11.52230170">
        <ele>536.00000</ele>
        <time>2010-01-01T00:36:47Z</time>
      </trkpt>
      <trkpt lat="48.12241580" lon="11.52141050">
        <ele>539.00000</ele>
        <time>2010-01-01T00:37:11Z</time>
      </trkpt>
      <trkpt lat="48.12253700" lon="11.52056080">
        <ele>541.00000</ele>
        <time>2010-01-01T00:37:34Z</time>
      </trkpt>
      <trkpt lat="48.12252840" lon="11.51951440">
        <ele>544.00000</ele>
        <time>2010-01-01T00:38:02Z</time>
      </trkpt>
      <trkpt lat="48.12245630" lon="11.51864140">
        <ele>544.00000</ele>
        <time>2010-01-01T00:38:26Z</time>
      </trkpt>
      <trkpt lat="48.12234430" lon="11.51842160">
        <ele>543.00000</ele>
        <time>2010-01-01T00:38:33Z</time>
      </trkpt>
      <trkpt lat="48.12238700" lon="11.51848680">
        <ele>543.00000</ele>
        <time>2010-01-01T00:38:36Z</time>
      </trkpt>
      <trkpt lat="48.12257120" lon="11.51834150">
        <ele>543.00000</ele>
        <time>2010-01-01T00:38:44Z</time>
      </trkpt>
      <trkpt lat="48.12272990" lon="11.51801270">
        <ele>542.00000</ele>
        <time>2010-01-01T00:38:55Z</time>
      </trkpt>
      <trkpt lat="48.12287970" lon="11.51738890">
        <ele>542.00000</ele>
        <time>2010-01-01T00:39:13Z</time>
      </trkpt>
      <trkpt lat="48.12287750" lon="11.51691530">
        <ele>541.00000</ele>
        <time>2010-01-01T00:39:25Z</time>
      </trkpt>
      <trkpt lat="48.12281460" lon="11.51660300">
        <ele>540.00000</ele>
        <time>2010-01-01T00:39:34Z</time>
      </trkpt>
      <trkpt lat="48.12253410" lon="11.51590670">
        <ele>536.00000</ele>
        <time>2010-01-01T00:39:56Z</time>
      </trkpt>
      <trkpt lat="48.12199660" lon="11.51525440">
        <ele>533.00000</ele>
        <time>2010-01-01T00:40:23Z</time>
      </trkpt>
      <trkpt lat="48.12172730" lon="11.51476200">
        <ele>531.00000</ele>
        <time>2010-01-01T00:40:40Z</time>
      </trkpt>
      <trkpt lat="48.12156870" lon="11.51429590">
        <ele>531.00000</ele>
        <time>2010-01-01T00:40:54Z</time>
      </trkpt>
      <trkpt lat="48.12128090" lon="11.51296470">
        <ele>534.00000</ele>
        <time>2010-01-01T00:41:32Z</time>
      </trkpt>
      <trkpt lat="48.12122150" lon="11.51229680">
        <ele>533.00000</ele>
        <time>2010-01-01T00:41:50Z</time>
      </trkpt>
      <trkpt lat="48.12126610" lon="11.51116330">
        <ele>532.00000</ele>
        <time>2010-01-01T00:42:20Z</time>
      </trkpt>
      <trkpt lat="48.12112250" lon="11.51018430">
        <ele>536.00000</ele>
        <time>2010-01-01T00:42:47Z</time>
      </trkpt>
      <trkpt lat="48.12088860" lon="11.50954800">
        <ele>538.00000</ele>
        <time>2010-01-01T00:43:06Z</time>
      </trkpt>
      <trkpt lat="48.12055630" lon="11.50901280">
        <ele>540.00000</ele>
        <time>2010-01-01T00:43:26Z</time>
      </trkpt>
      <trkpt lat="48.12040000" lon="11.50864120">
        <ele>540.00000</ele>
        <time>2010-01-01T00:43:37Z</time>
      </trkpt>
      <trkpt lat="48.12004580" lon="11.50822330">
        <ele>541.00000</ele>
        <time>2010-01-01T00:43:56Z</time>
      </trkpt>
      <trkpt lat="48.11977040" lon="11.50727200">
        <ele>540.00000</ele>
        <time>2010-01-01T00:44:23Z</time>
      </trkpt>
      <trkpt lat="48.11959900" lon="11.50718100">
        <ele>541.00000</ele>
        <time>2010-01-01T00:44:31Z</time>
      </trkpt>
      <trkpt lat="48.11936290" lon="11.50717270">
        <ele>542.00000</ele>
        <time>2010-01-01T00:44:40Z</time>
      </trkpt>
      <trkpt lat="48.11757400" lon="11.50731110">
        <ele>544.00000</ele>
        <time>2010-01-01T00:45:52Z</time>
      </trkpt>
      <trkpt lat="48.11729180" lon="11.50727730">
        <ele>544.00000</ele>
        <time>2010-01-01T00:46:03Z</time>
      </trkpt>
      <trkpt lat="48.11665240" lon="11.50450150">
        <ele>541.00000</ele>
        <time>2010-01-01T00:47:21Z</time>
      </trkpt>
      <trkpt lat="48.11631640" lon="11.50227170">
        <ele>542.00000</ele>
        <time>2010-01-01T00:48:23Z</time>
      </trkpt>
      <trkpt lat="48.11594080" lon="11.50219520">
        <ele>543.00000</ele>
        <time>2010-01-01T00:48:38Z</time>
      </trkpt>
      <trkpt lat="48.11351940" lon="11.50211880">
        <ele>546.00000</ele>
        <time>2010-01-01T00:50:15Z</time>
      </trkpt>
      <trkpt lat="48.11294100" lon="11.50216820">
        <ele>546.00000</ele>
        <time>2010-01-01T00:50:38Z</time>
      </trkpt>
      <trkpt lat="48.11220640" lon="11.50214200">
        <ele>546.00000</ele>
        <time>2010-01-01T00:51:07Z</time>
      </trkpt>
      <trkpt lat="48.11195760" lon="11.50219190">
        <ele>546.00000</ele>
        <time>2010-01-01T00:51:17Z</time>
      </trkpt>
      <trkpt lat="48.10993070" lon="11.50217440">
        <ele>552.00000</ele>
        <time>2010-01-01T00:52:39Z</time>
      </trkpt>
      <trkpt lat="48.10847640" lon="11.50209880">
        <ele>549.00000</ele>
        <time>2010-01-01T00:53:37Z</time>
      </trkpt>
      <trkpt lat="48.10819090" lon="11.50200590">
        <ele>550.00000</ele>
        <time>2010-01-01T00:53:48Z</time>
      </trkpt>
      <trkpt lat="48.10614330" lon="11.50195130">
        <ele>556.00000</ele>
        <time>2010-01-01T00:55:10Z</time>
      </trkpt>
      <trkpt lat="48.10539530" lon="11.50179350">
        <ele>555.00000</ele>
        <time>2010-01-01T00:55:41Z</time>
      </trkpt>
      <trkpt lat="48.10398700" lon="11.50128710">
        <ele>553.00000</ele>
        <time>2010-01-01T00:56:39Z</time>
      </trkpt>
      <trkpt lat="48.10250910" lon="11.50066970">
        <ele>551.00000</ele>
        <time>2010-01-01T00:57:40Z</time>
      </trkpt>
      <trkpt lat="48.10230820" lon="11.50052810">
        <ele>552.00000</ele>
        <time>2010-01-01T00:57:49Z</time>
      </trkpt>
      <trkpt lat="48.10193610" lon="11.49987510">
        <ele>553.00000</ele>
        <time>2010-01-01T00:58:12Z</time>
      </trkpt>
      <trkpt lat="48.09614380" lon="11.48847200">
        <ele>560.00000</ele>
        <time>2010-01-01T01:04:35Z</time>
      </trkpt>
      <trkpt lat="48.09591160" lon="11.48847370">
        <ele>559.00000</ele>
        <time>2010-01-01T01:04:44Z</time>
      </trkpt>
      <trkpt lat="48.09565830" lon="11.48836580">
        <ele>559.00000</ele>
        <time>2010-01-01T01:04:55Z</time>
      </trkpt>
      <trkpt lat="48.09497650" lon="11.48788680">
        <ele>559.00000</ele>
        <time>2010-01-01T01:05:25Z</time>
      </trkpt>
      <trkpt lat="48.09439170" lon="11.48760410">
        <ele>559.00000</ele>
        <time>2010-01-01T01:05:49Z</time>
      </trkpt>
      <trkpt lat="48.09340330" lon="11.48753120">
        <ele>560.00000</ele>
        <time>2010-01-01T01:06:29Z</time>
      </trkpt>
      <trkpt lat="48.09096540" lon="11.48749510">
        <ele>563.00000</ele>
        <time>2010-01-01T01:08:07Z</time>
      </trkpt>
      <trkpt lat="48.08849730" lon="11.48723940">
        <ele>563.00000</ele>
        <time>2010-01-01T01:09:46Z</time>
      </trkpt>
      <trkpt lat="48.08756600" lon="11.48729000">
        <ele>563.00000</ele>
        <time>2010-01-01T01:10:23Z</time>
      </trkpt>
      <trkpt lat="48.08724730" lon="11.48719240">
        <ele>563.00000</ele>
        <time>2010-01-01T01:10:36Z</time>
      </trkpt>
      <trkpt lat="48.08628330" lon="11.48663000">
        <ele>566.00000</ele>
        <time>2010-01-01T01:11:17Z</time>
      </trkpt>
      <trkpt lat="48.08587760" lon="11.48671030">
        <ele>568.00000</ele>
        <time>2010-01-01T01:11:34Z</time>
      </trkpt>
      <trkpt lat="48.08480880" lon="11.48718210">
        <ele>566.00000</ele>
        <time>2010-01-01T01:12:18Z</time>
      </trkpt>
      <trkpt lat="48.08436200" lon="11.48725300">
        <ele>565.00000</ele>
        <time>2010-01-01T01:12:36Z</time>
      </trkpt>
      <trkpt lat="48.08312490" lon="11.48717200">
        <ele>566.00000</ele>
        <time>2010-01-01T01:13:26Z</time>
      </trkpt>
      <trkpt lat="48.08241990" lon="11.48730130">
        <ele>567.00000</ele>
        <time>2010-01-01T01:13:54Z</time>
      </trkpt>
      <trkpt lat="48.08175870" lon="11.48713440">
        <ele>569.00000</ele>
        <time>2010-01-01T01:14:21Z</time>
      </trkpt>
      <trkpt lat="48.07984380" lon="11.48738090">
        <ele>571.00000</ele>
        <time>2010-01-01T01:15:38Z</time>
      </trkpt>
      <trkpt lat="48.07891580" lon="11.48716820">
        <ele>570.00000</ele>
        <time>2010-01-01T01:16:16Z</time>
      </trkpt>
      <trkpt lat="48.07851210" lon="11.48690190">
        <ele>570.00000</ele>
        <time>2010-01-01T01:16:33Z</time>
      </trkpt>
      <trkpt lat="48.07780870" lon="11.48683340">
        <ele>573.00000</ele>
        <time>2010-01-01T01:17:02Z</time>
      </trkpt>
      <trkpt lat="48.07676370" lon="11.48630480">
        <ele>573.00000</ele>
        <time>2010-01-01T01:17:46Z</time>
      </trkpt>
      <trkpt lat="48.07568300" lon="11.48549710">
        <ele>575.00000</ele>
        <time>2010-01-01T01:18:34Z</time>
      </trkpt>
      <trkpt lat="48.07267210" lon="11.48286470">
        <ele>577.00000</ele>
        <time>2010-01-01T01:20:54Z</time>
      </trkpt>
      <trkpt lat="48.07207460" lon="11.48224610">
        <ele>576.00000</ele>
        <time>2010-01-01T01:21:23Z</time>
      </trkpt>
      <trkpt lat="48.07159920" lon="11.48165140">
        <ele>574.00000</ele>
        <time>2010-01-01T01:21:48Z</time>
      </trkpt>
      <trkpt lat="48.07157620" lon="11.48143570">
        <ele>575.00000</ele>
        <time>2010-01-01T01:21:54Z</time>
      </trkpt>
      <trkpt lat="48.07177480" lon="11.48107550">
        <ele>577.00000</ele>
        <time>2010-01-01T01:22:06Z</time>
      </trkpt>
      <trkpt lat="48.07172440" lon="11.48096610">
        <ele>577.00000</ele>
        <time>2010-01-01T01:22:10Z</time>
      </trkpt>
      <trkpt lat="48.07165400" lon="11.48095710">
        <ele>577.00000</ele>
        <time>2010-01-01T01:22:12Z</time>
      </trkpt>
      <trkpt lat="48.07148390" lon="11.48115740">
        <ele>576.00000</ele>
        <time>2010-01-01T01:22:21Z</time>
      </trkpt>
      <trkpt lat="48.07134460" lon="11.48117560">
        <ele>576.00000</ele>
        <time>2010-01-01T01:22:27Z</time>
      </trkpt>
      <trkpt lat="48.07078000" lon="11.48088250">
        <ele>577.00000</ele>
        <time>2010-01-01T01:22:51Z</time>
      </trkpt>
      <trkpt lat="48.06991220" lon="11.48029890">
        <ele>578.00000</ele>
        <time>2010-01-01T01:23:29Z</time>
      </trkpt>
      <trkpt lat="48.06731330" lon="11.47821800">
        <ele>578.00000</ele>
        <time>2010-01-01T01:25:27Z</time>
      </trkpt>
      <trkpt lat="48.06624720" lon="11.47718740">
        <ele>579.00000</ele>
        <time>2010-01-01T01:26:17Z</time>
      </trkpt>
      <trkpt lat="48.06486900" lon="11.47603900">
        <ele>579.00000</ele>
        <time>2010-01-01T01:27:21Z</time>
      </trkpt>
      <trkpt lat="48.06315850" lon="11.47444090">
        <ele>582.00000</ele>
        <time>2010-01-01T01:28:41Z</time>
      </trkpt>
      <trkpt lat="48.06242330" lon="11.47365960">
        <ele>582.00000</ele>
        <time>2010-01-01T01:29:17Z</time>
      </trkpt>
      <trkpt lat="48.06085500" lon="11.47163180">
        <ele>581.00000</ele>
        <time>2010-01-01T01:30:40Z</time>
      </trkpt>
      <trkpt lat="48.06019070" lon="11.47062870">
        <ele>582.00000</ele>
        <time>2010-01-01T01:31:18Z</time>
      </trkpt>
      <trkpt lat="48.05946520" lon="11.46922320">
        <ele>584.00000</ele>
        <time>2010-01-01T01:32:06Z</time>
      </trkpt>
      <trkpt lat="48.05837560" lon="11.46654750">
        <ele>587.00000</ele>
        <time>2010-01-01T01:33:30Z</time>
      </trkpt>
      <trkpt lat="48.05678060" lon="11.46314140">
        <ele>588.00000</ele>
        <time>2010-01-01T01:35:21Z</time>
      </trkpt>
      <trkpt lat="48.05575040" lon="11.46118600">
        <ele>591.00000</ele>
        <time>2010-01-01T01:36:27Z</time>
      </trkpt>
      <trkpt lat="48.05476810" lon="11.45908480">
        <ele>588.00000</ele>
        <time>2010-01-01T01:37:36Z</time>
      </trkpt>
      <trkpt lat="48.05441260" lon="11.45847790">
        <ele>589.00000</ele>
        <time>2010-01-01T01:37:58Z</time>
      </trkpt>
      <trkpt lat="48.05359020" lon="11.45732550">
        <ele>591.00000</ele>
        <time>2010-01-01T01:38:43Z</time>
      </trkpt>
      <trkpt lat="48.05257470" lon="11.45554660">
        <ele>595.00000</ele>
        <time>2010-01-01T01:39:45Z</time>
      </trkpt>
      <trkpt lat="48.05184960" lon="11.45441530">
        <ele>595.00000</ele>
        <time>2010-01-01T01:40:27Z</time>
      </trkpt>
      <trkpt lat="48.04913780" lon="11.45055380">
        <ele>597.00000</ele>
        <time>2010-01-01T01:42:57Z</time>
      </trkpt>
      <trkpt lat="48.04722620" lon="11.44801860">
        <ele>599.00000</ele>
        <time>2010-01-01T01:44:39Z</time>
      </trkpt>
      <trkpt lat="48.04535900" lon="11.44517740">
        <ele>600.00000</ele>
        <time>2010-01-01T01:46:26Z</time>
      </trkpt>
      <trkpt lat="48.04403530" lon="11.44260880">
        <ele>601.00000</ele>
        <time>2010-01-01T01:47:53Z</time>
      </trkpt>
      <trkpt lat="48.04291040" lon="11.44067320">
        <ele>604.00000</ele>
        <time>2010-01-01T01:49:01Z</time>
      </trkpt>
      <trkpt lat="48.04175240" lon="11.43791110">
        <ele>606.00000</ele>
        <time>2010-01-01T01:50:29Z</time>
      </trkpt>
      <trkpt lat="48.04070890" lon="11.43581250">
        <ele>605.00000</ele>
        <time>2010-01-01T01:51:39Z</time>
      </trkpt>
      <trkpt lat="48.03998650" lon="11.43459810">
        <ele>607.00000</ele>
        <time>2010-01-01T01:52:22Z</time>
      </trkpt>
      <trkpt lat="48.03884400" lon="11.43299020">
        <ele>611.00000</ele>
        <time>2010-01-01T01:53:25Z</time>
      </trkpt>
      <trkpt lat="48.03811150" lon="11.43212600">
        <ele>613.00000</ele>
        <time>2010-01-01T01:54:02Z</time>
      </trkpt>
      <trkpt lat="48.03738270" lon="11.43139210">
        <ele>616.00000</ele>
        <time>2010-01-01T01:54:38Z</time>
      </trkpt>
      <trkpt lat="48.03590420" lon="11.43016000">
        <ele>613.00000</ele>
        <time>2010-01-01T01:55:45Z</time>
      </trkpt>
      <trkpt lat="48.03423570" lon="11.42902310">
        <ele>617.00000</ele>
        <time>2010-01-01T01:56:59Z</time>
      </trkpt>
      <trkpt lat="48.03173780" lon="11.42618630">
        <ele>623.00000</ele>
        <time>2010-01-01T01:59:04Z</time>
      </trkpt>
      <trkpt lat="48.03074190" lon="11.42527870">
        <ele>629.00000</ele>
        <time>2010-01-01T01:59:51Z</time>
      </trkpt>
      <trkpt lat="48.02972690" lon="11.42467460">
        <ele>628.00000</ele>
        <time>2010-01-01T02:00:35Z</time>
      </trkpt>
      <trkpt lat="48.02796910" lon="11.42394800">
        <ele>621.00000</ele>
        <time>2010-01-01T02:01:48Z</time>
      </trkpt>
      <trkpt lat="48.02708480" lon="11.42343790">
        <ele>622.00000</ele>
        <time>2010-01-01T02:02:26Z</time>
      </trkpt>
      <trkpt lat="48.02643420" lon="11.42291690">
        <ele>624.00000</ele>
        <time>2010-01-01T02:02:55Z</time>
      </trkpt>
      <trkpt lat="48.02497480" lon="11.42084860">
        <ele>637.00000</ele>
        <time>2010-01-01T02:04:16Z</time>
      </trkpt>
      <trkpt lat="48.02439140" lon="11.42011990">
        <ele>637.00000</ele>
        <time>2010-01-01T02:04:46Z</time>
      </trkpt>
      <trkpt lat="48.02295650" lon="11.41863060">
        <ele>636.00000</ele>
        <time>2010-01-01T02:05:56Z</time>
      </trkpt>
      <trkpt lat="48.02089850" lon="11.41664220">
        <ele>635.00000</ele>
        <time>2010-01-01T02:07:34Z</time>
      </trkpt>
      <trkpt lat="48.01709570" lon="11.41217130">
        <ele>636.00000</ele>
        <time>2010-01-01T02:10:48Z</time>
      </trkpt>
      <trkpt lat="48.01413710" lon="11.40889260">
        <ele>648.00000</ele>
        <time>2010-01-01T02:13:15Z</time>
      </trkpt>
      <trkpt lat="48.01327230" lon="11.40759910">
        <ele>645.00000</ele>
        <time>2010-01-01T02:14:04Z</time>
      </trkpt>
      <trkpt lat="48.01255680" lon="11.40688700">
        <ele>640.00000</ele>
        <time>2010-01-01T02:14:39Z</time>
      </trkpt>
      <trkpt lat="48.01197920" lon="11.40590390">
        <ele>638.00000</ele>
        <time>2010-01-01T02:15:14Z</time>
      </trkpt>
      <trkpt lat="48.01189230" lon="11.40554820">
        <ele>639.00000</ele>
        <time>2010-01-01T02:15:24Z</time>
      </trkpt>
      <trkpt lat="48.01180430" lon="11.40611130">
        <ele>636.00000</ele>
        <time>2010-01-01T02:15:39Z</time>
      </trkpt>
      <trkpt lat="48.01134890" lon="11.40755370">
        <ele>633.00000</ele>
        <time>2010-01-01T02:16:22Z</time>
      </trkpt>
      <trkpt lat="48.01029270" lon="11.40863690">
        <ele>628.00000</ele>
        <time>2010-01-01T02:17:13Z</time>
      </trkpt>
      <trkpt lat="48.00985660" lon="11.40925640">
        <ele>626.00000</ele>
        <time>2010-01-01T02:17:37Z</time>
      </trkpt>
      <trkpt lat="48.00952510" lon="11.40960640">
        <ele>628.00000</ele>
        <time>2010-01-01T02:17:53Z</time>
      </trkpt>
      <trkpt lat="48.00890140" lon="11.41009750">
        <ele>630.00000</ele>
        <time>2010-01-01T02:18:22Z</time>
      </trkpt>
      <trkpt lat="48.00825280" lon="11.41083590">
        <ele>633.00000</ele>
        <time>2010-01-01T02:18:54Z</time>
      </trkpt>
      <trkpt lat="48.00761420" lon="11.41112870">
        <ele>636.00000</ele>
        <time>2010-01-01T02:19:21Z</time>
      </trkpt>
      <trkpt lat="48.00719510" lon="11.41141430">
        <ele>639.00000</ele>
        <time>2010-01-01T02:19:40Z</time>
      </trkpt>
      <trkpt lat="48.00643410" lon="11.41227370">
        <ele>638.00000</ele>
        <time>2010-01-01T02:20:18Z</time>
      </trkpt>
      <trkpt lat="48.00613990" lon="11.41244490">
        <ele>636.00000</ele>
        <time>2010-01-01T02:20:30Z</time>
      </trkpt>
      <trkpt lat="48.00527490" lon="11.41271150">
        <ele>634.00000</ele>
        <time>2010-01-01T02:21:06Z</time>
      </trkpt>
      <trkpt lat="48.00489990" lon="11.41294680">
        <ele>635.00000</ele>
        <time>2010-01-01T02:21:22Z</time>
      </trkpt>
      <trkpt lat="48.00450840" lon="11.41330730">
        <ele>635.00000</ele>
        <time>2010-01-01T02:21:40Z</time>
      </trkpt>
      <trkpt lat="48.00222120" lon="11.41610530">
        <ele>649.00000</ele>
        <time>2010-01-01T02:23:39Z</time>
      </trkpt>
      <trkpt lat="48.00021330" lon="11.41799390">
        <ele>642.00000</ele>
        <time>2010-01-01T02:25:14Z</time>
      </trkpt>
      <trkpt lat="47.99886330" lon="11.41898970">
        <ele>653.00000</ele>
        <time>2010-01-01T02:26:14Z</time>
      </trkpt>
      <trkpt lat="47.99779330" lon="11.41959540">
        <ele>654.00000</ele>
        <time>2010-01-01T02:27:00Z</time>
      </trkpt>
      <trkpt lat="47.99744970" lon="11.41984470">
        <ele>654.00000</ele>
        <time>2010-01-01T02:27:15Z</time>
      </trkpt>
      <trkpt lat="47.99726360" lon="11.42006390">
        <ele>654.00000</ele>
        <time>2010-01-01T02:27:25Z</time>
      </trkpt>
      <trkpt lat="47.99714060" lon="11.42010500">
        <ele>655.00000</ele>
        <time>2010-01-01T02:27:30Z</time>
      </trkpt>
      <trkpt lat="47.99699360" lon="11.42004840">
        <ele>655.00000</ele>
        <time>2010-01-01T02:27:36Z</time>
      </trkpt>
      <trkpt lat="47.99654840" lon="11.41961270">
        <ele>655.00000</ele>
        <time>2010-01-01T02:27:57Z</time>
      </trkpt>
      <trkpt lat="47.99570090" lon="11.41931260">
        <ele>655.00000</ele>
        <time>2010-01-01T02:28:32Z</time>
      </trkpt>
      <trkpt lat="47.99521790" lon="11.41882990">
        <ele>656.00000</ele>
        <time>2010-01-01T02:28:55Z</time>
      </trkpt>
      <trkpt lat="47.99506980" lon="11.41881720">
        <ele>656.00000</ele>
        <time>2010-01-01T02:29:01Z</time>
      </trkpt>
      <trkpt lat="47.99493540" lon="11.41889890">
        <ele>656.00000</ele>
        <time>2010-01-01T02:29:07Z</time>
      </trkpt>
      <trkpt lat="47.99483720" lon="11.41906420">
        <ele>656.00000</ele>
        <time>2010-01-01T02:29:13Z</time>
      </trkpt>
      <trkpt lat="47.99474340" lon="11.41944350">
        <ele>656.00000</ele>
        <time>2010-01-01T02:29:24Z</time>
      </trkpt>
      <trkpt lat="47.99445640" lon="11.42109100">
        <ele>658.00000</ele>
        <time>2010-01-01T02:30:09Z</time>
      </trkpt>
      <trkpt lat="47.99439000" lon="11.42117160">
        <ele>658.00000</ele>
        <time>2010-01-01T02:30:13Z</time>
      </trkpt>
      <trkpt lat="47.99366980" lon="11.42150870">
        <ele>659.00000</ele>
        <time>2010-01-01T02:30:43Z</time>
      </trkpt>
      <trkpt lat="47.99343310" lon="11.42180650">
        <ele>659.00000</ele>
        <time>2010-01-01T02:30:55Z</time>
      </trkpt>
      <trkpt lat="47.99308910" lon="11.42268930">
        <ele>659.00000</ele>
        <time>2010-01-01T02:31:23Z</time>
      </trkpt>
      <trkpt lat="47.99277140" lon="11.42324560">
        <ele>660.00000</ele>
        <time>2010-01-01T02:31:42Z</time>
      </trkpt>
      <trkpt lat="47.99230540" lon="11.42427320">
        <ele>661.00000</ele>
        <time>2010-01-01T02:32:15Z</time>
      </trkpt>
      <trkpt lat="47.99171380" lon="11.42519300">
        <ele>661.00000</ele>
        <time>2010-01-01T02:32:50Z</time>
      </trkpt>
      <trkpt lat="47.99136800" lon="11.42597970">
        <ele>661.00000</ele>
        <time>2010-01-01T02:33:15Z</time>
      </trkpt>
      <trkpt lat="47.99098610" lon="11.42660730">
        <ele>661.00000</ele>
        <time>2010-01-01T02:33:38Z</time>
      </trkpt>
      <trkpt lat="47.99050270" lon="11.42762890">
        <ele>661.00000</ele>
        <time>2010-01-01T02:34:11Z</time>
      </trkpt>
      <trkpt lat="47.98987110" lon="11.42857260">
        <ele>664.00000</ele>
        <time>2010-01-01T02:34:47Z</time>
      </trkpt>
      <trkpt lat="47.98950860" lon="11.42963310">
        <ele>666.00000</ele>
        <time>2010-01-01T02:35:19Z</time>
      </trkpt>
      <trkpt lat="47.98920260" lon="11.43003550">
        <ele>667.00000</ele>
        <time>2010-01-01T02:35:35Z</time>
      </trkpt>
      <trkpt lat="47.98865500" lon="11.43050100">
        <ele>669.00000</ele>
        <time>2010-01-01T02:36:00Z</time>
      </trkpt>
      <trkpt lat="47.98833880" lon="11.43099610">
        <ele>670.00000</ele>
        <time>2010-01-01T02:36:19Z</time>
      </trkpt>
      <trkpt lat="47.98715830" lon="11.43249320">
        <ele>674.00000</ele>
        <time>2010-01-01T02:37:21Z</time>
      </trkpt>
      <trkpt lat="47.98657780" lon="11.43352250">
        <ele>676.00000</ele>
        <time>2010-01-01T02:37:57Z</time>
      </trkpt>
      <trkpt lat="47.98601610" lon="11.43424830">
        <ele>678.00000</ele>
        <time>2010-01-01T02:38:26Z</time>
      </trkpt>
      <trkpt lat="47.98560350" lon="11.43519650">
        <ele>679.00000</ele>
        <time>2010-01-01T02:38:57Z</time>
      </trkpt>
      <trkpt lat="47.98531910" lon="11.43629700">
        <ele>680.00000</ele>
        <time>2010-01-01T02:39:28Z</time>
      </trkpt>
      <trkpt lat="47.98480420" lon="11.43763550">
        <ele>680.00000</ele>
        <time>2010-01-01T02:40:10Z</time>
      </trkpt>
      <trkpt lat="47.98510010" lon="11.43895190">
        <ele>680.00000</ele>
        <time>2010-01-01T02:40:47Z</time>
      </trkpt>
      <trkpt lat="47.98545870" lon="11.43969690">
        <ele>680.00000</ele>
        <time>2010-01-01T02:41:11Z</time>
      </trkpt>
      <trkpt lat="47.98607490" lon="11.44053890">
        <ele>680.00000</ele>
        <time>2010-01-01T02:41:45Z</time>
      </trkpt>
      <trkpt lat="47.98672220" lon="11.44212620">
        <ele>680.00000</ele>
        <time>2010-01-01T02:42:35Z</time>
      </trkpt>
      <trkpt lat="47.98720760" lon="11.44308250">
        <ele>680.00000</ele>
        <time>2010-01-01T02:43:07Z</time>
      </trkpt>
      <trkpt lat="47.98827920" lon="11.44406050">
        <ele>680.00000</ele>
        <time>2010-01-01T02:43:57Z</time>
      </trkpt>
      <trkpt lat="47.98903230" lon="11.44596210">
        <ele>680.00000</ele>
        <time>2010-01-01T02:44:56Z</time>
      </trkpt>
      <trkpt lat="47.98987630" lon="11.44753090">
        <ele>680.00000</ele>
        <time>2010-01-01T02:45:50Z</time>
      </trkpt>
      <trkpt lat="47.99112890" lon="11.45075390">
        <ele>679.00000</ele>
        <time>2010-01-01T02:47:30Z</time>
      </trkpt>
      <trkpt lat="47.99125420" lon="11.45142580">
        <ele>679.00000</ele>
        <time>2010-01-01T02:47:49Z</time>
      </trkpt>
      <trkpt lat="47.99168010" lon="11.45232330">
        <ele>680.00000</ele>
        <time>2010-01-01T02:48:18Z</time>
      </trkpt>
      <trkpt lat="47.99163560" lon="11.45320930">
        <ele>678.00000</ele>
        <time>2010-01-01T02:48:42Z</time>
      </trkpt>
      <trkpt lat="47.99181680" lon="11.45393000">
        <ele>676.00000</ele>
        <time>2010-01-01T02:49:03Z</time>
      </trkpt>
      <trkpt lat="47.99198670" lon="11.45436380">
        <ele>675.00000</ele>
        <time>2010-01-01T02:49:16Z</time>
      </trkpt>
      <trkpt lat="47.99197830" lon="11.45447640">
        <ele>675.00000</ele>
        <time>2010-01-01T02:49:19Z</time>
      </trkpt>
      <trkpt lat="47.99141130" lon="11.45533950">
        <ele>666.00000</ele>
        <time>2010-01-01T02:49:52Z</time>
      </trkpt>
      <trkpt lat="47.99065420" lon="11.45602700">
        <ele>660.00000</ele>
        <time>2010-01-01T02:50:27Z</time>
      </trkpt>
      <trkpt lat="47.99055720" lon="11.45620110">
        <ele>660.00000</ele>
        <time>2010-01-01T02:50:33Z</time>
      </trkpt>
      <trkpt lat="47.99044780" lon="11.45682890">
        <ele>660.00000</ele>
        <time>2010-01-01T02:50:50Z</time>
      </trkpt>
      <trkpt lat="47.98966720" lon="11.45953970">
        <ele>660.00000</ele>
        <time>2010-01-01T02:52:09Z</time>
      </trkpt>
      <trkpt lat="47.98937650" lon="11.46115250">
        <ele>660.00000</ele>
        <time>2010-01-01T02:52:54Z</time>
      </trkpt>
      <trkpt lat="47.98900420" lon="11.46248270">
        <ele>660.00000</ele>
        <time>2010-01-01T02:53:33Z</time>
      </trkpt>
      <trkpt lat="47.98893930" lon="11.46303890">
        <ele>660.00000</ele>
        <time>2010-01-01T02:53:48Z</time>
      </trkpt>
      <trkpt lat="47.98887750" lon="11.46324040">
        <ele>660.00000</ele>
        <time>2010-01-01T02:53:54Z</time>
      </trkpt>
      <trkpt lat="47.98868880" lon="11.46344830">
        <ele>659.00000</ele>
        <time>2010-01-01T02:54:03Z</time>
      </trkpt>
      <trkpt lat="47.98830540" lon="11.46354960">
        <ele>658.00000</ele>
        <time>2010-01-01T02:54:19Z</time>
      </trkpt>
      <trkpt lat="47.98798970" lon="11.46341910">
        <ele>654.00000</ele>
        <time>2010-01-01T02:54:32Z</time>
      </trkpt>
      <trkpt lat="47.98769350" lon="11.46293720">
        <ele>650.00000</ele>
        <time>2010-01-01T02:54:50Z</time>
      </trkpt>
      <trkpt lat="47.98738480" lon="11.46226580">
        <ele>650.00000</ele>
        <time>2010-01-01T02:55:11Z</time>
      </trkpt>
      <trkpt lat="47.98709290" lon="11.46194840">
        <ele>649.00000</ele>
        <time>2010-01-01T02:55:26Z</time>
      </trkpt>
      <trkpt lat="47.98673170" lon="11.46193250">
        <ele>643.00000</ele>
        <time>2010-01-01T02:55:40Z</time>
      </trkpt>
      <trkpt lat="47.98639730" lon="11.46208440">
        <ele>639.00000</ele>
        <time>2010-01-01T02:55:54Z</time>
      </trkpt>
      <trkpt lat="47.98627440" lon="11.46207310">
        <ele>638.00000</ele>
        <time>2010-01-01T02:55:59Z</time>
      </trkpt>
      <trkpt lat="47.98615770" lon="11.46203390">
        <ele>637.00000</ele>
        <time>2010-01-01T02:56:04Z</time>
      </trkpt>
      <trkpt lat="47.98594330" lon="11.46166610">
        <ele>637.00000</ele>
        <time>2010-01-01T02:56:17Z</time>
      </trkpt>
      <trkpt lat="47.98564950" lon="11.46141220">
        <ele>637.00000</ele>
        <time>2010-01-01T02:56:31Z</time>
      </trkpt>
      <trkpt lat="47.98542350" lon="11.46135760">
        <ele>636.00000</ele>
        <time>2010-01-01T02:56:40Z</time>
      </trkpt>
      <trkpt lat="47.98519210" lon="11.46138930">
        <ele>634.00000</ele>
        <time>2010-01-01T02:56:49Z</time>
      </trkpt>
      <trkpt lat="47.98487960" lon="11.46164620">
        <ele>630.00000</ele>
        <time>2010-01-01T02:57:03Z</time>
      </trkpt>
      <trkpt lat="47.98455020" lon="11.46218260">
        <ele>623.00000</ele>
        <time>2010-01-01T02:57:23Z</time>
      </trkpt>
      <trkpt lat="47.98448510" lon="11.46247050">
        <ele>620.00000</ele>
        <time>2010-01-01T02:57:31Z</time>
      </trkpt>
      <trkpt lat="47.98451220" lon="11.46273830">
        <ele>619.00000</ele>
        <time>2010-01-01T02:57:38Z</time>
      </trkpt>
      <trkpt lat="47.98463890" lon="11.46305800">
        <ele>618.00000</ele>
        <time>2010-01-01T02:57:48Z</time>
      </trkpt>
      <trkpt lat="47.98546710" lon="11.46365580">
        <ele>623.00000</ele>
        <time>2010-01-01T02:58:25Z</time>
      </trkpt>
      <trkpt lat="47.98572280" lon="11.46423230">
        <ele>621.00000</ele>
        <time>2010-01-01T02:58:44Z</time>
      </trkpt>
      <trkpt lat="47.98533290" lon="11.46417420">
        <ele>618.00000</ele>
        <time>2010-01-01T02:58:59Z</time>
      </trkpt>
      <trkpt lat="47.98493050" lon="11.46376760">
        <ele>617.00000</ele>
        <time>2010-01-01T02:59:19Z</time>
      </trkpt>
      <trkpt lat="47.98405990" lon="11.46358090">
        <ele>606.00000</ele>
        <time>2010-01-01T02:59:54Z</time>
      </trkpt>
      <trkpt lat="47.98373800" lon="11.46365320">
        <ele>601.00000</ele>
        <time>2010-01-01T03:00:07Z</time>
      </trkpt>
      <trkpt lat="47.98362570" lon="11.46382880">
        <ele>598.00000</ele>
        <time>2010-01-01T03:00:13Z</time>
      </trkpt>
      <trkpt lat="47.98363990" lon="11.46404890">
        <ele>597.00000</ele>
        <time>2010-01-01T03:00:19Z</time>
      </trkpt>
      <trkpt lat="47.98409150" lon="11.46507480">
        <ele>594.00000</ele>
        <time>2010-01-01T03:00:52Z</time>
      </trkpt>
      <trkpt lat="47.98414970" lon="11.46531910">
        <ele>592.00000</ele>
        <time>2010-01-01T03:00:59Z</time>
      </trkpt>
      <trkpt lat="47.98412070" lon="11.46542900">
        <ele>591.00000</ele>
        <time>2010-01-01T03:01:02Z</time>
      </trkpt>
      <trkpt lat="47.98378670" lon="11.46577800">
        <ele>585.00000</ele>
        <time>2010-01-01T03:01:19Z</time>
      </trkpt>
      <trkpt lat="47.98354110" lon="11.46586010">
        <ele>582.00000</ele>
        <time>2010-01-01T03:01:29Z</time>
      </trkpt>
      <trkpt lat="47.98309920" lon="11.46571800">
        <ele>580.00000</ele>
        <time>2010-01-01T03:01:47Z</time>
      </trkpt>
      <trkpt lat="47.98257620" lon="11.46532040">
        <ele>581.00000</ele>
        <time>2010-01-01T03:02:10Z</time>
      </trkpt>
      <trkpt lat="47.98245350" lon="11.46511700">
        <ele>582.00000</ele>
        <time>2010-01-01T03:02:18Z</time>
      </trkpt>
      <trkpt lat="47.98219390" lon="11.46504360">
        <ele>580.00000</ele>
        <time>2010-01-01T03:02:28Z</time>
      </trkpt>
      <trkpt lat="47.98158820" lon="11.46522830">
        <ele>570.00000</ele>
        <time>2010-01-01T03:02:53Z</time>
      </trkpt>
      <trkpt lat="47.98096140" lon="11.46520480">
        <ele>564.00000</ele>
        <time>2010-01-01T03:03:18Z</time>
      </trkpt>
      <trkpt lat="47.98060580" lon="11.46536540">
        <ele>563.00000</ele>
        <time>2010-01-01T03:03:33Z</time>
      </trkpt>
      <trkpt lat="47.97984960" lon="11.46604600">
        <ele>561.00000</ele>
        <time>2010-01-01T03:04:08Z</time>
      </trkpt>
      <trkpt lat="47.97941320" lon="11.46632640">
        <ele>562.00000</ele>
        <time>2010-01-01T03:04:27Z</time>
      </trkpt>
      <trkpt lat="47.97909630" lon="11.46641530">
        <ele>563.00000</ele>
        <time>2010-01-01T03:04:40Z</time>
      </trkpt>
      <trkpt lat="47.97845250" lon="11.46643540">
        <ele>568.00000</ele>
        <time>2010-01-01T03:05:06Z</time>
      </trkpt>
      <trkpt lat="47.97805780" lon="11.46669090">
        <ele>567.00000</ele>
        <time>2010-01-01T03:05:23Z</time>
      </trkpt>
      <trkpt lat="47.97684090" lon="11.46711040">
        <ele>565.00000</ele>
        <time>2010-01-01T03:06:13Z</time>
      </trkpt>
      <trkpt lat="47.97653870" lon="11.46796040">
        <ele>560.00000</ele>
        <time>2010-01-01T03:06:39Z</time>
      </trkpt>
      <trkpt lat="47.97593990" lon="11.46888140">
        <ele>559.00000</ele>
        <time>2010-01-01T03:07:13Z</time>
      </trkpt>
      <trkpt lat="47.97546570" lon="11.46996800">
        <ele>559.00000</ele>
        <time>2010-01-01T03:07:48Z</time>
      </trkpt>
      <trkpt lat="47.97477850" lon="11.47121600">
        <ele>558.00000</ele>
        <time>2010-01-01T03:08:32Z</time>
      </trkpt>
      <trkpt lat="47.97353350" lon="11.47302860">
        <ele>557.00000</ele>
        <time>2010-01-01T03:09:41Z</time>
      </trkpt>
      <trkpt lat="47.97270920" lon="11.47395430">
        <ele>557.00000</ele>
        <time>2010-01-01T03:10:22Z</time>
      </trkpt>
      <trkpt lat="47.97245240" lon="11.47445570">
        <ele>557.00000</ele>
        <time>2010-01-01T03:10:39Z</time>
      </trkpt>
      <trkpt lat="47.97240930" lon="11.47493300">
        <ele>556.00000</ele>
        <time>2010-01-01T03:10:52Z</time>
      </trkpt>
      <trkpt lat="47.97261030" lon="11.47659880">
        <ele>554.00000</ele>
        <time>2010-01-01T03:11:38Z</time>
      </trkpt>
      <trkpt lat="47.97275450" lon="11.47683280">
        <ele>554.00000</ele>
        <time>2010-01-01T03:11:46Z</time>
      </trkpt>
      <trkpt lat="47.97289380" lon="11.47692610">
        <ele>554.00000</ele>
        <time>2010-01-01T03:11:52Z</time>
      </trkpt>
      <trkpt lat="47.97337500" lon="11.47693690">
        <ele>553.00000</ele>
        <time>2010-01-01T03:12:11Z</time>
      </trkpt>
      <trkpt lat="47.97353450" lon="11.47705640">
        <ele>553.00000</ele>
        <time>2010-01-01T03:12:19Z</time>
      </trkpt>
      <trkpt lat="47.97359740" lon="11.47728960">
        <ele>553.00000</ele>
        <time>2010-01-01T03:12:25Z</time>
      </trkpt>
      <trkpt lat="47.97357720" lon="11.47770290">
        <ele>553.00000</ele>
        <time>2010-01-01T03:12:36Z</time>
      </trkpt>
      <trkpt lat="47.97342600" lon="11.47776940">
        <ele>553.00000</ele>
        <time>2010-01-01T03:12:43Z</time>
      </trkpt>
      <trkpt lat="47.97229490" lon="11.47750000">
        <ele>554.00000</ele>
        <time>2010-01-01T03:13:29Z</time>
      </trkpt>
      <trkpt lat="47.97197060" lon="11.47751240">
        <ele>554.00000</ele>
        <time>2010-01-01T03:13:42Z</time>
      </trkpt>
      <trkpt lat="47.97130190" lon="11.47770230">
        <ele>554.00000</ele>
        <time>2010-01-01T03:14:09Z</time>
      </trkpt>
      <trkpt lat="47.97049240" lon="11.47779610">
        <ele>554.00000</ele>
        <time>2010-01-01T03:14:41Z</time>
      </trkpt>
      <trkpt lat="47.96972170" lon="11.47799690">
        <ele>554.00000</ele>
        <time>2010-01-01T03:15:13Z</time>
      </trkpt>
      <trkpt lat="47.96880120" lon="11.47827430">
        <ele>555.00000</ele>
        <time>2010-01-01T03:15:50Z</time>
      </trkpt>
      <trkpt lat="47.96741410" lon="11.47880610">
        <ele>556.00000</ele>
        <time>2010-01-01T03:16:48Z</time>
      </trkpt>
      <trkpt lat="47.96633470" lon="11.47881670">
        <ele>556.00000</ele>
        <time>2010-01-01T03:17:31Z</time>
      </trkpt>
      <trkpt lat="47.96538200" lon="11.47870140">
        <ele>556.00000</ele>
        <time>2010-01-01T03:18:09Z</time>
      </trkpt>
      <trkpt lat="47.96512600" lon="11.47883330">
        <ele>557.00000</ele>
        <time>2010-01-01T03:18:20Z</time>
      </trkpt>
      <trkpt lat="47.96444090" lon="11.47896430">
        <ele>557.00000</ele>
        <time>2010-01-01T03:18:48Z</time>
      </trkpt>
      <trkpt lat="47.96350090" lon="11.47897700">
        <ele>558.00000</ele>
        <time>2010-01-01T03:19:25Z</time>
      </trkpt>
      <trkpt lat="47.96316060" lon="11.47892180">
        <ele>558.00000</ele>
        <time>2010-01-01T03:19:39Z</time>
      </trkpt>
      <trkpt lat="47.96298500" lon="11.47881320">
        <ele>558.00000</ele>
        <time>2010-01-01T03:19:46Z</time>
      </trkpt>
      <trkpt lat="47.96261640" lon="11.47840300">
        <ele>557.00000</ele>
        <time>2010-01-01T03:20:05Z</time>
      </trkpt>
      <trkpt lat="47.96198110" lon="11.47800990">
        <ele>557.00000</ele>
        <time>2010-01-01T03:20:32Z</time>
      </trkpt>
      <trkpt lat="47.96029610" lon="11.47729780">
        <ele>558.00000</ele>
        <time>2010-01-01T03:21:43Z</time>
      </trkpt>
      <trkpt lat="47.95913600" lon="11.47645220">
        <ele>558.00000</ele>
        <time>2010-01-01T03:22:34Z</time>
      </trkpt>
      <trkpt lat="47.95861850" lon="11.47599230">
        <ele>558.00000</ele>
        <time>2010-01-01T03:22:58Z</time>
      </trkpt>
      <trkpt lat="47.95815970" lon="11.47548190">
        <ele>558.00000</ele>
        <time>2010-01-01T03:23:21Z</time>
      </trkpt>
      <trkpt lat="47.95764520" lon="11.47478190">
        <ele>558.00000</ele>
        <time>2010-01-01T03:23:49Z</time>
      </trkpt>
      <trkpt lat="47.95617710" lon="11.47186550">
        <ele>559.00000</ele>
        <time>2010-01-01T03:25:27Z</time>
      </trkpt>
      <trkpt lat="47.95597350" lon="11.47167850">
        <ele>559.00000</ele>
        <time>2010-01-01T03:25:36Z</time>
      </trkpt>
      <trkpt lat="47.95568030" lon="11.47154320">
        <ele>559.00000</ele>
        <time>2010-01-01T03:25:49Z</time>
      </trkpt>
      <trkpt lat="47.95533130" lon="11.47128140">
        <ele>560.00000</ele>
        <time>2010-01-01T03:26:04Z</time>
      </trkpt>
      <trkpt lat="47.95516470" lon="11.47107090">
        <ele>560.00000</ele>
        <time>2010-01-01T03:26:13Z</time>
      </trkpt>
      <trkpt lat="47.95496510" lon="11.47034070">
        <ele>559.00000</ele>
        <time>2010-01-01T03:26:34Z</time>
      </trkpt>
      <trkpt lat="47.95509490" lon="11.46984760">
        <ele>559.00000</ele>
        <time>2010-01-01T03:26:48Z</time>
      </trkpt>
      <trkpt lat="47.95506070" lon="11.46955380">
        <ele>559.00000</ele>
        <time>2010-01-01T03:26:56Z</time>
      </trkpt>
      <trkpt lat="47.94598850" lon="11.45048840">
        <ele>561.00000</ele>
        <time>2010-01-01T03:37:23Z</time>
      </trkpt>
      <trkpt lat="47.94561480" lon="11.44954680">
        <ele>562.00000</ele>
        <time>2010-01-01T03:37:53Z</time>
      </trkpt>
      <trkpt lat="47.94540890" lon="11.44860250">
        <ele>562.00000</ele>
        <time>2010-01-01T03:38:19Z</time>
      </trkpt>
      <trkpt lat="47.94517920" lon="11.44482460">
        <ele>562.00000</ele>
        <time>2010-01-01T03:40:01Z</time>
      </trkpt>
      <trkpt lat="47.94482750" lon="11.44381190">
        <ele>562.00000</ele>
        <time>2010-01-01T03:40:32Z</time>
      </trkpt>
      <trkpt lat="47.94460780" lon="11.44346360">
        <ele>562.00000</ele>
        <time>2010-01-01T03:40:45Z</time>
      </trkpt>
      <trkpt lat="47.94434800" lon="11.44318220">
        <ele>562.00000</ele>
        <time>2010-01-01T03:40:57Z</time>
      </trkpt>
      <trkpt lat="47.94390680" lon="11.44287590">
        <ele>562.00000</ele>
        <time>2010-01-01T03:41:17Z</time>
      </trkpt>
      <trkpt lat="47.94299860" lon="11.44246140">
        <ele>562.00000</ele>
        <time>2010-01-01T03:41:55Z</time>
      </trkpt>
      <trkpt lat="47.94132300" lon="11.44189360">
        <ele>562.00000</ele>
        <time>2010-01-01T03:43:04Z</time>
      </trkpt>
      <trkpt lat="47.93993580" lon="11.44160530">
        <ele>562.00000</ele>
        <time>2010-01-01T03:44:00Z</time>
      </trkpt>
      <trkpt lat="47.93778680" lon="11.44142230">
        <ele>563.00000</ele>
        <time>2010-01-01T03:45:26Z</time>
      </trkpt>
      <trkpt lat="47.93634910" lon="11.44160210">
        <ele>563.00000</ele>
        <time>2010-01-01T03:46:24Z</time>
      </trkpt>
      <trkpt lat="47.93492020" lon="11.44195300">
        <ele>564.00000</ele>
        <time>2010-01-01T03:47:22Z</time>
      </trkpt>
      <trkpt lat="47.93341600" lon="11.44278530">
        <ele>565.00000</ele>
        <time>2010-01-01T03:48:26Z</time>
      </trkpt>
      <trkpt lat="47.92876430" lon="11.44564420">
        <ele>568.00000</ele>
        <time>2010-01-01T03:51:47Z</time>
      </trkpt>
      <trkpt lat="47.92180300" lon="11.44977500">
        <ele>574.00000</ele>
        <time>2010-01-01T03:56:47Z</time>
      </trkpt>
      <trkpt lat="47.92090280" lon="11.44969160">
        <ele>575.00000</ele>
        <time>2010-01-01T03:57:23Z</time>
      </trkpt>
      <trkpt lat="47.92040120" lon="11.44977890">
        <ele>575.00000</ele>
        <time>2010-01-01T03:57:43Z</time>
      </trkpt>
      <trkpt lat="47.92018440" lon="11.44975860">
        <ele>575.00000</ele>
        <time>2010-01-01T03:57:52Z</time>
      </trkpt>
      <trkpt lat="47.92004950" lon="11.44968290">
        <ele>575.00000</ele>
        <time>2010-01-01T03:57:58Z</time>
      </trkpt>
      <trkpt lat="47.91935550" lon="11.44897430">
        <ele>574.00000</ele>
        <time>2010-01-01T03:58:32Z</time>
      </trkpt>
      <trkpt lat="47.91884740" lon="11.44876150">
        <ele>574.00000</ele>
        <time>2010-01-01T03:58:53Z</time>
      </trkpt>
      <trkpt lat="47.91865480" lon="11.44880490">
        <ele>575.00000</ele>
        <time>2010-01-01T03:59:01Z</time>
      </trkpt>
      <trkpt lat="47.91811200" lon="11.44918980">
        <ele>576.00000</ele>
        <time>2010-01-01T03:59:25Z</time>
      </trkpt>
      <trkpt lat="47.91741670" lon="11.44989260">
        <ele>577.00000</ele>
        <time>2010-01-01T03:59:58Z</time>
      </trkpt>
      <trkpt lat="47.91709390" lon="11.45001490">
        <ele>578.00000</ele>
        <time>2010-01-01T04:00:12Z</time>
      </trkpt>
      <trkpt lat="47.91660320" lon="11.44991360">
        <ele>578.00000</ele>
        <time>2010-01-01T04:00:31Z</time>
      </trkpt>
      <trkpt lat="47.91631280" lon="11.44992440">
        <ele>577.00000</ele>
        <time>2010-01-01T04:00:43Z</time>
      </trkpt>
      <trkpt lat="47.91558300" lon="11.45035060">
        <ele>577.00000</ele>
        <time>2010-01-01T04:01:14Z</time>
      </trkpt>
      <trkpt lat="47.91475830" lon="11.45120790">
        <ele>578.00000</ele>
        <time>2010-01-01T04:01:55Z</time>
      </trkpt>
      <trkpt lat="47.91402630" lon="11.45178350">
        <ele>578.00000</ele>
        <time>2010-01-01T04:02:28Z</time>
      </trkpt>
      <trkpt lat="47.91377670" lon="11.45205610">
        <ele>578.00000</ele>
        <time>2010-01-01T04:02:40Z</time>
      </trkpt>
      <trkpt lat="47.91269940" lon="11.45379860">
        <ele>579.00000</ele>
        <time>2010-01-01T04:03:44Z</time>
      </trkpt>
      <trkpt lat="47.91241260" lon="11.45411470">
        <ele>579.00000</ele>
        <time>2010-01-01T04:03:58Z</time>
      </trkpt>
      <trkpt lat="47.91208580" lon="11.45431690">
        <ele>579.00000</ele>
        <time>2010-01-01T04:04:12Z</time>
      </trkpt>
      <trkpt lat="47.91172710" lon="11.45437770">
        <ele>578.00000</ele>
        <time>2010-01-01T04:04:27Z</time>
      </trkpt>
      <trkpt lat="47.90913990" lon="11.45444130">
        <ele>578.00000</ele>
        <time>2010-01-01T04:06:10Z</time>
      </trkpt>
      <trkpt lat="47.90654670" lon="11.45538100">
        <ele>578.00000</ele>
        <time>2010-01-01T04:07:57Z</time>
      </trkpt>
      <trkpt lat="47.90420870" lon="11.45635280">
        <ele>579.00000</ele>
        <time>2010-01-01T04:09:34Z</time>
      </trkpt>
      <trkpt lat="47.89976490" lon="11.45926560">
        <ele>592.00000</ele>
        <time>2010-01-01T04:12:48Z</time>
      </trkpt>
      <trkpt lat="47.89947950" lon="11.45957740">
        <ele>592.00000</ele>
        <time>2010-01-01T04:13:03Z</time>
      </trkpt>
      <trkpt lat="47.89648620" lon="11.46456940">
        <ele>595.00000</ele>
        <time>2010-01-01T04:16:02Z</time>
      </trkpt>
      <trkpt lat="47.89582200" lon="11.46559000">
        <ele>595.00000</ele>
        <time>2010-01-01T04:16:41Z</time>
      </trkpt>
      <trkpt lat="47.89546140" lon="11.46609210">
        <ele>596.00000</ele>
        <time>2010-01-01T04:17:00Z</time>
      </trkpt>
      <trkpt lat="47.89458710" lon="11.46703500">
        <ele>596.00000</ele>
        <time>2010-01-01T04:17:43Z</time>
      </trkpt>
      <trkpt lat="47.89431370" lon="11.46740770">
        <ele>595.00000</ele>
        <time>2010-01-01T04:17:58Z</time>
      </trkpt>
      <trkpt lat="47.89376570" lon="11.46929890">
        <ele>596.00000</ele>
        <time>2010-01-01T04:18:54Z</time>
      </trkpt>
      <trkpt lat="47.89360060" lon="11.46965540">
        <ele>596.00000</ele>
        <time>2010-01-01T04:19:05Z</time>
      </trkpt>
      <trkpt lat="47.89315950" lon="11.47024270">
        <ele>594.00000</ele>
        <time>2010-01-01T04:19:29Z</time>
      </trkpt>
      <trkpt lat="47.89280710" lon="11.47107090">
        <ele>595.00000</ele>
        <time>2010-01-01T04:19:55Z</time>
      </trkpt>
      <trkpt lat="47.89260930" lon="11.47219120">
        <ele>599.00000</ele>
        <time>2010-01-01T04:20:26Z</time>
      </trkpt>
      <trkpt lat="47.89231280" lon="11.47302190">
        <ele>598.00000</ele>
        <time>2010-01-01T04:20:52Z</time>
      </trkpt>
      <trkpt lat="47.89093180" lon="11.47499710">
        <ele>594.00000</ele>
        <time>2010-01-01T04:22:08Z</time>
      </trkpt>
      <trkpt lat="47.89079390" lon="11.47530000">
        <ele>594.00000</ele>
        <time>2010-01-01T04:22:18Z</time>
      </trkpt>
      <trkpt lat="47.89064880" lon="11.47600140">
        <ele>597.00000</ele>
        <time>2010-01-01T04:22:38Z</time>
      </trkpt>
      <trkpt lat="47.89047810" lon="11.47647220">
        <ele>598.00000</ele>
        <time>2010-01-01T04:22:52Z</time>
      </trkpt>
      <trkpt lat="47.88923320" lon="11.47825480">
        <ele>594.00000</ele>
        <time>2010-01-01T04:24:01Z</time>
      </trkpt>
      <trkpt lat="47.88905920" lon="11.47868840">
        <ele>595.00000</ele>
        <time>2010-01-01T04:24:15Z</time>
      </trkpt>
      <trkpt lat="47.88879190" lon="11.47977720">
        <ele>597.00000</ele>
        <time>2010-01-01T04:24:46Z</time>
      </trkpt>
      <trkpt lat="47.88821870" lon="11.48154030">
        <ele>595.00000</ele>
        <time>2010-01-01T04:25:38Z</time>
      </trkpt>
      <trkpt lat="47.88819510" lon="11.48210360">
        <ele>596.00000</ele>
        <time>2010-01-01T04:25:54Z</time>
      </trkpt>
      <trkpt lat="47.88844510" lon="11.48342090">
        <ele>602.00000</ele>
        <time>2010-01-01T04:26:30Z</time>
      </trkpt>
      <trkpt lat="47.88899400" lon="11.48490700">
        <ele>606.00000</ele>
        <time>2010-01-01T04:27:16Z</time>
      </trkpt>
      <trkpt lat="47.88965280" lon="11.48619700">
        <ele>608.00000</ele>
        <time>2010-01-01T04:27:59Z</time>
      </trkpt>
      <trkpt lat="47.88977240" lon="11.48669450">
        <ele>606.00000</ele>
        <time>2010-01-01T04:28:14Z</time>
      </trkpt>
      <trkpt lat="47.88981410" lon="11.48718910">
        <ele>603.00000</ele>
        <time>2010-01-01T04:28:27Z</time>
      </trkpt>
      <trkpt lat="47.88976400" lon="11.49128730">
        <ele>600.00000</ele>
        <time>2010-01-01T04:30:17Z</time>
      </trkpt>
      <trkpt lat="47.88948250" lon="11.49306840">
        <ele>600.00000</ele>
        <time>2010-01-01T04:31:06Z</time>
      </trkpt>
      <trkpt lat="47.88912250" lon="11.49443610">
        <ele>600.00000</ele>
        <time>2010-01-01T04:31:46Z</time>
      </trkpt>
      <trkpt lat="47.88890770" lon="11.49574220">
        <ele>600.00000</ele>
        <time>2010-01-01T04:32:22Z</time>
      </trkpt>
      <trkpt lat="47.88902420" lon="11.49805650">
        <ele>601.00000</ele>
        <time>2010-01-01T04:33:24Z</time>
      </trkpt>
      <trkpt lat="47.88882020" lon="11.49956730">
        <ele>606.00000</ele>
        <time>2010-01-01T04:34:05Z</time>
      </trkpt>
      <trkpt lat="47.88887430" lon="11.50079980">
        <ele>607.00000</ele>
        <time>2010-01-01T04:34:38Z</time>
      </trkpt>
      <trkpt lat="47.88880730" lon="11.50225470">
        <ele>608.00000</ele>
        <time>2010-01-01T04:35:18Z</time>
      </trkpt>
      <trkpt lat="47.88859200" lon="11.50317690">
        <ele>609.00000</ele>
        <time>2010-01-01T04:35:44Z</time>
      </trkpt>
      <trkpt lat="47.88844260" lon="11.50337750">
        <ele>609.00000</ele>
        <time>2010-01-01T04:35:52Z</time>
      </trkpt>
      <trkpt lat="47.88824410" lon="11.50344930">
        <ele>609.00000</ele>
        <time>2010-01-01T04:36:00Z</time>
      </trkpt>
      <trkpt lat="47.88765470" lon="11.50345790">
        <ele>610.00000</ele>
        <time>2010-01-01T04:36:24Z</time>
      </trkpt>
      <trkpt lat="47.88741960" lon="11.50362270">
        <ele>610.00000</ele>
        <time>2010-01-01T04:36:34Z</time>
      </trkpt>
      <trkpt lat="47.88715130" lon="11.50401260">
        <ele>611.00000</ele>
        <time>2010-01-01T04:36:49Z</time>
      </trkpt>
      <trkpt lat="47.88697570" lon="11.50448600">
        <ele>612.00000</ele>
        <time>2010-01-01T04:37:04Z</time>
      </trkpt>
      <trkpt lat="47.88652890" lon="11.50629000">
        <ele>613.00000</ele>
        <time>2010-01-01T04:37:55Z</time>
      </trkpt>
      <trkpt lat="47.88587940" lon="11.50800250">
        <ele>615.00000</ele>
        <time>2010-01-01T04:38:48Z</time>
      </trkpt>
      <trkpt lat="47.88534380" lon="11.50921600">
        <ele>616.00000</ele>
        <time>2010-01-01T04:39:27Z</time>
      </trkpt>
      <trkpt lat="47.88505090" lon="11.51113090">
        <ele>616.00000</ele>
        <time>2010-01-01T04:40:20Z</time>
      </trkpt>
      <trkpt lat="47.88476900" lon="11.51408590">
        <ele>618.00000</ele>
        <time>2010-01-01T04:41:40Z</time>
      </trkpt>
      <trkpt lat="47.88409980" lon="11.51757400">
        <ele>619.00000</ele>
        <time>2010-01-01T04:43:17Z</time>
      </trkpt>
      <trkpt lat="47.88391540" lon="11.51808260">
        <ele>619.00000</ele>
        <time>2010-01-01T04:43:33Z</time>
      </trkpt>
      <trkpt lat="47.88339190" lon="11.51901080">
        <ele>619.00000</ele>
        <time>2010-01-01T04:44:05Z</time>
      </trkpt>
      <trkpt lat="47.88296080" lon="11.51999700">
        <ele>620.00000</ele>
        <time>2010-01-01T04:44:37Z</time>
      </trkpt>
      <trkpt lat="47.88252330" lon="11.52071990">
        <ele>620.00000</ele>
        <time>2010-01-01T04:45:03Z</time>
      </trkpt>
      <trkpt lat="47.88232060" lon="11.52130670">
        <ele>620.00000</ele>
        <time>2010-01-01T04:45:21Z</time>
      </trkpt>
      <trkpt lat="47.88227270" lon="11.52204860">
        <ele>620.00000</ele>
        <time>2010-01-01T04:45:41Z</time>
      </trkpt>
      <trkpt lat="47.88232510" lon="11.52335600">
        <ele>620.00000</ele>
        <time>2010-01-01T04:46:16Z</time>
      </trkpt>
      <trkpt lat="47.88214020" lon="11.52511200">
        <ele>621.00000</ele>
        <time>2010-01-01T04:47:04Z</time>
      </trkpt>
      <trkpt lat="47.88209940" lon="11.52627400">
        <ele>622.00000</ele>
        <time>2010-01-01T04:47:35Z</time>
      </trkpt>
      <trkpt lat="47.88196090" lon="11.52651910">
        <ele>623.00000</ele>
        <time>2010-01-01T04:47:44Z</time>
      </trkpt>
      <trkpt lat="47.88167470" lon="11.52680770">
        <ele>625.00000</ele>
        <time>2010-01-01T04:47:57Z</time>
      </trkpt>
      <trkpt lat="47.88130720" lon="11.52742320">
        <ele>629.00000</ele>
        <time>2010-01-01T04:48:19Z</time>
      </trkpt>
      <trkpt lat="47.88114180" lon="11.52790690">
        <ele>631.00000</ele>
        <time>2010-01-01T04:48:34Z</time>
      </trkpt>
      <trkpt lat="47.88094040" lon="11.52898930">
        <ele>636.00000</ele>
        <time>2010-01-01T04:49:04Z</time>
      </trkpt>
      <trkpt lat="47.88079590" lon="11.52934870">
        <ele>637.00000</ele>
        <time>2010-01-01T04:49:15Z</time>
      </trkpt>
      <trkpt lat="47.88046100" lon="11.52987070">
        <ele>638.00000</ele>
        <time>2010-01-01T04:49:35Z</time>
      </trkpt>
      <trkpt lat="47.88012010" lon="11.53022470">
        <ele>640.00000</ele>
        <time>2010-01-01T04:49:51Z</time>
      </trkpt>
      <trkpt lat="47.87961270" lon="11.53039930">
        <ele>644.00000</ele>
        <time>2010-01-01T04:50:12Z</time>
      </trkpt>
      <trkpt lat="47.87903150" lon="11.53080500">
        <ele>649.00000</ele>
        <time>2010-01-01T04:50:38Z</time>
      </trkpt>
      <trkpt lat="47.87853230" lon="11.53088210">
        <ele>654.00000</ele>
        <time>2010-01-01T04:50:58Z</time>
      </trkpt>
      <trkpt lat="47.87818350" lon="11.53100170">
        <ele>657.00000</ele>
        <time>2010-01-01T04:51:12Z</time>
      </trkpt>
      <trkpt lat="47.87796370" lon="11.53117420">
        <ele>658.00000</ele>
        <time>2010-01-01T04:51:22Z</time>
      </trkpt>
      <trkpt lat="47.87777910" lon="11.53145050">
        <ele>658.00000</ele>
        <time>2010-01-01T04:51:33Z</time>
      </trkpt>
      <trkpt lat="47.87762490" lon="11.53179490">
        <ele>659.00000</ele>
        <time>2010-01-01T04:51:44Z</time>
      </trkpt>
      <trkpt lat="47.87751690" lon="11.53230030">
        <ele>659.00000</ele>
        <time>2010-01-01T04:51:58Z</time>
      </trkpt>
      <trkpt lat="47.87763500" lon="11.53299190">
        <ele>662.00000</ele>
        <time>2010-01-01T04:52:17Z</time>
      </trkpt>
      <trkpt lat="47.87753660" lon="11.53423100">
        <ele>671.00000</ele>
        <time>2010-01-01T04:52:51Z</time>
      </trkpt>
      <trkpt lat="47.87695650" lon="11.53633930">
        <ele>692.00000</ele>
        <time>2010-01-01T04:53:52Z</time>
      </trkpt>
      <trkpt lat="47.87689270" lon="11.53673140">
        <ele>694.00000</ele>
        <time>2010-01-01T04:54:03Z</time>
      </trkpt>
      <trkpt lat="47.87668340" lon="11.53723210">
        <ele>695.00000</ele>
        <time>2010-01-01T04:54:19Z</time>
      </trkpt>
      <trkpt lat="47.87648710" lon="11.53730250">
        <ele>696.00000</ele>
        <time>2010-01-01T04:54:27Z</time>
      </trkpt>
      <trkpt lat="47.87596860" lon="11.53782810">
        <ele>700.00000</ele>
        <time>2010-01-01T04:54:52Z</time>
      </trkpt>
      <trkpt lat="47.87557960" lon="11.53797020">
        <ele>703.00000</ele>
        <time>2010-01-01T04:55:08Z</time>
      </trkpt>
      <trkpt lat="47.87516650" lon="11.53836440">
        <ele>709.00000</ele>
        <time>2010-01-01T04:55:28Z</time>
      </trkpt>
      <trkpt lat="47.87493310" lon="11.53845430">
        <ele>711.00000</ele>
        <time>2010-01-01T04:55:37Z</time>
      </trkpt>
      <trkpt lat="47.87475550" lon="11.53840720">
        <ele>713.00000</ele>
        <time>2010-01-01T04:55:44Z</time>
      </trkpt>
      <trkpt lat="47.87461040" lon="11.53845990">
        <ele>714.00000</ele>
        <time>2010-01-01T04:55:50Z</time>
      </trkpt>
      <trkpt lat="47.87429780" lon="11.53875320">
        <ele>718.00000</ele>
        <time>2010-01-01T04:56:05Z</time>
      </trkpt>
      <trkpt lat="47.87415530" lon="11.53881900">
        <ele>719.00000</ele>
        <time>2010-01-01T04:56:11Z</time>
      </trkpt>
      <trkpt lat="47.87399770" lon="11.53884650">
        <ele>719.00000</ele>
        <time>2010-01-01T04:56:18Z</time>
      </trkpt>
      <trkpt lat="47.87370500" lon="11.53872870">
        <ele>719.00000</ele>
        <time>2010-01-01T04:56:30Z</time>
      </trkpt>
      <trkpt lat="47.87329420" lon="11.53820330">
        <ele>718.00000</ele>
        <time>2010-01-01T04:56:51Z</time>
      </trkpt>
      <trkpt lat="47.87296910" lon="11.53801680">
        <ele>719.00000</ele>
        <time>2010-01-01T04:57:05Z</time>
      </trkpt>
      <trkpt lat="47.87271550" lon="11.53804040">
        <ele>719.00000</ele>
        <time>2010-01-01T04:57:15Z</time>
      </trkpt>
      <trkpt lat="47.87240690" lon="11.53816670">
        <ele>719.00000</ele>
        <time>2010-01-01T04:57:28Z</time>
      </trkpt>
      <trkpt lat="47.87203740" lon="11.53859160">
        <ele>720.00000</ele>
        <time>2010-01-01T04:57:47Z</time>
      </trkpt>
      <trkpt lat="47.87199430" lon="11.53872550">
        <ele>721.00000</ele>
        <time>2010-01-01T04:57:51Z</time>
      </trkpt>
      <trkpt lat="47.87191430" lon="11.54060460">
        <ele>726.00000</ele>
        <time>2010-01-01T04:58:41Z</time>
      </trkpt>
      <trkpt lat="47.87214590" lon="11.54171190">
        <ele>730.00000</ele>
        <time>2010-01-01T04:59:13Z</time>
      </trkpt>
      <trkpt lat="47.87404160" lon="11.54675070">
        <ele>735.00000</ele>
        <time>2010-01-01T05:01:48Z</time>
      </trkpt>
      <trkpt lat="47.87420310" lon="11.54738530">
        <ele>735.00000</ele>
        <time>2010-01-01T05:02:06Z</time>
      </trkpt>
      <trkpt lat="47.87426090" lon="11.54802290">
        <ele>733.00000</ele>
        <time>2010-01-01T05:02:23Z</time>
      </trkpt>
      <trkpt lat="47.87423420" lon="11.54894140">
        <ele>733.00000</ele>
        <time>2010-01-01T05:02:48Z</time>
      </trkpt>
      <trkpt lat="47.87367950" lon="11.55166010">
        <ele>727.00000</ele>
        <time>2010-01-01T05:04:04Z</time>
      </trkpt>
      <trkpt lat="47.87332680" lon="11.55478860">
        <ele>720.00000</ele>
        <time>2010-01-01T05:05:29Z</time>
      </trkpt>
      <trkpt lat="47.87326470" lon="11.55749790">
        <ele>716.00000</ele>
        <time>2010-01-01T05:06:42Z</time>
      </trkpt>
      <trkpt lat="47.87334090" lon="11.55960470">
        <ele>711.00000</ele>
        <time>2010-01-01T05:07:39Z</time>
      </trkpt>
      <trkpt lat="47.87345250" lon="11.56053190">
        <ele>710.00000</ele>
        <time>2010-01-01T05:08:04Z</time>
      </trkpt>
      <trkpt lat="47.87368730" lon="11.56138370">
        <ele>709.00000</ele>
        <time>2010-01-01T05:08:29Z</time>
      </trkpt>
      <trkpt lat="47.87362110" lon="11.56145580">
        <ele>709.00000</ele>
        <time>2010-01-01T05:08:32Z</time>
      </trkpt>
      <trkpt lat="47.87302830" lon="11.56146740">
        <ele>709.00000</ele>
        <time>2010-01-01T05:08:56Z</time>
      </trkpt>
      <trkpt lat="47.87256220" lon="11.56165690">
        <ele>712.00000</ele>
        <time>2010-01-01T05:09:15Z</time>
      </trkpt>
      <trkpt lat="47.87198990" lon="11.56177680">
        <ele>716.00000</ele>
        <time>2010-01-01T05:09:38Z</time>
      </trkpt>
      <trkpt lat="47.87090400" lon="11.56221880">
        <ele>719.00000</ele>
        <time>2010-01-01T05:10:23Z</time>
      </trkpt>
      <trkpt lat="47.87044200" lon="11.56246410">
        <ele>719.00000</ele>
        <time>2010-01-01T05:10:43Z</time>
      </trkpt>
      <trkpt lat="47.86891260" lon="11.56342450">
        <ele>718.00000</ele>
        <time>2010-01-01T05:11:50Z</time>
      </trkpt>
      <trkpt lat="47.86804950" lon="11.56412950">
        <ele>715.00000</ele>
        <time>2010-01-01T05:12:29Z</time>
      </trkpt>
      <trkpt lat="47.86725670" lon="11.56492140">
        <ele>709.00000</ele>
        <time>2010-01-01T05:13:07Z</time>
      </trkpt>
      <trkpt lat="47.86675430" lon="11.56533590">
        <ele>707.00000</ele>
        <time>2010-01-01T05:13:30Z</time>
      </trkpt>
      <trkpt lat="47.86521950" lon="11.56618320">
        <ele>703.00000</ele>
        <time>2010-01-01T05:14:36Z</time>
      </trkpt>
      <trkpt lat="47.86404970" lon="11.56735540">
        <ele>702.00000</ele>
        <time>2010-01-01T05:15:32Z</time>
      </trkpt>
      <trkpt lat="47.86253210" lon="11.56823370">
        <ele>700.00000</ele>
        <time>2010-01-01T05:16:37Z</time>
      </trkpt>
      <trkpt lat="47.86167970" lon="11.56859540">
        <ele>700.00000</ele>
        <time>2010-01-01T05:17:13Z</time>
      </trkpt>
      <trkpt lat="47.86113090" lon="11.56898600">
        <ele>700.00000</ele>
        <time>2010-01-01T05:17:37Z</time>
      </trkpt>
      <trkpt lat="47.85992010" lon="11.56927000">
        <ele>701.00000</ele>
        <time>2010-01-01T05:18:26Z</time>
      </trkpt>
      <trkpt lat="47.85851060" lon="11.56979940">
        <ele>700.00000</ele>
        <time>2010-01-01T05:19:24Z</time>
      </trkpt>
      <trkpt lat="47.85809940" lon="11.56989760">
        <ele>700.00000</ele>
        <time>2010-01-01T05:19:41Z</time>
      </trkpt>
      <trkpt lat="47.85753260" lon="11.56992830">
        <ele>700.00000</ele>
        <time>2010-01-01T05:20:04Z</time>
      </trkpt>
      <trkpt lat="47.85736870" lon="11.56986840">
        <ele>700.00000</ele>
        <time>2010-01-01T05:20:10Z</time>
      </trkpt>
      <trkpt lat="47.85696350" lon="11.56957220">
        <ele>700.00000</ele>
        <time>2010-01-01T05:20:28Z</time>
      </trkpt>
      <trkpt lat="47.85640360" lon="11.56952610">
        <ele>700.00000</ele>
        <time>2010-01-01T05:20:51Z</time>
      </trkpt>
      <trkpt lat="47.85590280" lon="11.56868380">
        <ele>700.00000</ele>
        <time>2010-01-01T05:21:21Z</time>
      </trkpt>
      <trkpt lat="47.85577560" lon="11.56784690">
        <ele>700.00000</ele>
        <time>2010-01-01T05:21:44Z</time>
      </trkpt>
      <trkpt lat="47.85548560" lon="11.56700860">
        <ele>700.00000</ele>
        <time>2010-01-01T05:22:10Z</time>
      </trkpt>
      <trkpt lat="47.85461730" lon="11.56670500">
        <ele>695.00000</ele>
        <time>2010-01-01T05:22:45Z</time>
      </trkpt>
      <trkpt lat="47.85429110" lon="11.56647740">
        <ele>689.00000</ele>
        <time>2010-01-01T05:23:00Z</time>
      </trkpt>
      <trkpt lat="47.85391060" lon="11.56599440">
        <ele>684.00000</ele>
        <time>2010-01-01T05:23:20Z</time>
      </trkpt>
      <trkpt lat="47.85361810" lon="11.56536670">
        <ele>681.00000</ele>
        <time>2010-01-01T05:23:40Z</time>
      </trkpt>
      <trkpt lat="47.85349140" lon="11.56528640">
        <ele>681.00000</ele>
        <time>2010-01-01T05:23:46Z</time>
      </trkpt>
      <trkpt lat="47.85296310" lon="11.56544260">
        <ele>679.00000</ele>
        <time>2010-01-01T05:24:07Z</time>
      </trkpt>
      <trkpt lat="47.85119140" lon="11.56625660">
        <ele>667.00000</ele>
        <time>2010-01-01T05:25:21Z</time>
      </trkpt>
      <trkpt lat="47.85108320" lon="11.56648210">
        <ele>666.00000</ele>
        <time>2010-01-01T05:25:29Z</time>
      </trkpt>
      <trkpt lat="47.85108320" lon="11.56763630">
        <ele>665.00000</ele>
        <time>2010-01-01T05:26:00Z</time>
      </trkpt>
      <trkpt lat="47.85097300" lon="11.56811210">
        <ele>663.00000</ele>
        <time>2010-01-01T05:26:13Z</time>
      </trkpt>
      <trkpt lat="47.85012820" lon="11.56881180">
        <ele>660.00000</ele>
        <time>2010-01-01T05:26:52Z</time>
      </trkpt>
      <trkpt lat="47.84945170" lon="11.56920580">
        <ele>657.00000</ele>
        <time>2010-01-01T05:27:21Z</time>
      </trkpt>
      <trkpt lat="47.84926580" lon="11.56924030">
        <ele>656.00000</ele>
        <time>2010-01-01T05:27:29Z</time>
      </trkpt>
      <trkpt lat="47.84898850" lon="11.56919230">
        <ele>655.00000</ele>
        <time>2010-01-01T05:27:40Z</time>
      </trkpt>
      <trkpt lat="47.84872040" lon="11.56906820">
        <ele>654.00000</ele>
        <time>2010-01-01T05:27:51Z</time>
      </trkpt>
      <trkpt lat="47.84805210" lon="11.56859760">
        <ele>651.00000</ele>
        <time>2010-01-01T05:28:21Z</time>
      </trkpt>
      <trkpt lat="47.84722180" lon="11.56863920">
        <ele>646.00000</ele>
        <time>2010-01-01T05:28:54Z</time>
      </trkpt>
      <trkpt lat="47.84638440" lon="11.56837090">
        <ele>643.00000</ele>
        <time>2010-01-01T05:29:28Z</time>
      </trkpt>
      <trkpt lat="47.84617810" lon="11.56842480">
        <ele>642.00000</ele>
        <time>2010-01-01T05:29:37Z</time>
      </trkpt>
      <trkpt lat="47.84567430" lon="11.56919770">
        <ele>640.00000</ele>
        <time>2010-01-01T05:30:06Z</time>
      </trkpt>
      <trkpt lat="47.84539620" lon="11.56944480">
        <ele>640.00000</ele>
        <time>2010-01-01T05:30:19Z</time>
      </trkpt>
      <trkpt lat="47.84533660" lon="11.56962440">
        <ele>640.00000</ele>
        <time>2010-01-01T05:30:24Z</time>
      </trkpt>
      <trkpt lat="47.84552500" lon="11.57107280">
        <ele>641.00000</ele>
        <time>2010-01-01T05:31:04Z</time>
      </trkpt>
      <trkpt lat="47.84553140" lon="11.57358500">
        <ele>644.00000</ele>
        <time>2010-01-01T05:32:11Z</time>
      </trkpt>
      <trkpt lat="47.84575050" lon="11.57454540">
        <ele>646.00000</ele>
        <time>2010-01-01T05:32:38Z</time>
      </trkpt>
      <trkpt lat="47.84685660" lon="11.57683610">
        <ele>655.00000</ele>
        <time>2010-01-01T05:33:54Z</time>
      </trkpt>
      <trkpt lat="47.84693010" lon="11.57706320">
        <ele>655.00000</ele>
        <time>2010-01-01T05:34:01Z</time>
      </trkpt>
      <trkpt lat="47.84693310" lon="11.57733610">
        <ele>655.00000</ele>
        <time>2010-01-01T05:34:08Z</time>
      </trkpt>
      <trkpt lat="47.84634360" lon="11.57850480">
        <ele>655.00000</ele>
        <time>2010-01-01T05:34:48Z</time>
      </trkpt>
      <trkpt lat="47.84596530" lon="11.57988770">
        <ele>656.00000</ele>
        <time>2010-01-01T05:35:28Z</time>
      </trkpt>
      <trkpt lat="47.84554750" lon="11.58066070">
        <ele>655.00000</ele>
        <time>2010-01-01T05:35:54Z</time>
      </trkpt>
      <trkpt lat="47.84537440" lon="11.58136520">
        <ele>655.00000</ele>
        <time>2010-01-01T05:36:14Z</time>
      </trkpt>
      <trkpt lat="47.84525460" lon="11.58303490">
        <ele>657.00000</ele>
        <time>2010-01-01T05:37:00Z</time>
      </trkpt>
      <trkpt lat="47.84540960" lon="11.58434120">
        <ele>659.00000</ele>
        <time>2010-01-01T05:37:35Z</time>
      </trkpt>
      <trkpt lat="47.84511370" lon="11.58519940">
        <ele>660.00000</ele>
        <time>2010-01-01T05:38:01Z</time>
      </trkpt>
      <trkpt lat="47.84468950" lon="11.58596150">
        <ele>662.00000</ele>
        <time>2010-01-01T05:38:28Z</time>
      </trkpt>
      <trkpt lat="47.84410350" lon="11.58672610">
        <ele>665.00000</ele>
        <time>2010-01-01T05:38:59Z</time>
      </trkpt>
      <trkpt lat="47.84396760" lon="11.58675720">
        <ele>665.00000</ele>
        <time>2010-01-01T05:39:04Z</time>
      </trkpt>
      <trkpt lat="47.84378240" lon="11.58670990">
        <ele>665.00000</ele>
        <time>2010-01-01T05:39:12Z</time>
      </trkpt>
      <trkpt lat="47.84324320" lon="11.58678880">
        <ele>666.00000</ele>
        <time>2010-01-01T05:39:34Z</time>
      </trkpt>
      <trkpt lat="47.84291730" lon="11.58671630">
        <ele>668.00000</ele>
        <time>2010-01-01T05:39:47Z</time>
      </trkpt>
      <trkpt lat="47.84272400" lon="11.58660850">
        <ele>668.00000</ele>
        <time>2010-01-01T05:39:55Z</time>
      </trkpt>
      <trkpt lat="47.84261700" lon="11.58615270">
        <ele>668.00000</ele>
        <time>2010-01-01T05:40:08Z</time>
      </trkpt>
      <trkpt lat="47.84258130" lon="11.58554770">
        <ele>666.00000</ele>
        <time>2010-01-01T05:40:24Z</time>
      </trkpt>
      <trkpt lat="47.84245180" lon="11.58503330">
        <ele>665.00000</ele>
        <time>2010-01-01T05:40:39Z</time>
      </trkpt>
      <trkpt lat="47.84228780" lon="11.58474960">
        <ele>666.00000</ele>
        <time>2010-01-01T05:40:49Z</time>
      </trkpt>
      <trkpt lat="47.84203120" lon="11.58448330">
        <ele>666.00000</ele>
        <time>2010-01-01T05:41:02Z</time>
      </trkpt>
      <trkpt lat="47.84174620" lon="11.58435750">
        <ele>667.00000</ele>
        <time>2010-01-01T05:41:14Z</time>
      </trkpt>
      <trkpt lat="47.84082240" lon="11.58420050">
        <ele>671.00000</ele>
        <time>2010-01-01T05:41:51Z</time>
      </trkpt>
      <trkpt lat="47.83977510" lon="11.58365980">
        <ele>676.00000</ele>
        <time>2010-01-01T05:42:35Z</time>
      </trkpt>
      <trkpt lat="47.83919560" lon="11.58320110">
        <ele>679.00000</ele>
        <time>2010-01-01T05:43:01Z</time>
      </trkpt>
      <trkpt lat="47.83849140" lon="11.58294800">
        <ele>679.00000</ele>
        <time>2010-01-01T05:43:30Z</time>
      </trkpt>
      <trkpt lat="47.83827870" lon="11.58295500">
        <ele>679.00000</ele>
        <time>2010-01-01T05:43:39Z</time>
      </trkpt>
      <trkpt lat="47.83810930" lon="11.58308480">
        <ele>679.00000</ele>
        <time>2010-01-01T05:43:47Z</time>
      </trkpt>
      <trkpt lat="47.83759450" lon="11.58377280">
        <ele>680.00000</ele>
        <time>2010-01-01T05:44:14Z</time>
      </trkpt>
      <trkpt lat="47.83626470" lon="11.58446020">
        <ele>686.00000</ele>
        <time>2010-01-01T05:45:11Z</time>
      </trkpt>
      <trkpt lat="47.83517430" lon="11.58559450">
        <ele>697.00000</ele>
        <time>2010-01-01T05:46:04Z</time>
      </trkpt>
      <trkpt lat="47.83493330" lon="11.58569790">
        <ele>699.00000</ele>
        <time>2010-01-01T05:46:14Z</time>
      </trkpt>
      <trkpt lat="47.83415090" lon="11.58541970">
        <ele>705.00000</ele>
        <time>2010-01-01T05:46:46Z</time>
      </trkpt>
      <trkpt lat="47.83388210" lon="11.58514560">
        <ele>703.00000</ele>
        <time>2010-01-01T05:46:59Z</time>
      </trkpt>
      <trkpt lat="47.83280450" lon="11.58454030">
        <ele>700.00000</ele>
        <time>2010-01-01T05:47:45Z</time>
      </trkpt>
      <trkpt lat="47.83203840" lon="11.58382420">
        <ele>699.00000</ele>
        <time>2010-01-01T05:48:21Z</time>
      </trkpt>
      <trkpt lat="47.83024260" lon="11.58284880">
        <ele>696.00000</ele>
        <time>2010-01-01T05:49:38Z</time>
      </trkpt>
      <trkpt lat="47.82942870" lon="11.58291310">
        <ele>691.00000</ele>
        <time>2010-01-01T05:50:11Z</time>
      </trkpt>
      <trkpt lat="47.82858190" lon="11.58314980">
        <ele>692.00000</ele>
        <time>2010-01-01T05:50:45Z</time>
      </trkpt>
      <trkpt lat="47.82817120" lon="11.58316930">
        <ele>694.00000</ele>
        <time>2010-01-01T05:51:02Z</time>
      </trkpt>
      <trkpt lat="47.82773510" lon="11.58301670">
        <ele>695.00000</ele>
        <time>2010-01-01T05:51:19Z</time>
      </trkpt>
      <trkpt lat="47.82644780" lon="11.58230200">
        <ele>696.00000</ele>
        <time>2010-01-01T05:52:14Z</time>
      </trkpt>
      <trkpt lat="47.82598180" lon="11.58221210">
        <ele>698.00000</ele>
        <time>2010-01-01T05:52:33Z</time>
      </trkpt>
      <trkpt lat="47.82572290" lon="11.58208720">
        <ele>698.00000</ele>
        <time>2010-01-01T05:52:44Z</time>
      </trkpt>
      <trkpt lat="47.82549100" lon="11.58217120">
        <ele>698.00000</ele>
        <time>2010-01-01T05:52:54Z</time>
      </trkpt>
      <trkpt lat="47.82505240" lon="11.58248730">
        <ele>698.00000</ele>
        <time>2010-01-01T05:53:13Z</time>
      </trkpt>
      <trkpt lat="47.82404400" lon="11.58239280">
        <ele>701.00000</ele>
        <time>2010-01-01T05:53:54Z</time>
      </trkpt>
      <trkpt lat="47.82368380" lon="11.58225930">
        <ele>703.00000</ele>
        <time>2010-01-01T05:54:09Z</time>
      </trkpt>
      <trkpt lat="47.82344790" lon="11.58203220">
        <ele>704.00000</ele>
        <time>2010-01-01T05:54:20Z</time>
      </trkpt>
      <trkpt lat="47.82323350" lon="11.58192140">
        <ele>703.00000</ele>
        <time>2010-01-01T05:54:29Z</time>
      </trkpt>
      <trkpt lat="47.82258810" lon="11.58200140">
        <ele>697.00000</ele>
        <time>2010-01-01T05:54:55Z</time>
      </trkpt>
      <trkpt lat="47.82241360" lon="11.58195710">
        <ele>695.00000</ele>
        <time>2010-01-01T05:55:02Z</time>
      </trkpt>
      <trkpt lat="47.82182930" lon="11.58129070">
        <ele>687.00000</ele>
        <time>2010-01-01T05:55:31Z</time>
      </trkpt>
      <trkpt lat="47.82160810" lon="11.58117250">
        <ele>685.00000</ele>
        <time>2010-01-01T05:55:41Z</time>
      </trkpt>
      <trkpt lat="47.82126470" lon="11.58122530">
        <ele>685.00000</ele>
        <time>2010-01-01T05:55:55Z</time>
      </trkpt>
      <trkpt lat="47.82039680" lon="11.58166350">
        <ele>686.00000</ele>
        <time>2010-01-01T05:56:31Z</time>
      </trkpt>
      <trkpt lat="47.81998380" lon="11.58178900">
        <ele>686.00000</ele>
        <time>2010-01-01T05:56:48Z</time>
      </trkpt>
      <trkpt lat="47.81975570" lon="11.58207160">
        <ele>687.00000</ele>
        <time>2010-01-01T05:57:00Z</time>
      </trkpt>
      <trkpt lat="47.81952030" lon="11.58251950">
        <ele>688.00000</ele>
        <time>2010-01-01T05:57:15Z</time>
      </trkpt>
      <trkpt lat="47.81933920" lon="11.58265300">
        <ele>687.00000</ele>
        <time>2010-01-01T05:57:23Z</time>
      </trkpt>
      <trkpt lat="47.81866930" lon="11.58267920">
        <ele>682.00000</ele>
        <time>2010-01-01T05:57:50Z</time>
      </trkpt>
      <trkpt lat="47.81817610" lon="11.58280890">
        <ele>680.00000</ele>
        <time>2010-01-01T05:58:10Z</time>
      </trkpt>
      <trkpt lat="47.81799980" lon="11.58279240">
        <ele>680.00000</ele>
        <time>2010-01-01T05:58:17Z</time>
      </trkpt>
      <trkpt lat="47.81787220" lon="11.58270830">
        <ele>680.00000</ele>
        <time>2010-01-01T05:58:23Z</time>
      </trkpt>
      <trkpt lat="47.81776760" lon="11.58230680">
        <ele>680.00000</ele>
        <time>2010-01-01T05:58:34Z</time>
      </trkpt>
      <trkpt lat="47.81720300" lon="11.58131240">
        <ele>686.00000</ele>
        <time>2010-01-01T05:59:09Z</time>
      </trkpt>
      <trkpt lat="47.81690770" lon="11.58113810">
        <ele>687.00000</ele>
        <time>2010-01-01T05:59:22Z</time>
      </trkpt>
      <trkpt lat="47.81610380" lon="11.58086900">
        <ele>689.00000</ele>
        <time>2010-01-01T05:59:55Z</time>
      </trkpt>
      <trkpt lat="47.81534890" lon="11.58042510">
        <ele>690.00000</ele>
        <time>2010-01-01T06:00:28Z</time>
      </trkpt>
      <trkpt lat="47.81494390" lon="11.58004120">
        <ele>690.00000</ele>
        <time>2010-01-01T06:00:47Z</time>
      </trkpt>
      <trkpt lat="47.81465480" lon="11.57948900">
        <ele>690.00000</ele>
        <time>2010-01-01T06:01:06Z</time>
      </trkpt>
      <trkpt lat="47.81313070" lon="11.57762110">
        <ele>691.00000</ele>
        <time>2010-01-01T06:02:25Z</time>
      </trkpt>
      <trkpt lat="47.81282270" lon="11.57706260">
        <ele>690.00000</ele>
        <time>2010-01-01T06:02:44Z</time>
      </trkpt>
      <trkpt lat="47.81248890" lon="11.57592140">
        <ele>694.00000</ele>
        <time>2010-01-01T06:03:18Z</time>
      </trkpt>
      <trkpt lat="47.81215620" lon="11.57548360">
        <ele>696.00000</ele>
        <time>2010-01-01T06:03:35Z</time>
      </trkpt>
      <trkpt lat="47.81166230" lon="11.57519990">
        <ele>697.00000</ele>
        <time>2010-01-01T06:03:57Z</time>
      </trkpt>
      <trkpt lat="47.81090540" lon="11.57528170">
        <ele>695.00000</ele>
        <time>2010-01-01T06:04:27Z</time>
      </trkpt>
      <trkpt lat="47.81036150" lon="11.57506830">
        <ele>695.00000</ele>
        <time>2010-01-01T06:04:49Z</time>
      </trkpt>
      <trkpt lat="47.80960920" lon="11.57504060">
        <ele>694.00000</ele>
        <time>2010-01-01T06:05:20Z</time>
      </trkpt>
      <trkpt lat="47.80937840" lon="11.57496570">
        <ele>693.00000</ele>
        <time>2010-01-01T06:05:29Z</time>
      </trkpt>
      <trkpt lat="47.80826860" lon="11.57432120">
        <ele>690.00000</ele>
        <time>2010-01-01T06:06:17Z</time>
      </trkpt>
      <trkpt lat="47.80709480" lon="11.57395120">
        <ele>686.00000</ele>
        <time>2010-01-01T06:07:05Z</time>
      </trkpt>
      <trkpt lat="47.80673560" lon="11.57376500">
        <ele>686.00000</ele>
        <time>2010-01-01T06:07:20Z</time>
      </trkpt>
      <trkpt lat="47.80579710" lon="11.57278310">
        <ele>686.00000</ele>
        <time>2010-01-01T06:08:06Z</time>
      </trkpt>
      <trkpt lat="47.80491320" lon="11.57244780">
        <ele>691.00000</ele>
        <time>2010-01-01T06:08:42Z</time>
      </trkpt>
      <trkpt lat="47.80467310" lon="11.57228070">
        <ele>694.00000</ele>
        <time>2010-01-01T06:08:53Z</time>
      </trkpt>
      <trkpt lat="47.80378510" lon="11.57251000">
        <ele>697.00000</ele>
        <time>2010-01-01T06:09:29Z</time>
      </trkpt>
      <trkpt lat="47.80231490" lon="11.57305530">
        <ele>699.00000</ele>
        <time>2010-01-01T06:10:30Z</time>
      </trkpt>
      <trkpt lat="47.80207280" lon="11.57307700">
        <ele>699.00000</ele>
        <time>2010-01-01T06:10:39Z</time>
      </trkpt>
      <trkpt lat="47.80163750" lon="11.57285320">
        <ele>699.00000</ele>
        <time>2010-01-01T06:10:58Z</time>
      </trkpt>
      <trkpt lat="47.80152100" lon="11.57285470">
        <ele>700.00000</ele>
        <time>2010-01-01T06:11:03Z</time>
      </trkpt>
      <trkpt lat="47.80099320" lon="11.57335940">
        <ele>702.00000</ele>
        <time>2010-01-01T06:11:28Z</time>
      </trkpt>
      <trkpt lat="47.80037790" lon="11.57419850">
        <ele>706.00000</ele>
        <time>2010-01-01T06:12:01Z</time>
      </trkpt>
      <trkpt lat="47.79992220" lon="11.57457410">
        <ele>707.00000</ele>
        <time>2010-01-01T06:12:22Z</time>
      </trkpt>
      <trkpt lat="47.79951810" lon="11.57470100">
        <ele>710.00000</ele>
        <time>2010-01-01T06:12:38Z</time>
      </trkpt>
      <trkpt lat="47.79939800" lon="11.57480710">
        <ele>711.00000</ele>
        <time>2010-01-01T06:12:44Z</time>
      </trkpt>
      <trkpt lat="47.79946790" lon="11.57528000">
        <ele>710.00000</ele>
        <time>2010-01-01T06:12:57Z</time>
      </trkpt>
      <trkpt lat="47.79978180" lon="11.57611870">
        <ele>708.00000</ele>
        <time>2010-01-01T06:13:23Z</time>
      </trkpt>
      <trkpt lat="47.79998000" lon="11.57653430">
        <ele>708.00000</ele>
        <time>2010-01-01T06:13:37Z</time>
      </trkpt>
      <trkpt lat="47.80052140" lon="11.57737830">
        <ele>712.00000</ele>
        <time>2010-01-01T06:14:08Z</time>
      </trkpt>
      <trkpt lat="47.80083030" lon="11.57818550">
        <ele>716.00000</ele>
        <time>2010-01-01T06:14:33Z</time>
      </trkpt>
      <trkpt lat="47.80126520" lon="11.57984870">
        <ele>718.00000</ele>
        <time>2010-01-01T06:15:21Z</time>
      </trkpt>
      <trkpt lat="47.80135520" lon="11.58034960">
        <ele>718.00000</ele>
        <time>2010-01-01T06:15:35Z</time>
      </trkpt>
      <trkpt lat="47.80137800" lon="11.58092330">
        <ele>717.00000</ele>
        <time>2010-01-01T06:15:50Z</time>
      </trkpt>
      <trkpt lat="47.80131960" lon="11.58140820">
        <ele>717.00000</ele>
        <time>2010-01-01T06:16:04Z</time>
      </trkpt>
      <trkpt lat="47.80120380" lon="11.58166580">
        <ele>716.00000</ele>
        <time>2010-01-01T06:16:12Z</time>
      </trkpt>
      <trkpt lat="47.79885610" lon="11.58290300">
        <ele>709.00000</ele>
        <time>2010-01-01T06:17:52Z</time>
      </trkpt>
      <trkpt lat="47.79878200" lon="11.58324720">
        <ele>709.00000</ele>
        <time>2010-01-01T06:18:01Z</time>
      </trkpt>
      <trkpt lat="47.79903840" lon="11.58624010">
        <ele>708.00000</ele>
        <time>2010-01-01T06:19:22Z</time>
      </trkpt>
      <trkpt lat="47.79933760" lon="11.58847340">
        <ele>707.00000</ele>
        <time>2010-01-01T06:20:24Z</time>
      </trkpt>
      <trkpt lat="47.79951340" lon="11.58923390">
        <ele>706.00000</ele>
        <time>2010-01-01T06:20:45Z</time>
      </trkpt>
      <trkpt lat="47.80061780" lon="11.59266070">
        <ele>708.00000</ele>
        <time>2010-01-01T06:22:28Z</time>
      </trkpt>
      <trkpt lat="47.80090410" lon="11.59412100">
        <ele>707.00000</ele>
        <time>2010-01-01T06:23:08Z</time>
      </trkpt>
      <trkpt lat="47.80100150" lon="11.59496960">
        <ele>707.00000</ele>
        <time>2010-01-01T06:23:32Z</time>
      </trkpt>
      <trkpt lat="47.80102500" lon="11.59645820">
        <ele>706.00000</ele>
        <time>2010-01-01T06:24:12Z</time>
      </trkpt>
      <trkpt lat="47.80093430" lon="11.59723880">
        <ele>706.00000</ele>
        <time>2010-01-01T06:24:33Z</time>
      </trkpt>
      <trkpt lat="47.80078050" lon="11.59786850">
        <ele>706.00000</ele>
        <time>2010-01-01T06:24:51Z</time>
      </trkpt>
      <trkpt lat="47.79992160" lon="11.59999220">
        <ele>709.00000</ele>
        <time>2010-01-01T06:25:58Z</time>
      </trkpt>
      <trkpt lat="47.79977410" lon="11.60059390">
        <ele>709.00000</ele>
        <time>2010-01-01T06:26:15Z</time>
      </trkpt>
      <trkpt lat="47.79970410" lon="11.60132050">
        <ele>709.00000</ele>
        <time>2010-01-01T06:26:35Z</time>
      </trkpt>
      <trkpt lat="47.80019150" lon="11.60405310">
        <ele>710.00000</ele>
        <time>2010-01-01T06:27:51Z</time>
      </trkpt>
      <trkpt lat="47.80028350" lon="11.60487560">
        <ele>710.00000</ele>
        <time>2010-01-01T06:28:13Z</time>
      </trkpt>
      <trkpt lat="47.80027030" lon="11.60693490">
        <ele>712.00000</ele>
        <time>2010-01-01T06:29:08Z</time>
      </trkpt>
      <trkpt lat="47.80046900" lon="11.60864430">
        <ele>712.00000</ele>
        <time>2010-01-01T06:29:55Z</time>
      </trkpt>
      <trkpt lat="47.80090380" lon="11.61018680">
        <ele>713.00000</ele>
        <time>2010-01-01T06:30:40Z</time>
      </trkpt>
      <trkpt lat="47.80110770" lon="11.61051240">
        <ele>713.00000</ele>
        <time>2010-01-01T06:30:52Z</time>
      </trkpt>
      <trkpt lat="47.80124640" lon="11.61117140">
        <ele>713.00000</ele>
        <time>2010-01-01T06:31:11Z</time>
      </trkpt>
      <trkpt lat="47.80150000" lon="11.61162870">
        <ele>714.00000</ele>
        <time>2010-01-01T06:31:26Z</time>
      </trkpt>
      <trkpt lat="47.80193890" lon="11.61219110">
        <ele>714.00000</ele>
        <time>2010-01-01T06:31:50Z</time>
      </trkpt>
      <trkpt lat="47.80225160" lon="11.61278050">
        <ele>714.00000</ele>
        <time>2010-01-01T06:32:10Z</time>
      </trkpt>
      <trkpt lat="47.80303160" lon="11.61503070">
        <ele>714.00000</ele>
        <time>2010-01-01T06:33:18Z</time>
      </trkpt>
      <trkpt lat="47.80345050" lon="11.61606670">
        <ele>715.00000</ele>
        <time>2010-01-01T06:33:50Z</time>
      </trkpt>
      <trkpt lat="47.80411380" lon="11.61702820">
        <ele>714.00000</ele>
        <time>2010-01-01T06:34:27Z</time>
      </trkpt>
      <trkpt lat="47.80423590" lon="11.61732830">
        <ele>715.00000</ele>
        <time>2010-01-01T06:34:37Z</time>
      </trkpt>
      <trkpt lat="47.80429460" lon="11.61774260">
        <ele>715.00000</ele>
        <time>2010-01-01T06:34:48Z</time>
      </trkpt>
      <trkpt lat="47.80425730" lon="11.61876210">
        <ele>715.00000</ele>
        <time>2010-01-01T06:35:16Z</time>
      </trkpt>
      <trkpt lat="47.80430860" lon="11.61906910">
        <ele>716.00000</ele>
        <time>2010-01-01T06:35:24Z</time>
      </trkpt>
      <trkpt lat="47.80500980" lon="11.62042880">
        <ele>715.00000</ele>
        <time>2010-01-01T06:36:10Z</time>
      </trkpt>
      <trkpt lat="47.80608300" lon="11.62307820">
        <ele>715.00000</ele>
        <time>2010-01-01T06:37:34Z</time>
      </trkpt>
      <trkpt lat="47.80650780" lon="11.62426990">
        <ele>714.00000</ele>
        <time>2010-01-01T06:38:10Z</time>
      </trkpt>
      <trkpt lat="47.80674880" lon="11.62555330">
        <ele>714.00000</ele>
        <time>2010-01-01T06:38:46Z</time>
      </trkpt>
      <trkpt lat="47.80679920" lon="11.62623740">
        <ele>714.00000</ele>
        <time>2010-01-01T06:39:04Z</time>
      </trkpt>
      <trkpt lat="47.80677370" lon="11.62691180">
        <ele>714.00000</ele>
        <time>2010-01-01T06:39:22Z</time>
      </trkpt>
      <trkpt lat="47.80634560" lon="11.63074840">
        <ele>715.00000</ele>
        <time>2010-01-01T06:41:07Z</time>
      </trkpt>
      <trkpt lat="47.80629470" lon="11.63362460">
        <ele>717.00000</ele>
        <time>2010-01-01T06:42:24Z</time>
      </trkpt>
      <trkpt lat="47.80584970" lon="11.63672400">
        <ele>719.00000</ele>
        <time>2010-01-01T06:43:49Z</time>
      </trkpt>
      <trkpt lat="47.80572760" lon="11.63718190">
        <ele>719.00000</ele>
        <time>2010-01-01T06:44:03Z</time>
      </trkpt>
      <trkpt lat="47.80553270" lon="11.63758490">
        <ele>719.00000</ele>
        <time>2010-01-01T06:44:16Z</time>
      </trkpt>
      <trkpt lat="47.80484060" lon="11.63833130">
        <ele>718.00000</ele>
        <time>2010-01-01T06:44:50Z</time>
      </trkpt>
      <trkpt lat="47.80444280" lon="11.63887250">
        <ele>718.00000</ele>
        <time>2010-01-01T06:45:12Z</time>
      </trkpt>
      <trkpt lat="47.80414810" lon="11.63980690">
        <ele>718.00000</ele>
        <time>2010-01-01T06:45:40Z</time>
      </trkpt>
      <trkpt lat="47.80415570" lon="11.64014230">
        <ele>718.00000</ele>
        <time>2010-01-01T06:45:49Z</time>
      </trkpt>
      <trkpt lat="47.80436880" lon="11.64083590">
        <ele>719.00000</ele>
        <time>2010-01-01T06:46:09Z</time>
      </trkpt>
      <trkpt lat="47.80454490" lon="11.64179220">
        <ele>719.00000</ele>
        <time>2010-01-01T06:46:36Z</time>
      </trkpt>
      <trkpt lat="47.80454840" lon="11.64232260">
        <ele>719.00000</ele>
        <time>2010-01-01T06:46:50Z</time>
      </trkpt>
      <trkpt lat="47.80486190" lon="11.64242910">
        <ele>719.00000</ele>
        <time>2010-01-01T06:47:03Z</time>
      </trkpt>
      <trkpt lat="47.80541490" lon="11.64236780">
        <ele>719.00000</ele>
        <time>2010-01-01T06:47:25Z</time>
      </trkpt>
      <trkpt lat="47.80567030" lon="11.64247350">
        <ele>719.00000</ele>
        <time>2010-01-01T06:47:36Z</time>
      </trkpt>
      <trkpt lat="47.80587770" lon="11.64269690">
        <ele>719.00000</ele>
        <time>2010-01-01T06:47:46Z</time>
      </trkpt>
      <trkpt lat="47.80622060" lon="11.64344080">
        <ele>719.00000</ele>
        <time>2010-01-01T06:48:10Z</time>
      </trkpt>
      <trkpt lat="47.80646740" lon="11.64357160">
        <ele>719.00000</ele>
        <time>2010-01-01T06:48:21Z</time>
      </trkpt>
      <trkpt lat="47.80698010" lon="11.64297660">
        <ele>718.00000</ele>
        <time>2010-01-01T06:48:47Z</time>
      </trkpt>
      <trkpt lat="47.80724060" lon="11.64293800">
        <ele>718.00000</ele>
        <time>2010-01-01T06:48:57Z</time>
      </trkpt>
      <trkpt lat="47.80763330" lon="11.64297840">
        <ele>717.00000</ele>
        <time>2010-01-01T06:49:13Z</time>
      </trkpt>
      <trkpt lat="47.80831190" lon="11.64276340">
        <ele>716.00000</ele>
        <time>2010-01-01T06:49:41Z</time>
      </trkpt>
      <trkpt lat="47.80874340" lon="11.64247440">
        <ele>716.00000</ele>
        <time>2010-01-01T06:50:00Z</time>
      </trkpt>
      <trkpt lat="47.81010330" lon="11.64062560">
        <ele>718.00000</ele>
        <time>2010-01-01T06:51:13Z</time>
      </trkpt>
      <trkpt lat="47.81073720" lon="11.63992520">
        <ele>719.00000</ele>
        <time>2010-01-01T06:51:45Z</time>
      </trkpt>
      <trkpt lat="47.81100450" lon="11.63976330">
        <ele>719.00000</ele>
        <time>2010-01-01T06:51:57Z</time>
      </trkpt>
      <trkpt lat="47.81228190" lon="11.63927170">
        <ele>717.00000</ele>
        <time>2010-01-01T06:52:49Z</time>
      </trkpt>
      <trkpt lat="47.81324270" lon="11.63839150">
        <ele>716.00000</ele>
        <time>2010-01-01T06:53:34Z</time>
      </trkpt>
      <trkpt lat="47.81440630" lon="11.63768180">
        <ele>712.00000</ele>
        <time>2010-01-01T06:54:25Z</time>
      </trkpt>
      <trkpt lat="47.81479420" lon="11.63767540">
        <ele>709.00000</ele>
        <time>2010-01-01T06:54:40Z</time>
      </trkpt>
      <trkpt lat="47.81593150" lon="11.63809070">
        <ele>702.00000</ele>
        <time>2010-01-01T06:55:27Z</time>
      </trkpt>
      <trkpt lat="47.81692310" lon="11.63832650">
        <ele>702.00000</ele>
        <time>2010-01-01T06:56:07Z</time>
      </trkpt>
      <trkpt lat="47.81776900" lon="11.63844910">
        <ele>705.00000</ele>
        <time>2010-01-01T06:56:41Z</time>
      </trkpt>
      <trkpt lat="47.81782830" lon="11.63851450">
        <ele>705.00000</ele>
        <time>2010-01-01T06:56:44Z</time>
      </trkpt>
      <trkpt lat="47.81791190" lon="11.63844430">
        <ele>705.00000</ele>
        <time>2010-01-01T06:56:48Z</time>
      </trkpt>
      <trkpt lat="47.81868380" lon="11.63841430">
        <ele>706.00000</ele>
        <time>2010-01-01T06:57:19Z</time>
      </trkpt>
      <trkpt lat="47.82100620" lon="11.63803180">
        <ele>701.00000</ele>
        <time>2010-01-01T06:58:53Z</time>
      </trkpt>
      <trkpt lat="47.82159430" lon="11.63803670">
        <ele>700.00000</ele>
        <time>2010-01-01T06:59:16Z</time>
      </trkpt>
      <trkpt lat="47.82329970" lon="11.63829690">
        <ele>698.00000</ele>
        <time>2010-01-01T07:00:25Z</time>
      </trkpt>
      <trkpt lat="47.82362000" lon="11.63816370">
        <ele>698.00000</ele>
        <time>2010-01-01T07:00:38Z</time>
      </trkpt>
      <trkpt lat="47.82433590" lon="11.63760500">
        <ele>697.00000</ele>
        <time>2010-01-01T07:01:11Z</time>
      </trkpt>
      <trkpt lat="47.82458670" lon="11.63758690">
        <ele>697.00000</ele>
        <time>2010-01-01T07:01:21Z</time>
      </trkpt>
      <trkpt lat="47.82484060" lon="11.63769930">
        <ele>697.00000</ele>
        <time>2010-01-01T07:01:31Z</time>
      </trkpt>
      <trkpt lat="47.82506850" lon="11.63788540">
        <ele>697.00000</ele>
        <time>2010-01-01T07:01:42Z</time>
      </trkpt>
      <trkpt lat="47.82545700" lon="11.63850010">
        <ele>698.00000</ele>
        <time>2010-01-01T07:02:04Z</time>
      </trkpt>
      <trkpt lat="47.82574190" lon="11.63932430">
        <ele>697.00000</ele>
        <time>2010-01-01T07:02:29Z</time>
      </trkpt>
      <trkpt lat="47.82606450" lon="11.64065270">
        <ele>698.00000</ele>
        <time>2010-01-01T07:03:07Z</time>
      </trkpt>
      <trkpt lat="47.82625310" lon="11.64114970">
        <ele>698.00000</ele>
        <time>2010-01-01T07:03:22Z</time>
      </trkpt>
      <trkpt lat="47.82643180" lon="11.64143750">
        <ele>698.00000</ele>
        <time>2010-01-01T07:03:33Z</time>
      </trkpt>
      <trkpt lat="47.82691150" lon="11.64180690">
        <ele>697.00000</ele>
        <time>2010-01-01T07:03:55Z</time>
      </trkpt>
      <trkpt lat="47.82786140" lon="11.64199480">
        <ele>696.00000</ele>
        <time>2010-01-01T07:04:33Z</time>
      </trkpt>
      <trkpt lat="47.82820500" lon="11.64221850">
        <ele>696.00000</ele>
        <time>2010-01-01T07:04:48Z</time>
      </trkpt>
      <trkpt lat="47.82834080" lon="11.64238160">
        <ele>697.00000</ele>
        <time>2010-01-01T07:04:55Z</time>
      </trkpt>
      <trkpt lat="47.82845570" lon="11.64261700">
        <ele>698.00000</ele>
        <time>2010-01-01T07:05:03Z</time>
      </trkpt>
      <trkpt lat="47.82856360" lon="11.64309260">
        <ele>700.00000</ele>
        <time>2010-01-01T07:05:16Z</time>
      </trkpt>
      <trkpt lat="47.82846810" lon="11.64368290">
        <ele>704.00000</ele>
        <time>2010-01-01T07:05:33Z</time>
      </trkpt>
      <trkpt lat="47.82859230" lon="11.64441900">
        <ele>710.00000</ele>
        <time>2010-01-01T07:05:53Z</time>
      </trkpt>
      <trkpt lat="47.82899030" lon="11.64482560">
        <ele>715.00000</ele>
        <time>2010-01-01T07:06:12Z</time>
      </trkpt>
      <trkpt lat="47.82969790" lon="11.64507790">
        <ele>720.00000</ele>
        <time>2010-01-01T07:06:41Z</time>
      </trkpt>
      <trkpt lat="47.83020190" lon="11.64562400">
        <ele>724.00000</ele>
        <time>2010-01-01T07:07:06Z</time>
      </trkpt>
      <trkpt lat="47.83037710" lon="11.64614750">
        <ele>726.00000</ele>
        <time>2010-01-01T07:07:22Z</time>
      </trkpt>
      <trkpt lat="47.83046910" lon="11.64699760">
        <ele>727.00000</ele>
        <time>2010-01-01T07:07:45Z</time>
      </trkpt>
      <trkpt lat="47.83068340" lon="11.64763200">
        <ele>729.00000</ele>
        <time>2010-01-01T07:08:04Z</time>
      </trkpt>
      <trkpt lat="47.83090340" lon="11.64800370">
        <ele>731.00000</ele>
        <time>2010-01-01T07:08:18Z</time>
      </trkpt>
      <trkpt lat="47.83118580" lon="11.64818140">
        <ele>733.00000</ele>
        <time>2010-01-01T07:08:30Z</time>
      </trkpt>
      <trkpt lat="47.83171400" lon="11.64836440">
        <ele>735.00000</ele>
        <time>2010-01-01T07:08:52Z</time>
      </trkpt>
      <trkpt lat="47.83192580" lon="11.64833710">
        <ele>733.00000</ele>
        <time>2010-01-01T07:09:00Z</time>
      </trkpt>
      <trkpt lat="47.83232330" lon="11.64814860">
        <ele>730.00000</ele>
        <time>2010-01-01T07:09:17Z</time>
      </trkpt>
      <trkpt lat="47.83248820" lon="11.64813890">
        <ele>729.00000</ele>
        <time>2010-01-01T07:09:23Z</time>
      </trkpt>
      <trkpt lat="47.83266220" lon="11.64820840">
        <ele>728.00000</ele>
        <time>2010-01-01T07:09:31Z</time>
      </trkpt>
      <trkpt lat="47.83285630" lon="11.64845170">
        <ele>727.00000</ele>
        <time>2010-01-01T07:09:41Z</time>
      </trkpt>
      <trkpt lat="47.83298360" lon="11.64875770">
        <ele>727.00000</ele>
        <time>2010-01-01T07:09:51Z</time>
      </trkpt>
      <trkpt lat="47.83303130" lon="11.64909760">
        <ele>728.00000</ele>
        <time>2010-01-01T07:10:00Z</time>
      </trkpt>
      <trkpt lat="47.83291680" lon="11.65068390">
        <ele>732.00000</ele>
        <time>2010-01-01T07:10:43Z</time>
      </trkpt>
      <trkpt lat="47.83281320" lon="11.65130520">
        <ele>734.00000</ele>
        <time>2010-01-01T07:11:00Z</time>
      </trkpt>
      <trkpt lat="47.83252300" lon="11.65193290">
        <ele>736.00000</ele>
        <time>2010-01-01T07:11:20Z</time>
      </trkpt>
      <trkpt lat="47.83251020" lon="11.65210100">
        <ele>736.00000</ele>
        <time>2010-01-01T07:11:25Z</time>
      </trkpt>
      <trkpt lat="47.83272610" lon="11.65219450">
        <ele>736.00000</ele>
        <time>2010-01-01T07:11:34Z</time>
      </trkpt>
      <trkpt lat="47.83320590" lon="11.65225720">
        <ele>736.00000</ele>
        <time>2010-01-01T07:11:53Z</time>
      </trkpt>
      <trkpt lat="47.83381430" lon="11.65255410">
        <ele>745.00000</ele>
        <time>2010-01-01T07:12:19Z</time>
      </trkpt>
      <trkpt lat="47.83456970" lon="11.65313010">
        <ele>755.00000</ele>
        <time>2010-01-01T07:12:53Z</time>
      </trkpt>
      <trkpt lat="47.83549140" lon="11.65409590">
        <ele>759.00000</ele>
        <time>2010-01-01T07:13:38Z</time>
      </trkpt>
      <trkpt lat="47.83570320" lon="11.65402630">
        <ele>759.00000</ele>
        <time>2010-01-01T07:13:47Z</time>
      </trkpt>
      <trkpt lat="47.83616320" lon="11.65402380">
        <ele>759.00000</ele>
        <time>2010-01-01T07:14:05Z</time>
      </trkpt>
      <trkpt lat="47.83632830" lon="11.65384220">
        <ele>759.00000</ele>
        <time>2010-01-01T07:14:13Z</time>
      </trkpt>
      <trkpt lat="47.83647710" lon="11.65343400">
        <ele>759.00000</ele>
        <time>2010-01-01T07:14:26Z</time>
      </trkpt>
      <trkpt lat="47.83735270" lon="11.65283200">
        <ele>758.00000</ele>
        <time>2010-01-01T07:15:04Z</time>
      </trkpt>
      <trkpt lat="47.83781850" lon="11.65232250">
        <ele>757.00000</ele>
        <time>2010-01-01T07:15:27Z</time>
      </trkpt>
      <trkpt lat="47.83808400" lon="11.65216220">
        <ele>756.00000</ele>
        <time>2010-01-01T07:15:39Z</time>
      </trkpt>
      <trkpt lat="47.83838430" lon="11.65212540">
        <ele>755.00000</ele>
        <time>2010-01-01T07:15:51Z</time>
      </trkpt>
      <trkpt lat="47.83876080" lon="11.65222120">
        <ele>753.00000</ele>
        <time>2010-01-01T07:16:06Z</time>
      </trkpt>
      <trkpt lat="47.83913020" lon="11.65222630">
        <ele>752.00000</ele>
        <time>2010-01-01T07:16:21Z</time>
      </trkpt>
      <trkpt lat="47.83990830" lon="11.65195860">
        <ele>747.00000</ele>
        <time>2010-01-01T07:16:53Z</time>
      </trkpt>
      <trkpt lat="47.84051910" lon="11.65193520">
        <ele>745.00000</ele>
        <time>2010-01-01T07:17:18Z</time>
      </trkpt>
      <trkpt lat="47.84092650" lon="11.65208570">
        <ele>744.00000</ele>
        <time>2010-01-01T07:17:34Z</time>
      </trkpt>
      <trkpt lat="47.84172340" lon="11.65263980">
        <ele>741.00000</ele>
        <time>2010-01-01T07:18:10Z</time>
      </trkpt>
      <trkpt lat="47.84275590" lon="11.65292670">
        <ele>740.00000</ele>
        <time>2010-01-01T07:18:52Z</time>
      </trkpt>
      <trkpt lat="47.84362760" lon="11.65342320">
        <ele>741.00000</ele>
        <time>2010-01-01T07:19:29Z</time>
      </trkpt>
      <trkpt lat="47.84400540" lon="11.65381880">
        <ele>741.00000</ele>
        <time>2010-01-01T07:19:47Z</time>
      </trkpt>
      <trkpt lat="47.84527530" lon="11.65540830">
        <ele>738.00000</ele>
        <time>2010-01-01T07:20:54Z</time>
      </trkpt>
      <trkpt lat="47.84557930" lon="11.65563650">
        <ele>738.00000</ele>
        <time>2010-01-01T07:21:07Z</time>
      </trkpt>
      <trkpt lat="47.84591920" lon="11.65566290">
        <ele>738.00000</ele>
        <time>2010-01-01T07:21:21Z</time>
      </trkpt>
      <trkpt lat="47.84666220" lon="11.65542330">
        <ele>737.00000</ele>
        <time>2010-01-01T07:21:51Z</time>
      </trkpt>
      <trkpt lat="47.84691520" lon="11.65557210">
        <ele>735.00000</ele>
        <time>2010-01-01T07:22:02Z</time>
      </trkpt>
      <trkpt lat="47.84715840" lon="11.65583440">
        <ele>734.00000</ele>
        <time>2010-01-01T07:22:14Z</time>
      </trkpt>
      <trkpt lat="47.84736910" lon="11.65596780">
        <ele>733.00000</ele>
        <time>2010-01-01T07:22:24Z</time>
      </trkpt>
      <trkpt lat="47.84761480" lon="11.65590650">
        <ele>732.00000</ele>
        <time>2010-01-01T07:22:34Z</time>
      </trkpt>
      <trkpt lat="47.84791890" lon="11.65564060">
        <ele>731.00000</ele>
        <time>2010-01-01T07:22:48Z</time>
      </trkpt>
      <trkpt lat="47.84810650" lon="11.65558030">
        <ele>730.00000</ele>
        <time>2010-01-01T07:22:55Z</time>
      </trkpt>
      <trkpt lat="47.84831220" lon="11.65522620">
        <ele>728.00000</ele>
        <time>2010-01-01T07:23:08Z</time>
      </trkpt>
      <trkpt lat="47.84893090" lon="11.65490800">
        <ele>730.00000</ele>
        <time>2010-01-01T07:23:34Z</time>
      </trkpt>
      <trkpt lat="47.84900970" lon="11.65497190">
        <ele>730.00000</ele>
        <time>2010-01-01T07:23:38Z</time>
      </trkpt>
      <trkpt lat="47.84923330" lon="11.65559920">
        <ele>732.00000</ele>
        <time>2010-01-01T07:23:57Z</time>
      </trkpt>
      <trkpt lat="47.84957040" lon="11.65609650">
        <ele>733.00000</ele>
        <time>2010-01-01T07:24:16Z</time>
      </trkpt>
      <trkpt lat="47.85003290" lon="11.65613640">
        <ele>734.00000</ele>
        <time>2010-01-01T07:24:34Z</time>
      </trkpt>
      <trkpt lat="47.85053380" lon="11.65635030">
        <ele>733.00000</ele>
        <time>2010-01-01T07:24:55Z</time>
      </trkpt>
      <trkpt lat="47.85102050" lon="11.65645800">
        <ele>732.00000</ele>
        <time>2010-01-01T07:25:15Z</time>
      </trkpt>
      <trkpt lat="47.85118500" lon="11.65644440">
        <ele>731.00000</ele>
        <time>2010-01-01T07:25:21Z</time>
      </trkpt>
      <trkpt lat="47.85064370" lon="11.65635100">
        <ele>733.00000</ele>
        <time>2010-01-01T07:25:43Z</time>
      </trkpt>
      <trkpt lat="47.85013190" lon="11.65617100">
        <ele>734.00000</ele>
        <time>2010-01-01T07:26:04Z</time>
      </trkpt>
      <trkpt lat="47.84958570" lon="11.65614030">
        <ele>733.00000</ele>
        <time>2010-01-01T07:26:26Z</time>
      </trkpt>
      <trkpt lat="47.84953750" lon="11.65649330">
        <ele>733.00000</ele>
        <time>2010-01-01T07:26:36Z</time>
      </trkpt>
      <trkpt lat="47.84966750" lon="11.65799810">
        <ele>734.00000</ele>
        <time>2010-01-01T07:27:17Z</time>
      </trkpt>
      <trkpt lat="47.85002410" lon="11.65937780">
        <ele>734.00000</ele>
        <time>2010-01-01T07:27:56Z</time>
      </trkpt>
      <trkpt lat="47.85067450" lon="11.66018750">
        <ele>730.00000</ele>
        <time>2010-01-01T07:28:30Z</time>
      </trkpt>
      <trkpt lat="47.85092230" lon="11.66065620">
        <ele>729.00000</ele>
        <time>2010-01-01T07:28:46Z</time>
      </trkpt>
      <trkpt lat="47.85116780" lon="11.66129860">
        <ele>727.00000</ele>
        <time>2010-01-01T07:29:06Z</time>
      </trkpt>
      <trkpt lat="47.85238210" lon="11.66357580">
        <ele>724.00000</ele>
        <time>2010-01-01T07:30:24Z</time>
      </trkpt>
      <trkpt lat="47.85374140" lon="11.66563200">
        <ele>734.00000</ele>
        <time>2010-01-01T07:31:42Z</time>
      </trkpt>
      <trkpt lat="47.85411190" lon="11.66633820">
        <ele>731.00000</ele>
        <time>2010-01-01T07:32:06Z</time>
      </trkpt>
      <trkpt lat="47.85452610" lon="11.66738310">
        <ele>727.00000</ele>
        <time>2010-01-01T07:32:38Z</time>
      </trkpt>
      <trkpt lat="47.85545870" lon="11.66851520">
        <ele>722.00000</ele>
        <time>2010-01-01T07:33:27Z</time>
      </trkpt>
      <trkpt lat="47.85647740" lon="11.66956660">
        <ele>720.00000</ele>
        <time>2010-01-01T07:34:16Z</time>
      </trkpt>
      <trkpt lat="47.85696590" lon="11.67022770">
        <ele>716.00000</ele>
        <time>2010-01-01T07:34:43Z</time>
      </trkpt>
      <trkpt lat="47.85723110" lon="11.67068620">
        <ele>713.00000</ele>
        <time>2010-01-01T07:34:59Z</time>
      </trkpt>
      <trkpt lat="47.85760530" lon="11.67113430">
        <ele>710.00000</ele>
        <time>2010-01-01T07:35:18Z</time>
      </trkpt>
      <trkpt lat="47.85807620" lon="11.67342720">
        <ele>710.00000</ele>
        <time>2010-01-01T07:36:23Z</time>
      </trkpt>
      <trkpt lat="47.85905660" lon="11.67533720">
        <ele>716.00000</ele>
        <time>2010-01-01T07:37:27Z</time>
      </trkpt>
      <trkpt lat="47.85999760" lon="11.67672860">
        <ele>717.00000</ele>
        <time>2010-01-01T07:38:20Z</time>
      </trkpt>
      <trkpt lat="47.86053730" lon="11.67738630">
        <ele>716.00000</ele>
        <time>2010-01-01T07:38:48Z</time>
      </trkpt>
      <trkpt lat="47.86079450" lon="11.67783000">
        <ele>716.00000</ele>
        <time>2010-01-01T07:39:04Z</time>
      </trkpt>
      <trkpt lat="47.86096550" lon="11.67821650">
        <ele>715.00000</ele>
        <time>2010-01-01T07:39:16Z</time>
      </trkpt>
      <trkpt lat="47.86149680" lon="11.67992120">
        <ele>711.00000</ele>
        <time>2010-01-01T07:40:07Z</time>
      </trkpt>
      <trkpt lat="47.86206430" lon="11.68115980">
        <ele>709.00000</ele>
        <time>2010-01-01T07:40:47Z</time>
      </trkpt>
      <trkpt lat="47.86272750" lon="11.68231380">
        <ele>707.00000</ele>
        <time>2010-01-01T07:41:28Z</time>
      </trkpt>
      <trkpt lat="47.86357390" lon="11.68479400">
        <ele>704.00000</ele>
        <time>2010-01-01T07:42:43Z</time>
      </trkpt>
      <trkpt lat="47.86370670" lon="11.68501730">
        <ele>703.00000</ele>
        <time>2010-01-01T07:42:51Z</time>
      </trkpt>
      <trkpt lat="47.86382430" lon="11.68506960">
        <ele>703.00000</ele>
        <time>2010-01-01T07:42:56Z</time>
      </trkpt>
      <trkpt lat="47.86398840" lon="11.68495340">
        <ele>702.00000</ele>
        <time>2010-01-01T07:43:03Z</time>
      </trkpt>
      <trkpt lat="47.86407150" lon="11.68451860">
        <ele>703.00000</ele>
        <time>2010-01-01T07:43:15Z</time>
      </trkpt>
      <trkpt lat="47.86441330" lon="11.68362650">
        <ele>704.00000</ele>
        <time>2010-01-01T07:43:43Z</time>
      </trkpt>
      <trkpt lat="47.86466670" lon="11.68251240">
        <ele>705.00000</ele>
        <time>2010-01-01T07:44:14Z</time>
      </trkpt>
      <trkpt lat="47.86587810" lon="11.67974410">
        <ele>707.00000</ele>
        <time>2010-01-01T07:45:43Z</time>
      </trkpt>
      <trkpt lat="47.86609730" lon="11.67866200">
        <ele>708.00000</ele>
        <time>2010-01-01T07:46:13Z</time>
      </trkpt>
      <trkpt lat="47.86669360" lon="11.67778470">
        <ele>709.00000</ele>
        <time>2010-01-01T07:46:47Z</time>
      </trkpt>
      <trkpt lat="47.86665010" lon="11.67699900">
        <ele>710.00000</ele>
        <time>2010-01-01T07:47:08Z</time>
      </trkpt>
      <trkpt lat="47.86668340" lon="11.67630190">
        <ele>710.00000</ele>
        <time>2010-01-01T07:47:27Z</time>
      </trkpt>
      <trkpt lat="47.86701260" lon="11.67416670">
        <ele>708.00000</ele>
        <time>2010-01-01T07:48:26Z</time>
      </trkpt>
      <trkpt lat="47.86721550" lon="11.67337620">
        <ele>707.00000</ele>
        <time>2010-01-01T07:48:48Z</time>
      </trkpt>
      <trkpt lat="47.86731270" lon="11.67218810">
        <ele>705.00000</ele>
        <time>2010-01-01T07:49:20Z</time>
      </trkpt>
      <trkpt lat="47.86759880" lon="11.67144460">
        <ele>703.00000</ele>
        <time>2010-01-01T07:49:43Z</time>
      </trkpt>
      <trkpt lat="47.86762660" lon="11.67062020">
        <ele>702.00000</ele>
        <time>2010-01-01T07:50:06Z</time>
      </trkpt>
      <trkpt lat="47.86785990" lon="11.66961940">
        <ele>702.00000</ele>
        <time>2010-01-01T07:50:34Z</time>
      </trkpt>
      <trkpt lat="47.86795080" lon="11.66836480">
        <ele>703.00000</ele>
        <time>2010-01-01T07:51:08Z</time>
      </trkpt>
      <trkpt lat="47.86824850" lon="11.66631370">
        <ele>703.00000</ele>
        <time>2010-01-01T07:52:04Z</time>
      </trkpt>
      <trkpt lat="47.86822830" lon="11.66563840">
        <ele>703.00000</ele>
        <time>2010-01-01T07:52:22Z</time>
      </trkpt>
      <trkpt lat="47.86807100" lon="11.66420620">
        <ele>706.00000</ele>
        <time>2010-01-01T07:53:01Z</time>
      </trkpt>
      <trkpt lat="47.86788690" lon="11.66318190">
        <ele>709.00000</ele>
        <time>2010-01-01T07:53:30Z</time>
      </trkpt>
      <trkpt lat="47.86758780" lon="11.66201250">
        <ele>714.00000</ele>
        <time>2010-01-01T07:54:03Z</time>
      </trkpt>
      <trkpt lat="47.86776610" lon="11.66044100">
        <ele>710.00000</ele>
        <time>2010-01-01T07:54:46Z</time>
      </trkpt>
      <trkpt lat="47.86801390" lon="11.65982150">
        <ele>707.00000</ele>
        <time>2010-01-01T07:55:06Z</time>
      </trkpt>
      <trkpt lat="47.86809130" lon="11.65943710">
        <ele>707.00000</ele>
        <time>2010-01-01T07:55:16Z</time>
      </trkpt>
      <trkpt lat="47.86811490" lon="11.65799760">
        <ele>706.00000</ele>
        <time>2010-01-01T07:55:55Z</time>
      </trkpt>
      <trkpt lat="47.86858680" lon="11.65712690">
        <ele>704.00000</ele>
        <time>2010-01-01T07:56:25Z</time>
      </trkpt>
      <trkpt lat="47.86864010" lon="11.65660440">
        <ele>704.00000</ele>
        <time>2010-01-01T07:56:39Z</time>
      </trkpt>
      <trkpt lat="47.86870660" lon="11.65644890">
        <ele>703.00000</ele>
        <time>2010-01-01T07:56:44Z</time>
      </trkpt>
      <trkpt lat="47.86936040" lon="11.65557910">
        <ele>700.00000</ele>
        <time>2010-01-01T07:57:19Z</time>
      </trkpt>
      <trkpt lat="47.86994930" lon="11.65505980">
        <ele>699.00000</ele>
        <time>2010-01-01T07:57:47Z</time>
      </trkpt>
      <trkpt lat="47.87025030" lon="11.65464600">
        <ele>698.00000</ele>
        <time>2010-01-01T07:58:03Z</time>
      </trkpt>
      <trkpt lat="47.87058480" lon="11.65443270">
        <ele>696.00000</ele>
        <time>2010-01-01T07:58:18Z</time>
      </trkpt>
      <trkpt lat="47.87119820" lon="11.65340350">
        <ele>685.00000</ele>
        <time>2010-01-01T07:58:55Z</time>
      </trkpt>
      <trkpt lat="47.87133250" lon="11.65305230">
        <ele>683.00000</ele>
        <time>2010-01-01T07:59:06Z</time>
      </trkpt>
      <trkpt lat="47.87145450" lon="11.65244200">
        <ele>681.00000</ele>
        <time>2010-01-01T07:59:23Z</time>
      </trkpt>
      <trkpt lat="47.87142260" lon="11.65152530">
        <ele>680.00000</ele>
        <time>2010-01-01T07:59:47Z</time>
      </trkpt>
      <trkpt lat="47.87132790" lon="11.65086560">
        <ele>681.00000</ele>
        <time>2010-01-01T08:00:05Z</time>
      </trkpt>
      <trkpt lat="47.87119940" lon="11.65054430">
        <ele>682.00000</ele>
        <time>2010-01-01T08:00:15Z</time>
      </trkpt>
      <trkpt lat="47.87054790" lon="11.64996860">
        <ele>681.00000</ele>
        <time>2010-01-01T08:00:46Z</time>
      </trkpt>
      <trkpt lat="47.87027090" lon="11.64958390">
        <ele>683.00000</ele>
        <time>2010-01-01T08:01:01Z</time>
      </trkpt>
      <trkpt lat="47.87014840" lon="11.64900440">
        <ele>686.00000</ele>
        <time>2010-01-01T08:01:17Z</time>
      </trkpt>
      <trkpt lat="47.87011850" lon="11.64844310">
        <ele>690.00000</ele>
        <time>2010-01-01T08:01:32Z</time>
      </trkpt>
      <trkpt lat="47.86989810" lon="11.64814810">
        <ele>692.00000</ele>
        <time>2010-01-01T08:01:44Z</time>
      </trkpt>
      <trkpt lat="47.86943460" lon="11.64789130">
        <ele>694.00000</ele>
        <time>2010-01-01T08:02:04Z</time>
      </trkpt>
      <trkpt lat="47.86901270" lon="11.64744020">
        <ele>696.00000</ele>
        <time>2010-01-01T08:02:25Z</time>
      </trkpt>
      <trkpt lat="47.86838390" lon="11.64573210">
        <ele>704.00000</ele>
        <time>2010-01-01T08:03:17Z</time>
      </trkpt>
      <trkpt lat="47.86722330" lon="11.64372600">
        <ele>709.00000</ele>
        <time>2010-01-01T08:04:28Z</time>
      </trkpt>
      <trkpt lat="47.86634530" lon="11.64194270">
        <ele>714.00000</ele>
        <time>2010-01-01T08:05:28Z</time>
      </trkpt>
      <trkpt lat="47.86597000" lon="11.64133740">
        <ele>715.00000</ele>
        <time>2010-01-01T08:05:50Z</time>
      </trkpt>
      <trkpt lat="47.86575290" lon="11.64074260">
        <ele>716.00000</ele>
        <time>2010-01-01T08:06:08Z</time>
      </trkpt>
      <trkpt lat="47.86490830" lon="11.63948080">
        <ele>715.00000</ele>
        <time>2010-01-01T08:06:56Z</time>
      </trkpt>
      <trkpt lat="47.86425260" lon="11.63864750">
        <ele>711.00000</ele>
        <time>2010-01-01T08:07:30Z</time>
      </trkpt>
      <trkpt lat="47.86366500" lon="11.63764850">
        <ele>711.00000</ele>
        <time>2010-01-01T08:08:06Z</time>
      </trkpt>
      <trkpt lat="47.86304620" lon="11.63641920">
        <ele>712.00000</ele>
        <time>2010-01-01T08:08:47Z</time>
      </trkpt>
      <trkpt lat="47.86268110" lon="11.63504220">
        <ele>713.00000</ele>
        <time>2010-01-01T08:09:27Z</time>
      </trkpt>
      <trkpt lat="47.86165600" lon="11.63314530">
        <ele>713.00000</ele>
        <time>2010-01-01T08:10:32Z</time>
      </trkpt>
      <trkpt lat="47.86078520" lon="11.63097140">
        <ele>717.00000</ele>
        <time>2010-01-01T08:11:40Z</time>
      </trkpt>
      <trkpt lat="47.86022940" lon="11.63014640">
        <ele>718.00000</ele>
        <time>2010-01-01T08:12:12Z</time>
      </trkpt>
      <trkpt lat="47.85912050" lon="11.62914000">
        <ele>719.00000</ele>
        <time>2010-01-01T08:13:04Z</time>
      </trkpt>
      <trkpt lat="47.85877100" lon="11.62842230">
        <ele>720.00000</ele>
        <time>2010-01-01T08:13:28Z</time>
      </trkpt>
      <trkpt lat="47.85872820" lon="11.62800290">
        <ele>720.00000</ele>
        <time>2010-01-01T08:13:39Z</time>
      </trkpt>
      <trkpt lat="47.85879100" lon="11.62765350">
        <ele>720.00000</ele>
        <time>2010-01-01T08:13:49Z</time>
      </trkpt>
      <trkpt lat="47.85920950" lon="11.62694270">
        <ele>720.00000</ele>
        <time>2010-01-01T08:14:14Z</time>
      </trkpt>
      <trkpt lat="47.85919710" lon="11.62654270">
        <ele>720.00000</ele>
        <time>2010-01-01T08:14:25Z</time>
      </trkpt>
      <trkpt lat="47.85912100" lon="11.62623560">
        <ele>720.00000</ele>
        <time>2010-01-01T08:14:34Z</time>
      </trkpt>
      <trkpt lat="47.85882960" lon="11.62575170">
        <ele>721.00000</ele>
        <time>2010-01-01T08:14:51Z</time>
      </trkpt>
      <trkpt lat="47.85833740" lon="11.62467290">
        <ele>723.00000</ele>
        <time>2010-01-01T08:15:26Z</time>
      </trkpt>
      <trkpt lat="47.85820570" lon="11.62428680">
        <ele>726.00000</ele>
        <time>2010-01-01T08:15:38Z</time>
      </trkpt>
      <trkpt lat="47.85816230" lon="11.62392080">
        <ele>727.00000</ele>
        <time>2010-01-01T08:15:48Z</time>
      </trkpt>
      <trkpt lat="47.85812280" lon="11.62313380">
        <ele>728.00000</ele>
        <time>2010-01-01T08:16:09Z</time>
      </trkpt>
      <trkpt lat="47.85792770" lon="11.62161480">
        <ele>733.00000</ele>
        <time>2010-01-01T08:16:51Z</time>
      </trkpt>
      <trkpt lat="47.85798670" lon="11.62029360">
        <ele>733.00000</ele>
        <time>2010-01-01T08:17:26Z</time>
      </trkpt>
      <trkpt lat="47.85821570" lon="11.61811230">
        <ele>724.00000</ele>
        <time>2010-01-01T08:18:25Z</time>
      </trkpt>
      <trkpt lat="47.85831680" lon="11.61809370">
        <ele>723.00000</ele>
        <time>2010-01-01T08:18:30Z</time>
      </trkpt>
      <trkpt lat="47.85848310" lon="11.61851900">
        <ele>726.00000</ele>
        <time>2010-01-01T08:18:43Z</time>
      </trkpt>
      <trkpt lat="47.85905380" lon="11.61884160">
        <ele>734.00000</ele>
        <time>2010-01-01T08:19:07Z</time>
      </trkpt>
      <trkpt lat="47.85934900" lon="11.61886330">
        <ele>736.00000</ele>
        <time>2010-01-01T08:19:19Z</time>
      </trkpt>
      <trkpt lat="47.85962120" lon="11.61880750">
        <ele>738.00000</ele>
        <time>2010-01-01T08:19:30Z</time>
      </trkpt>
      <trkpt lat="47.86028640" lon="11.61847130">
        <ele>741.00000</ele>
        <time>2010-01-01T08:19:58Z</time>
      </trkpt>
      <trkpt lat="47.86058460" lon="11.61848200">
        <ele>741.00000</ele>
        <time>2010-01-01T08:20:10Z</time>
      </trkpt>
      <trkpt lat="47.86103120" lon="11.61860790">
        <ele>741.00000</ele>
        <time>2010-01-01T08:20:28Z</time>
      </trkpt>
      <trkpt lat="47.86180640" lon="11.61919720">
        <ele>742.00000</ele>
        <time>2010-01-01T08:21:03Z</time>
      </trkpt>
      <trkpt lat="47.86283860" lon="11.62083810">
        <ele>747.00000</ele>
        <time>2010-01-01T08:22:04Z</time>
      </trkpt>
      <trkpt lat="47.86339460" lon="11.62125580">
        <ele>743.00000</ele>
        <time>2010-01-01T08:22:28Z</time>
      </trkpt>
      <trkpt lat="47.86402560" lon="11.62142230">
        <ele>742.00000</ele>
        <time>2010-01-01T08:22:54Z</time>
      </trkpt>
      <trkpt lat="47.86432750" lon="11.62133600">
        <ele>742.00000</ele>
        <time>2010-01-01T08:23:06Z</time>
      </trkpt>
      <trkpt lat="47.86427850" lon="11.62135350">
        <ele>742.00000</ele>
        <time>2010-01-01T08:23:08Z</time>
      </trkpt>
      <trkpt lat="47.86479770" lon="11.62132070">
        <ele>742.00000</ele>
        <time>2010-01-01T08:23:29Z</time>
      </trkpt>
      <trkpt lat="47.86586010" lon="11.62098590">
        <ele>740.00000</ele>
        <time>2010-01-01T08:24:13Z</time>
      </trkpt>
      <trkpt lat="47.86620070" lon="11.62106390">
        <ele>740.00000</ele>
        <time>2010-01-01T08:24:26Z</time>
      </trkpt>
      <trkpt lat="47.86648840" lon="11.62132090">
        <ele>740.00000</ele>
        <time>2010-01-01T08:24:40Z</time>
      </trkpt>
      <trkpt lat="47.86767160" lon="11.62273930">
        <ele>740.00000</ele>
        <time>2010-01-01T08:25:41Z</time>
      </trkpt>
      <trkpt lat="47.86804390" lon="11.62328430">
        <ele>739.00000</ele>
        <time>2010-01-01T08:26:02Z</time>
      </trkpt>
      <trkpt lat="47.86824510" lon="11.62387160">
        <ele>739.00000</ele>
        <time>2010-01-01T08:26:19Z</time>
      </trkpt>
      <trkpt lat="47.86873750" lon="11.62606150">
        <ele>737.00000</ele>
        <time>2010-01-01T08:27:21Z</time>
      </trkpt>
      <trkpt lat="47.86883230" lon="11.62629350">
        <ele>736.00000</ele>
        <time>2010-01-01T08:27:29Z</time>
      </trkpt>
      <trkpt lat="47.86902960" lon="11.62651360">
        <ele>735.00000</ele>
        <time>2010-01-01T08:27:38Z</time>
      </trkpt>
      <trkpt lat="47.86929110" lon="11.62657110">
        <ele>733.00000</ele>
        <time>2010-01-01T08:27:49Z</time>
      </trkpt>
      <trkpt lat="47.87046340" lon="11.62655950">
        <ele>725.00000</ele>
        <time>2010-01-01T08:28:36Z</time>
      </trkpt>
      <trkpt lat="47.87088560" lon="11.62670150">
        <ele>722.00000</ele>
        <time>2010-01-01T08:28:53Z</time>
      </trkpt>
      <trkpt lat="47.87380750" lon="11.62854060">
        <ele>717.00000</ele>
        <time>2010-01-01T08:31:00Z</time>
      </trkpt>
      <trkpt lat="47.87475540" lon="11.62898610">
        <ele>716.00000</ele>
        <time>2010-01-01T08:31:40Z</time>
      </trkpt>
      <trkpt lat="47.87579920" lon="11.62989740">
        <ele>717.00000</ele>
        <time>2010-01-01T08:32:28Z</time>
      </trkpt>
      <trkpt lat="47.87705220" lon="11.63069230">
        <ele>716.00000</ele>
        <time>2010-01-01T08:33:23Z</time>
      </trkpt>
      <trkpt lat="47.87851430" lon="11.63186980">
        <ele>716.00000</ele>
        <time>2010-01-01T08:34:29Z</time>
      </trkpt>
      <trkpt lat="47.88026250" lon="11.63307090">
        <ele>716.00000</ele>
        <time>2010-01-01T08:35:47Z</time>
      </trkpt>
      <trkpt lat="47.88128370" lon="11.63392890">
        <ele>716.00000</ele>
        <time>2010-01-01T08:36:33Z</time>
      </trkpt>
      <trkpt lat="47.88178810" lon="11.63401690">
        <ele>716.00000</ele>
        <time>2010-01-01T08:36:54Z</time>
      </trkpt>
      <trkpt lat="47.88312850" lon="11.63406770">
        <ele>712.00000</ele>
        <time>2010-01-01T08:37:47Z</time>
      </trkpt>
      <trkpt lat="47.88339110" lon="11.63416440">
        <ele>711.00000</ele>
        <time>2010-01-01T08:37:58Z</time>
      </trkpt>
      <trkpt lat="47.88380760" lon="11.63443510">
        <ele>707.00000</ele>
        <time>2010-01-01T08:38:16Z</time>
      </trkpt>
      <trkpt lat="47.88431980" lon="11.63502050">
        <ele>704.00000</ele>
        <time>2010-01-01T08:38:42Z</time>
      </trkpt>
      <trkpt lat="47.88512090" lon="11.63662030">
        <ele>702.00000</ele>
        <time>2010-01-01T08:39:36Z</time>
      </trkpt>
      <trkpt lat="47.88534020" lon="11.63675800">
        <ele>702.00000</ele>
        <time>2010-01-01T08:39:45Z</time>
      </trkpt>
      <trkpt lat="47.88556240" lon="11.63677270">
        <ele>702.00000</ele>
        <time>2010-01-01T08:39:54Z</time>
      </trkpt>
      <trkpt lat="47.88617800" lon="11.63678360">
        <ele>702.00000</ele>
        <time>2010-01-01T08:40:19Z</time>
      </trkpt>
      <trkpt lat="47.88658860" lon="11.63669410">
        <ele>702.00000</ele>
        <time>2010-01-01T08:40:36Z</time>
      </trkpt>
      <trkpt lat="47.88683960" lon="11.63659090">
        <ele>704.00000</ele>
        <time>2010-01-01T08:40:46Z</time>
      </trkpt>
      <trkpt lat="47.88707060" lon="11.63638010">
        <ele>708.00000</ele>
        <time>2010-01-01T08:40:57Z</time>
      </trkpt>
      <trkpt lat="47.88778230" lon="11.63498270">
        <ele>718.00000</ele>
        <time>2010-01-01T08:41:44Z</time>
      </trkpt>
      <trkpt lat="47.88900740" lon="11.63332870">
        <ele>726.00000</ele>
        <time>2010-01-01T08:42:50Z</time>
      </trkpt>
      <trkpt lat="47.88954530" lon="11.63287590">
        <ele>728.00000</ele>
        <time>2010-01-01T08:43:15Z</time>
      </trkpt>
      <trkpt lat="47.89042830" lon="11.63231480">
        <ele>728.00000</ele>
        <time>2010-01-01T08:43:53Z</time>
      </trkpt>
      <trkpt lat="47.89054620" lon="11.63212780">
        <ele>727.00000</ele>
        <time>2010-01-01T08:44:00Z</time>
      </trkpt>
      <trkpt lat="47.89034460" lon="11.63156300">
        <ele>723.00000</ele>
        <time>2010-01-01T08:44:17Z</time>
      </trkpt>
      <trkpt lat="47.88975390" lon="11.63041340">
        <ele>718.00000</ele>
        <time>2010-01-01T08:44:56Z</time>
      </trkpt>
      <trkpt lat="47.88956950" lon="11.62966470">
        <ele>715.00000</ele>
        <time>2010-01-01T08:45:18Z</time>
      </trkpt>
      <trkpt lat="47.88952340" lon="11.62757200">
        <ele>707.00000</ele>
        <time>2010-01-01T08:46:14Z</time>
      </trkpt>
      <trkpt lat="47.88958710" lon="11.62602040">
        <ele>702.00000</ele>
        <time>2010-01-01T08:46:56Z</time>
      </trkpt>
      <trkpt lat="47.88951140" lon="11.62432710">
        <ele>701.00000</ele>
        <time>2010-01-01T08:47:41Z</time>
      </trkpt>
      <trkpt lat="47.88965490" lon="11.62256130">
        <ele>700.00000</ele>
        <time>2010-01-01T08:48:29Z</time>
      </trkpt>
      <trkpt lat="47.88981870" lon="11.62193540">
        <ele>700.00000</ele>
        <time>2010-01-01T08:48:47Z</time>
      </trkpt>
      <trkpt lat="47.89036380" lon="11.62103650">
        <ele>700.00000</ele>
        <time>2010-01-01T08:49:19Z</time>
      </trkpt>
      <trkpt lat="47.89075260" lon="11.62057610">
        <ele>700.00000</ele>
        <time>2010-01-01T08:49:39Z</time>
      </trkpt>
      <trkpt lat="47.89302930" lon="11.61830840">
        <ele>700.00000</ele>
        <time>2010-01-01T08:51:29Z</time>
      </trkpt>
      <trkpt lat="47.89404810" lon="11.61744520">
        <ele>700.00000</ele>
        <time>2010-01-01T08:52:16Z</time>
      </trkpt>
      <trkpt lat="47.89544590" lon="11.61596760">
        <ele>700.00000</ele>
        <time>2010-01-01T08:53:24Z</time>
      </trkpt>
      <trkpt lat="47.89630350" lon="11.61528120">
        <ele>700.00000</ele>
        <time>2010-01-01T08:54:03Z</time>
      </trkpt>
      <trkpt lat="47.89705530" lon="11.61454950">
        <ele>700.00000</ele>
        <time>2010-01-01T08:54:39Z</time>
      </trkpt>
      <trkpt lat="47.89980130" lon="11.61086950">
        <ele>702.00000</ele>
        <time>2010-01-01T08:57:07Z</time>
      </trkpt>
      <trkpt lat="47.90049020" lon="11.60921600">
        <ele>702.00000</ele>
        <time>2010-01-01T08:57:59Z</time>
      </trkpt>
      <trkpt lat="47.90074650" lon="11.60815900">
        <ele>703.00000</ele>
        <time>2010-01-01T08:58:29Z</time>
      </trkpt>
      <trkpt lat="47.90051410" lon="11.60822170">
        <ele>704.00000</ele>
        <time>2010-01-01T08:58:39Z</time>
      </trkpt>
      <trkpt lat="47.89995390" lon="11.60751550">
        <ele>705.00000</ele>
        <time>2010-01-01T08:59:08Z</time>
      </trkpt>
      <trkpt lat="47.89971820" lon="11.60710670">
        <ele>706.00000</ele>
        <time>2010-01-01T08:59:23Z</time>
      </trkpt>
      <trkpt lat="47.89868750" lon="11.60463370">
        <ele>707.00000</ele>
        <time>2010-01-01T09:00:41Z</time>
      </trkpt>
      <trkpt lat="47.89717030" lon="11.60152800">
        <ele>711.00000</ele>
        <time>2010-01-01T09:02:24Z</time>
      </trkpt>
      <trkpt lat="47.89719580" lon="11.60142510">
        <ele>711.00000</ele>
        <time>2010-01-01T09:02:27Z</time>
      </trkpt>
      <trkpt lat="47.89822430" lon="11.60012450">
        <ele>712.00000</ele>
        <time>2010-01-01T09:03:21Z</time>
      </trkpt>
      <trkpt lat="47.90027630" lon="11.59919140">
        <ele>713.00000</ele>
        <time>2010-01-01T09:04:47Z</time>
      </trkpt>
      <trkpt lat="47.90111290" lon="11.59901840">
        <ele>713.00000</ele>
        <time>2010-01-01T09:05:21Z</time>
      </trkpt>
      <trkpt lat="47.90148980" lon="11.59883880">
        <ele>714.00000</ele>
        <time>2010-01-01T09:05:36Z</time>
      </trkpt>
      <trkpt lat="47.90437370" lon="11.59702110">
        <ele>717.00000</ele>
        <time>2010-01-01T09:07:42Z</time>
      </trkpt>
      <trkpt lat="47.90608310" lon="11.59573000">
        <ele>720.00000</ele>
        <time>2010-01-01T09:08:58Z</time>
      </trkpt>
      <trkpt lat="47.90630490" lon="11.59570540">
        <ele>720.00000</ele>
        <time>2010-01-01T09:09:07Z</time>
      </trkpt>
      <trkpt lat="47.90665380" lon="11.59593820">
        <ele>720.00000</ele>
        <time>2010-01-01T09:09:23Z</time>
      </trkpt>
      <trkpt lat="47.90701350" lon="11.59551570">
        <ele>722.00000</ele>
        <time>2010-01-01T09:09:41Z</time>
      </trkpt>
      <trkpt lat="47.90720410" lon="11.59538660">
        <ele>723.00000</ele>
        <time>2010-01-01T09:09:49Z</time>
      </trkpt>
      <trkpt lat="47.90751960" lon="11.59540380">
        <ele>724.00000</ele>
        <time>2010-01-01T09:10:02Z</time>
      </trkpt>
      <trkpt lat="47.90785420" lon="11.59551730">
        <ele>726.00000</ele>
        <time>2010-01-01T09:10:16Z</time>
      </trkpt>
      <trkpt lat="47.90838200" lon="11.59541950">
        <ele>730.00000</ele>
        <time>2010-01-01T09:10:37Z</time>
      </trkpt>
      <trkpt lat="47.90868880" lon="11.59525960">
        <ele>732.00000</ele>
        <time>2010-01-01T09:10:50Z</time>
      </trkpt>
      <trkpt lat="47.90892900" lon="11.59498810">
        <ele>733.00000</ele>
        <time>2010-01-01T09:11:02Z</time>
      </trkpt>
      <trkpt lat="47.90929890" lon="11.59433660">
        <ele>734.00000</ele>
        <time>2010-01-01T09:11:25Z</time>
      </trkpt>
      <trkpt lat="47.90986170" lon="11.59356810">
        <ele>736.00000</ele>
        <time>2010-01-01T09:11:56Z</time>
      </trkpt>
      <trkpt lat="47.91031380" lon="11.59275130">
        <ele>737.00000</ele>
        <time>2010-01-01T09:12:24Z</time>
      </trkpt>
      <trkpt lat="47.91087130" lon="11.59189960">
        <ele>739.00000</ele>
        <time>2010-01-01T09:12:56Z</time>
      </trkpt>
      <trkpt lat="47.91109940" lon="11.59091370">
        <ele>739.00000</ele>
        <time>2010-01-01T09:13:24Z</time>
      </trkpt>
      <trkpt lat="47.91137520" lon="11.59059730">
        <ele>739.00000</ele>
        <time>2010-01-01T09:13:38Z</time>
      </trkpt>
      <trkpt lat="47.91154940" lon="11.59055560">
        <ele>739.00000</ele>
        <time>2010-01-01T09:13:45Z</time>
      </trkpt>
      <trkpt lat="47.91297390" lon="11.59062930">
        <ele>737.00000</ele>
        <time>2010-01-01T09:14:42Z</time>
      </trkpt>
      <trkpt lat="47.91346320" lon="11.59051110">
        <ele>735.00000</ele>
        <time>2010-01-01T09:15:02Z</time>
      </trkpt>
      <trkpt lat="47.91370250" lon="11.59061280">
        <ele>734.00000</ele>
        <time>2010-01-01T09:15:12Z</time>
      </trkpt>
      <trkpt lat="47.91410070" lon="11.59103380">
        <ele>732.00000</ele>
        <time>2010-01-01T09:15:31Z</time>
      </trkpt>
      <trkpt lat="47.91445700" lon="11.59159470">
        <ele>730.00000</ele>
        <time>2010-01-01T09:15:52Z</time>
      </trkpt>
      <trkpt lat="47.91541020" lon="11.59272570">
        <ele>726.00000</ele>
        <time>2010-01-01T09:16:41Z</time>
      </trkpt>
      <trkpt lat="47.91567590" lon="11.59312900">
        <ele>723.00000</ele>
        <time>2010-01-01T09:16:56Z</time>
      </trkpt>
      <trkpt lat="47.91600460" lon="11.59338080">
        <ele>720.00000</ele>
        <time>2010-01-01T09:17:11Z</time>
      </trkpt>
      <trkpt lat="47.91700160" lon="11.59336360">
        <ele>715.00000</ele>
        <time>2010-01-01T09:17:51Z</time>
      </trkpt>
      <trkpt lat="47.91820190" lon="11.59303780">
        <ele>710.00000</ele>
        <time>2010-01-01T09:18:40Z</time>
      </trkpt>
      <trkpt lat="47.91931880" lon="11.59311750">
        <ele>702.00000</ele>
        <time>2010-01-01T09:19:24Z</time>
      </trkpt>
      <trkpt lat="47.91970950" lon="11.59329520">
        <ele>701.00000</ele>
        <time>2010-01-01T09:19:41Z</time>
      </trkpt>
      <trkpt lat="47.92062550" lon="11.59407100">
        <ele>699.00000</ele>
        <time>2010-01-01T09:20:23Z</time>
      </trkpt>
      <trkpt lat="47.92144270" lon="11.59420210">
        <ele>698.00000</ele>
        <time>2010-01-01T09:20:56Z</time>
      </trkpt>
      <trkpt lat="47.92187210" lon="11.59366430">
        <ele>698.00000</ele>
        <time>2010-01-01T09:21:18Z</time>
      </trkpt>
      <trkpt lat="47.92255620" lon="11.59333870">
        <ele>697.00000</ele>
        <time>2010-01-01T09:21:47Z</time>
      </trkpt>
      <trkpt lat="47.92335600" lon="11.59304290">
        <ele>697.00000</ele>
        <time>2010-01-01T09:22:20Z</time>
      </trkpt>
      <trkpt lat="47.92490450" lon="11.59227630">
        <ele>697.00000</ele>
        <time>2010-01-01T09:23:25Z</time>
      </trkpt>
      <trkpt lat="47.92599090" lon="11.59183620">
        <ele>696.00000</ele>
        <time>2010-01-01T09:24:10Z</time>
      </trkpt>
      <trkpt lat="47.92668650" lon="11.59125120">
        <ele>695.00000</ele>
        <time>2010-01-01T09:24:42Z</time>
      </trkpt>
      <trkpt lat="47.92700810" lon="11.59070330">
        <ele>695.00000</ele>
        <time>2010-01-01T09:25:02Z</time>
      </trkpt>
      <trkpt lat="47.92751490" lon="11.59027520">
        <ele>694.00000</ele>
        <time>2010-01-01T09:25:25Z</time>
      </trkpt>
      <trkpt lat="47.92990280" lon="11.58940430">
        <ele>696.00000</ele>
        <time>2010-01-01T09:27:03Z</time>
      </trkpt>
      <trkpt lat="47.93034920" lon="11.58936640">
        <ele>696.00000</ele>
        <time>2010-01-01T09:27:21Z</time>
      </trkpt>
      <trkpt lat="47.93091150" lon="11.58918310">
        <ele>696.00000</ele>
        <time>2010-01-01T09:27:44Z</time>
      </trkpt>
      <trkpt lat="47.93164310" lon="11.58859200">
        <ele>694.00000</ele>
        <time>2010-01-01T09:28:18Z</time>
      </trkpt>
      <trkpt lat="47.93240650" lon="11.58764320">
        <ele>697.00000</ele>
        <time>2010-01-01T09:28:57Z</time>
      </trkpt>
      <trkpt lat="47.93311750" lon="11.58726270">
        <ele>694.00000</ele>
        <time>2010-01-01T09:29:28Z</time>
      </trkpt>
      <trkpt lat="47.93323290" lon="11.58676600">
        <ele>694.00000</ele>
        <time>2010-01-01T09:29:42Z</time>
      </trkpt>
      <trkpt lat="47.93355020" lon="11.58621170">
        <ele>691.00000</ele>
        <time>2010-01-01T09:30:01Z</time>
      </trkpt>
      <trkpt lat="47.93390880" lon="11.58578010">
        <ele>687.00000</ele>
        <time>2010-01-01T09:30:20Z</time>
      </trkpt>
      <trkpt lat="47.93614790" lon="11.58360570">
        <ele>682.00000</ele>
        <time>2010-01-01T09:32:07Z</time>
      </trkpt>
      <trkpt lat="47.93623260" lon="11.58368660">
        <ele>682.00000</ele>
        <time>2010-01-01T09:32:11Z</time>
      </trkpt>
      <trkpt lat="47.93675970" lon="11.58488310">
        <ele>680.00000</ele>
        <time>2010-01-01T09:32:49Z</time>
      </trkpt>
      <trkpt lat="47.93742890" lon="11.58612110">
        <ele>680.00000</ele>
        <time>2010-01-01T09:33:32Z</time>
      </trkpt>
      <trkpt lat="47.93762460" lon="11.58618970">
        <ele>680.00000</ele>
        <time>2010-01-01T09:33:40Z</time>
      </trkpt>
      <trkpt lat="47.93789110" lon="11.58613840">
        <ele>680.00000</ele>
        <time>2010-01-01T09:33:51Z</time>
      </trkpt>
      <trkpt lat="47.93847620" lon="11.58654410">
        <ele>680.00000</ele>
        <time>2010-01-01T09:34:16Z</time>
      </trkpt>
      <trkpt lat="47.93998160" lon="11.58836700">
        <ele>680.00000</ele>
        <time>2010-01-01T09:35:34Z</time>
      </trkpt>
      <trkpt lat="47.94082240" lon="11.58927680">
        <ele>679.00000</ele>
        <time>2010-01-01T09:36:16Z</time>
      </trkpt>
      <trkpt lat="47.94122910" lon="11.58961670">
        <ele>679.00000</ele>
        <time>2010-01-01T09:36:34Z</time>
      </trkpt>
      <trkpt lat="47.94173020" lon="11.58991440">
        <ele>679.00000</ele>
        <time>2010-01-01T09:36:56Z</time>
      </trkpt>
      <trkpt lat="47.94202430" lon="11.59029680">
        <ele>679.00000</ele>
        <time>2010-01-01T09:37:11Z</time>
      </trkpt>
      <trkpt lat="47.94226990" lon="11.59050230">
        <ele>679.00000</ele>
        <time>2010-01-01T09:37:23Z</time>
      </trkpt>
      <trkpt lat="47.94313050" lon="11.59084700">
        <ele>678.00000</ele>
        <time>2010-01-01T09:37:58Z</time>
      </trkpt>
      <trkpt lat="47.94370220" lon="11.59157790">
        <ele>677.00000</ele>
        <time>2010-01-01T09:38:29Z</time>
      </trkpt>
      <trkpt lat="47.94492280" lon="11.59276650">
        <ele>676.00000</ele>
        <time>2010-01-01T09:39:27Z</time>
      </trkpt>
      <trkpt lat="47.94519250" lon="11.59325410">
        <ele>675.00000</ele>
        <time>2010-01-01T09:39:44Z</time>
      </trkpt>
      <trkpt lat="47.94543970" lon="11.59407140">
        <ele>674.00000</ele>
        <time>2010-01-01T09:40:08Z</time>
      </trkpt>
      <trkpt lat="47.94572020" lon="11.59474890">
        <ele>672.00000</ele>
        <time>2010-01-01T09:40:29Z</time>
      </trkpt>
      <trkpt lat="47.94644960" lon="11.59570300">
        <ele>670.00000</ele>
        <time>2010-01-01T09:41:08Z</time>
      </trkpt>
      <trkpt lat="47.94696550" lon="11.59660150">
        <ele>669.00000</ele>
        <time>2010-01-01T09:41:40Z</time>
      </trkpt>
      <trkpt lat="47.94707910" lon="11.59696690">
        <ele>668.00000</ele>
        <time>2010-01-01T09:41:51Z</time>
      </trkpt>
      <trkpt lat="47.94715920" lon="11.59777110">
        <ele>667.00000</ele>
        <time>2010-01-01T09:42:12Z</time>
      </trkpt>
      <trkpt lat="47.94722690" lon="11.59792170">
        <ele>666.00000</ele>
        <time>2010-01-01T09:42:17Z</time>
      </trkpt>
      <trkpt lat="47.94745200" lon="11.59793950">
        <ele>666.00000</ele>
        <time>2010-01-01T09:42:26Z</time>
      </trkpt>
      <trkpt lat="47.94809060" lon="11.59769480">
        <ele>666.00000</ele>
        <time>2010-01-01T09:42:53Z</time>
      </trkpt>
      <trkpt lat="47.94850660" lon="11.59778460">
        <ele>665.00000</ele>
        <time>2010-01-01T09:43:09Z</time>
      </trkpt>
      <trkpt lat="47.94905860" lon="11.59779420">
        <ele>662.00000</ele>
        <time>2010-01-01T09:43:32Z</time>
      </trkpt>
      <trkpt lat="47.94990280" lon="11.59734520">
        <ele>661.00000</ele>
        <time>2010-01-01T09:44:07Z</time>
      </trkpt>
      <trkpt lat="47.95103400" lon="11.59734240">
        <ele>660.00000</ele>
        <time>2010-01-01T09:44:53Z</time>
      </trkpt>
      <trkpt lat="47.95184670" lon="11.59717400">
        <ele>660.00000</ele>
        <time>2010-01-01T09:45:26Z</time>
      </trkpt>
      <trkpt lat="47.95247200" lon="11.59714350">
        <ele>660.00000</ele>
        <time>2010-01-01T09:45:51Z</time>
      </trkpt>
      <trkpt lat="47.95339500" lon="11.59678360">
        <ele>660.00000</ele>
        <time>2010-01-01T09:46:29Z</time>
      </trkpt>
      <trkpt lat="47.95365490" lon="11.59682470">
        <ele>660.00000</ele>
        <time>2010-01-01T09:46:39Z</time>
      </trkpt>
      <trkpt lat="47.95390420" lon="11.59677290">
        <ele>660.00000</ele>
        <time>2010-01-01T09:46:49Z</time>
      </trkpt>
      <trkpt lat="47.95477920" lon="11.59625910">
        <ele>660.00000</ele>
        <time>2010-01-01T09:47:27Z</time>
      </trkpt>
      <trkpt lat="47.95602090" lon="11.59590000">
        <ele>658.00000</ele>
        <time>2010-01-01T09:48:18Z</time>
      </trkpt>
      <trkpt lat="47.95722240" lon="11.59536090">
        <ele>657.00000</ele>
        <time>2010-01-01T09:49:08Z</time>
      </trkpt>
      <trkpt lat="47.95770590" lon="11.59519680">
        <ele>656.00000</ele>
        <time>2010-01-01T09:49:28Z</time>
      </trkpt>
      <trkpt lat="47.95838450" lon="11.59512620">
        <ele>655.00000</ele>
        <time>2010-01-01T09:49:55Z</time>
      </trkpt>
      <trkpt lat="47.95922630" lon="11.59468230">
        <ele>654.00000</ele>
        <time>2010-01-01T09:50:31Z</time>
      </trkpt>
      <trkpt lat="47.95973510" lon="11.59432880">
        <ele>655.00000</ele>
        <time>2010-01-01T09:50:53Z</time>
      </trkpt>
      <trkpt lat="47.95974790" lon="11.59192560">
        <ele>659.00000</ele>
        <time>2010-01-01T09:51:58Z</time>
      </trkpt>
      <trkpt lat="47.95981070" lon="11.59157160">
        <ele>660.00000</ele>
        <time>2010-01-01T09:52:07Z</time>
      </trkpt>
      <trkpt lat="47.96000730" lon="11.59123380">
        <ele>660.00000</ele>
        <time>2010-01-01T09:52:19Z</time>
      </trkpt>
      <trkpt lat="47.95966070" lon="11.58957330">
        <ele>660.00000</ele>
        <time>2010-01-01T09:53:06Z</time>
      </trkpt>
      <trkpt lat="47.95968370" lon="11.58938200">
        <ele>660.00000</ele>
        <time>2010-01-01T09:53:11Z</time>
      </trkpt>
      <trkpt lat="47.95963460" lon="11.58941990">
        <ele>660.00000</ele>
        <time>2010-01-01T09:53:13Z</time>
      </trkpt>
      <trkpt lat="47.95961890" lon="11.58970090">
        <ele>660.00000</ele>
        <time>2010-01-01T09:53:21Z</time>
      </trkpt>
      <trkpt lat="47.96004660" lon="11.59150860">
        <ele>660.00000</ele>
        <time>2010-01-01T09:54:12Z</time>
      </trkpt>
      <trkpt lat="47.96013280" lon="11.59166690">
        <ele>660.00000</ele>
        <time>2010-01-01T09:54:18Z</time>
      </trkpt>
      <trkpt lat="47.96053620" lon="11.59163030">
        <ele>659.00000</ele>
        <time>2010-01-01T09:54:34Z</time>
      </trkpt>
      <trkpt lat="47.96068500" lon="11.58964510">
        <ele>660.00000</ele>
        <time>2010-01-01T09:55:28Z</time>
      </trkpt>
      <trkpt lat="47.96086760" lon="11.58926490">
        <ele>660.00000</ele>
        <time>2010-01-01T09:55:40Z</time>
      </trkpt>
      <trkpt lat="47.96099010" lon="11.58863590">
        <ele>660.00000</ele>
        <time>2010-01-01T09:55:58Z</time>
      </trkpt>
      <trkpt lat="47.96126250" lon="11.58784910">
        <ele>660.00000</ele>
        <time>2010-01-01T09:56:21Z</time>
      </trkpt>
      <trkpt lat="47.96179820" lon="11.58662260">
        <ele>660.00000</ele>
        <time>2010-01-01T09:57:01Z</time>
      </trkpt>
      <trkpt lat="47.96272130" lon="11.58514070">
        <ele>660.00000</ele>
        <time>2010-01-01T09:57:55Z</time>
      </trkpt>
      <trkpt lat="47.96301950" lon="11.58412730">
        <ele>660.00000</ele>
        <time>2010-01-01T09:58:25Z</time>
      </trkpt>
      <trkpt lat="47.96347760" lon="11.58293020">
        <ele>660.00000</ele>
        <time>2010-01-01T09:59:02Z</time>
      </trkpt>
      <trkpt lat="47.96390710" lon="11.58158190">
        <ele>660.00000</ele>
        <time>2010-01-01T09:59:42Z</time>
      </trkpt>
      <trkpt lat="47.96513740" lon="11.57995040">
        <ele>659.00000</ele>
        <time>2010-01-01T10:00:47Z</time>
      </trkpt>
      <trkpt lat="47.96543930" lon="11.57927970">
        <ele>658.00000</ele>
        <time>2010-01-01T10:01:09Z</time>
      </trkpt>
      <trkpt lat="47.96614590" lon="11.57565610">
        <ele>655.00000</ele>
        <time>2010-01-01T10:02:50Z</time>
      </trkpt>
      <trkpt lat="47.96628570" lon="11.57469950">
        <ele>654.00000</ele>
        <time>2010-01-01T10:03:16Z</time>
      </trkpt>
      <trkpt lat="47.96688000" lon="11.57228470">
        <ele>653.00000</ele>
        <time>2010-01-01T10:04:25Z</time>
      </trkpt>
      <trkpt lat="47.96697870" lon="11.57151000">
        <ele>653.00000</ele>
        <time>2010-01-01T10:04:47Z</time>
      </trkpt>
      <trkpt lat="47.96701930" lon="11.57028040">
        <ele>653.00000</ele>
        <time>2010-01-01T10:05:20Z</time>
      </trkpt>
      <trkpt lat="47.96714350" lon="11.56994830">
        <ele>653.00000</ele>
        <time>2010-01-01T10:05:30Z</time>
      </trkpt>
      <trkpt lat="47.96831530" lon="11.56775430">
        <ele>652.00000</ele>
        <time>2010-01-01T10:06:45Z</time>
      </trkpt>
      <trkpt lat="47.96843810" lon="11.56734490">
        <ele>652.00000</ele>
        <time>2010-01-01T10:06:57Z</time>
      </trkpt>
      <trkpt lat="47.96858600" lon="11.56724950">
        <ele>652.00000</ele>
        <time>2010-01-01T10:07:03Z</time>
      </trkpt>
      <trkpt lat="47.97052550" lon="11.56761930">
        <ele>649.00000</ele>
        <time>2010-01-01T10:08:22Z</time>
      </trkpt>
      <trkpt lat="47.97140920" lon="11.56765800">
        <ele>648.00000</ele>
        <time>2010-01-01T10:08:57Z</time>
      </trkpt>
      <trkpt lat="47.97264730" lon="11.56760910">
        <ele>647.00000</ele>
        <time>2010-01-01T10:09:47Z</time>
      </trkpt>
      <trkpt lat="47.97322760" lon="11.56781570">
        <ele>645.00000</ele>
        <time>2010-01-01T10:10:11Z</time>
      </trkpt>
      <trkpt lat="47.97356580" lon="11.56817140">
        <ele>645.00000</ele>
        <time>2010-01-01T10:10:27Z</time>
      </trkpt>
      <trkpt lat="47.97503110" lon="11.57054720">
        <ele>642.00000</ele>
        <time>2010-01-01T10:11:54Z</time>
      </trkpt>
      <trkpt lat="47.97530560" lon="11.57083000">
        <ele>642.00000</ele>
        <time>2010-01-01T10:12:07Z</time>
      </trkpt>
      <trkpt lat="47.97579590" lon="11.57106000">
        <ele>642.00000</ele>
        <time>2010-01-01T10:12:28Z</time>
      </trkpt>
      <trkpt lat="47.97763540" lon="11.57164100">
        <ele>641.00000</ele>
        <time>2010-01-01T10:13:43Z</time>
      </trkpt>
      <trkpt lat="47.97803240" lon="11.57166570">
        <ele>641.00000</ele>
        <time>2010-01-01T10:13:59Z</time>
      </trkpt>
      <trkpt lat="47.98008220" lon="11.57123430">
        <ele>640.00000</ele>
        <time>2010-01-01T10:15:22Z</time>
      </trkpt>
      <trkpt lat="47.98033220" lon="11.57130960">
        <ele>640.00000</ele>
        <time>2010-01-01T10:15:32Z</time>
      </trkpt>
      <trkpt lat="47.98085960" lon="11.57162650">
        <ele>639.00000</ele>
        <time>2010-01-01T10:15:55Z</time>
      </trkpt>
      <trkpt lat="47.98145670" lon="11.57130130">
        <ele>638.00000</ele>
        <time>2010-01-01T10:16:20Z</time>
      </trkpt>
      <trkpt lat="47.98209860" lon="11.57122180">
        <ele>637.00000</ele>
        <time>2010-01-01T10:16:46Z</time>
      </trkpt>
      <trkpt lat="47.98393180" lon="11.57171550">
        <ele>635.00000</ele>
        <time>2010-01-01T10:18:00Z</time>
      </trkpt>
      <trkpt lat="47.98526680" lon="11.57220320">
        <ele>633.00000</ele>
        <time>2010-01-01T10:18:55Z</time>
      </trkpt>
      <trkpt lat="47.98612030" lon="11.57242830">
        <ele>632.00000</ele>
        <time>2010-01-01T10:19:30Z</time>
      </trkpt>
      <trkpt lat="47.98656080" lon="11.57269330">
        <ele>631.00000</ele>
        <time>2010-01-01T10:19:49Z</time>
      </trkpt>
      <trkpt lat="47.98723730" lon="11.57326220">
        <ele>629.00000</ele>
        <time>2010-01-01T10:20:20Z</time>
      </trkpt>
      <trkpt lat="47.98790150" lon="11.57362460">
        <ele>628.00000</ele>
        <time>2010-01-01T10:20:48Z</time>
      </trkpt>
      <trkpt lat="47.98968420" lon="11.57426000">
        <ele>625.00000</ele>
        <time>2010-01-01T10:22:02Z</time>
      </trkpt>
      <trkpt lat="47.98986820" lon="11.57423740">
        <ele>625.00000</ele>
        <time>2010-01-01T10:22:09Z</time>
      </trkpt>
      <trkpt lat="47.99063210" lon="11.57184700">
        <ele>625.00000</ele>
        <time>2010-01-01T10:23:20Z</time>
      </trkpt>
      <trkpt lat="47.99113720" lon="11.56954670">
        <ele>626.00000</ele>
        <time>2010-01-01T10:24:25Z</time>
      </trkpt>
      <trkpt lat="47.99124970" lon="11.56858110">
        <ele>626.00000</ele>
        <time>2010-01-01T10:24:51Z</time>
      </trkpt>
      <trkpt lat="47.99125280" lon="11.56767990">
        <ele>625.00000</ele>
        <time>2010-01-01T10:25:15Z</time>
      </trkpt>
      <trkpt lat="47.99116260" lon="11.56628870">
        <ele>626.00000</ele>
        <time>2010-01-01T10:25:53Z</time>
      </trkpt>
      <trkpt lat="47.99118230" lon="11.56547450">
        <ele>626.00000</ele>
        <time>2010-01-01T10:26:15Z</time>
      </trkpt>
      <trkpt lat="47.99162920" lon="11.56364660">
        <ele>625.00000</ele>
        <time>2010-01-01T10:27:07Z</time>
      </trkpt>
      <trkpt lat="47.99165010" lon="11.56215100">
        <ele>625.00000</ele>
        <time>2010-01-01T10:27:47Z</time>
      </trkpt>
      <trkpt lat="47.99208430" lon="11.56084130">
        <ele>623.00000</ele>
        <time>2010-01-01T10:28:26Z</time>
      </trkpt>
      <trkpt lat="47.99256560" lon="11.55988210">
        <ele>620.00000</ele>
        <time>2010-01-01T10:28:58Z</time>
      </trkpt>
      <trkpt lat="47.99266150" lon="11.55957870">
        <ele>619.00000</ele>
        <time>2010-01-01T10:29:07Z</time>
      </trkpt>
      <trkpt lat="47.99267590" lon="11.55876810">
        <ele>619.00000</ele>
        <time>2010-01-01T10:29:29Z</time>
      </trkpt>
      <trkpt lat="47.99231900" lon="11.55745600">
        <ele>620.00000</ele>
        <time>2010-01-01T10:30:07Z</time>
      </trkpt>
      <trkpt lat="47.99232360" lon="11.55699380">
        <ele>620.00000</ele>
        <time>2010-01-01T10:30:19Z</time>
      </trkpt>
      <trkpt lat="47.99245460" lon="11.55611920">
        <ele>621.00000</ele>
        <time>2010-01-01T10:30:43Z</time>
      </trkpt>
      <trkpt lat="47.99244260" lon="11.55575400">
        <ele>621.00000</ele>
        <time>2010-01-01T10:30:53Z</time>
      </trkpt>
      <trkpt lat="47.99235750" lon="11.55550980">
        <ele>621.00000</ele>
        <time>2010-01-01T10:31:00Z</time>
      </trkpt>
      <trkpt lat="47.99210360" lon="11.55509820">
        <ele>621.00000</ele>
        <time>2010-01-01T10:31:15Z</time>
      </trkpt>
      <trkpt lat="47.99194390" lon="11.55464880">
        <ele>622.00000</ele>
        <time>2010-01-01T10:31:29Z</time>
      </trkpt>
      <trkpt lat="47.99181190" lon="11.55341340">
        <ele>625.00000</ele>
        <time>2010-01-01T10:32:03Z</time>
      </trkpt>
      <trkpt lat="47.99067300" lon="11.55133450">
        <ele>629.00000</ele>
        <time>2010-01-01T10:33:15Z</time>
      </trkpt>
      <trkpt lat="47.99035710" lon="11.55049550">
        <ele>630.00000</ele>
        <time>2010-01-01T10:33:40Z</time>
      </trkpt>
      <trkpt lat="47.99026150" lon="11.54999660">
        <ele>632.00000</ele>
        <time>2010-01-01T10:33:54Z</time>
      </trkpt>
      <trkpt lat="47.98995030" lon="11.54669670">
        <ele>640.00000</ele>
        <time>2010-01-01T10:35:24Z</time>
      </trkpt>
      <trkpt lat="47.98969550" lon="11.54589480">
        <ele>640.00000</ele>
        <time>2010-01-01T10:35:47Z</time>
      </trkpt>
      <trkpt lat="47.98947180" lon="11.54543390">
        <ele>640.00000</ele>
        <time>2010-01-01T10:36:03Z</time>
      </trkpt>
      <trkpt lat="47.98865950" lon="11.54440950">
        <ele>641.00000</ele>
        <time>2010-01-01T10:36:45Z</time>
      </trkpt>
      <trkpt lat="47.98797410" lon="11.54339650">
        <ele>641.00000</ele>
        <time>2010-01-01T10:37:24Z</time>
      </trkpt>
      <trkpt lat="47.98741690" lon="11.54281080">
        <ele>641.00000</ele>
        <time>2010-01-01T10:37:51Z</time>
      </trkpt>
      <trkpt lat="47.98713250" lon="11.54232340">
        <ele>641.00000</ele>
        <time>2010-01-01T10:38:08Z</time>
      </trkpt>
      <trkpt lat="47.98512780" lon="11.53779400">
        <ele>643.00000</ele>
        <time>2010-01-01T10:40:34Z</time>
      </trkpt>
      <trkpt lat="47.98481250" lon="11.53696740">
        <ele>643.00000</ele>
        <time>2010-01-01T10:40:59Z</time>
      </trkpt>
      <trkpt lat="47.98268550" lon="11.52923870">
        <ele>643.00000</ele>
        <time>2010-01-01T10:44:43Z</time>
      </trkpt>
      <trkpt lat="47.98211610" lon="11.52667950">
        <ele>653.00000</ele>
        <time>2010-01-01T10:45:55Z</time>
      </trkpt>
      <trkpt lat="47.98155430" lon="11.52462370">
        <ele>658.00000</ele>
        <time>2010-01-01T10:46:55Z</time>
      </trkpt>
      <trkpt lat="47.98151580" lon="11.52232470">
        <ele>660.00000</ele>
        <time>2010-01-01T10:47:57Z</time>
      </trkpt>
      <trkpt lat="47.98166250" lon="11.52153350">
        <ele>659.00000</ele>
        <time>2010-01-01T10:48:19Z</time>
      </trkpt>
      <trkpt lat="47.98172300" lon="11.52027280">
        <ele>658.00000</ele>
        <time>2010-01-01T10:48:52Z</time>
      </trkpt>
      <trkpt lat="47.98151740" lon="11.51997690">
        <ele>658.00000</ele>
        <time>2010-01-01T10:49:04Z</time>
      </trkpt>
      <trkpt lat="47.98135580" lon="11.51987990">
        <ele>658.00000</ele>
        <time>2010-01-01T10:49:11Z</time>
      </trkpt>
      <trkpt lat="47.98093210" lon="11.51981150">
        <ele>659.00000</ele>
        <time>2010-01-01T10:49:28Z</time>
      </trkpt>
      <trkpt lat="47.98040690" lon="11.51939520">
        <ele>659.00000</ele>
        <time>2010-01-01T10:49:52Z</time>
      </trkpt>
      <trkpt lat="47.98017340" lon="11.51906690">
        <ele>659.00000</ele>
        <time>2010-01-01T10:50:05Z</time>
      </trkpt>
      <trkpt lat="47.97988660" lon="11.51832650">
        <ele>659.00000</ele>
        <time>2010-01-01T10:50:27Z</time>
      </trkpt>
      <trkpt lat="47.97980170" lon="11.51789300">
        <ele>659.00000</ele>
        <time>2010-01-01T10:50:40Z</time>
      </trkpt>
      <trkpt lat="47.97981690" lon="11.51699110">
        <ele>659.00000</ele>
        <time>2010-01-01T10:51:04Z</time>
      </trkpt>
      <trkpt lat="47.98036440" lon="11.51290850">
        <ele>660.00000</ele>
        <time>2010-01-01T10:52:55Z</time>
      </trkpt>
      <trkpt lat="47.98037230" lon="11.51220200">
        <ele>660.00000</ele>
        <time>2010-01-01T10:53:14Z</time>
      </trkpt>
      <trkpt lat="47.98020480" lon="11.51161310">
        <ele>660.00000</ele>
        <time>2010-01-01T10:53:31Z</time>
      </trkpt>
      <trkpt lat="47.97987700" lon="11.51088790">
        <ele>660.00000</ele>
        <time>2010-01-01T10:53:55Z</time>
      </trkpt>
      <trkpt lat="47.97978030" lon="11.50960140">
        <ele>658.00000</ele>
        <time>2010-01-01T10:54:30Z</time>
      </trkpt>
      <trkpt lat="47.97954170" lon="11.50828870">
        <ele>657.00000</ele>
        <time>2010-01-01T10:55:06Z</time>
      </trkpt>
      <trkpt lat="47.97923210" lon="11.50738320">
        <ele>657.00000</ele>
        <time>2010-01-01T10:55:33Z</time>
      </trkpt>
      <trkpt lat="47.97875270" lon="11.50550480">
        <ele>656.00000</ele>
        <time>2010-01-01T10:56:27Z</time>
      </trkpt>
      <trkpt lat="47.97834770" lon="11.50435120">
        <ele>656.00000</ele>
        <time>2010-01-01T10:57:02Z</time>
      </trkpt>
      <trkpt lat="47.97829840" lon="11.50274460">
        <ele>656.00000</ele>
        <time>2010-01-01T10:57:45Z</time>
      </trkpt>
      <trkpt lat="47.97821500" lon="11.50200120">
        <ele>657.00000</ele>
        <time>2010-01-01T10:58:05Z</time>
      </trkpt>
      <trkpt lat="47.97824660" lon="11.50159960">
        <ele>657.00000</ele>
        <time>2010-01-01T10:58:16Z</time>
      </trkpt>
      <trkpt lat="47.97804350" lon="11.50105860">
        <ele>658.00000</ele>
        <time>2010-01-01T10:58:33Z</time>
      </trkpt>
      <trkpt lat="47.97773480" lon="11.49948790">
        <ele>659.00000</ele>
        <time>2010-01-01T10:59:17Z</time>
      </trkpt>
      <trkpt lat="47.97768820" lon="11.49781590">
        <ele>660.00000</ele>
        <time>2010-01-01T11:00:01Z</time>
      </trkpt>
      <trkpt lat="47.97759050" lon="11.49698800">
        <ele>660.00000</ele>
        <time>2010-01-01T11:00:24Z</time>
      </trkpt>
      <trkpt lat="47.97620250" lon="11.49279890">
        <ele>664.00000</ele>
        <time>2010-01-01T11:02:29Z</time>
      </trkpt>
      <trkpt lat="47.97583420" lon="11.49215620">
        <ele>664.00000</ele>
        <time>2010-01-01T11:02:52Z</time>
      </trkpt>
      <trkpt lat="47.97517080" lon="11.48916230">
        <ele>657.00000</ele>
        <time>2010-01-01T11:04:16Z</time>
      </trkpt>
      <trkpt lat="47.97448440" lon="11.48644360">
        <ele>642.00000</ele>
        <time>2010-01-01T11:05:34Z</time>
      </trkpt>
      <trkpt lat="47.97434500" lon="11.48616830">
        <ele>641.00000</ele>
        <time>2010-01-01T11:05:44Z</time>
      </trkpt>
      <trkpt lat="47.97389790" lon="11.48572290">
        <ele>639.00000</ele>
        <time>2010-01-01T11:06:05Z</time>
      </trkpt>
      <trkpt lat="47.97353540" lon="11.48558920">
        <ele>639.00000</ele>
        <time>2010-01-01T11:06:20Z</time>
      </trkpt>
      <trkpt lat="47.97305230" lon="11.48560120">
        <ele>640.00000</ele>
        <time>2010-01-01T11:06:39Z</time>
      </trkpt>
      <trkpt lat="47.97292680" lon="11.48547470">
        <ele>639.00000</ele>
        <time>2010-01-01T11:06:45Z</time>
      </trkpt>
      <trkpt lat="47.97295820" lon="11.48514270">
        <ele>638.00000</ele>
        <time>2010-01-01T11:06:54Z</time>
      </trkpt>
      <trkpt lat="47.97305190" lon="11.48488740">
        <ele>636.00000</ele>
        <time>2010-01-01T11:07:02Z</time>
      </trkpt>
      <trkpt lat="47.97383840" lon="11.48325930">
        <ele>628.00000</ele>
        <time>2010-01-01T11:07:56Z</time>
      </trkpt>
      <trkpt lat="47.97497190" lon="11.48207110">
        <ele>616.00000</ele>
        <time>2010-01-01T11:08:51Z</time>
      </trkpt>
      <trkpt lat="47.97501330" lon="11.48170010">
        <ele>612.00000</ele>
        <time>2010-01-01T11:09:02Z</time>
      </trkpt>
      <trkpt lat="47.97497290" lon="11.48133520">
        <ele>607.00000</ele>
        <time>2010-01-01T11:09:11Z</time>
      </trkpt>
      <trkpt lat="47.97483550" lon="11.48102200">
        <ele>604.00000</ele>
        <time>2010-01-01T11:09:21Z</time>
      </trkpt>
      <trkpt lat="47.97449720" lon="11.48053860">
        <ele>597.00000</ele>
        <time>2010-01-01T11:09:40Z</time>
      </trkpt>
      <trkpt lat="47.97414650" lon="11.48034000">
        <ele>596.00000</ele>
        <time>2010-01-01T11:09:55Z</time>
      </trkpt>
      <trkpt lat="47.97381530" lon="11.48034980">
        <ele>593.00000</ele>
        <time>2010-01-01T11:10:08Z</time>
      </trkpt>
      <trkpt lat="47.97293210" lon="11.48015700">
        <ele>578.00000</ele>
        <time>2010-01-01T11:10:44Z</time>
      </trkpt>
      <trkpt lat="47.97227710" lon="11.48009080">
        <ele>570.00000</ele>
        <time>2010-01-01T11:11:10Z</time>
      </trkpt>
      <trkpt lat="47.97189370" lon="11.47992410">
        <ele>565.00000</ele>
        <time>2010-01-01T11:11:26Z</time>
      </trkpt>
      <trkpt lat="47.97152340" lon="11.47988210">
        <ele>564.00000</ele>
        <time>2010-01-01T11:11:41Z</time>
      </trkpt>
      <trkpt lat="47.97129880" lon="11.47972550">
        <ele>562.00000</ele>
        <time>2010-01-01T11:11:51Z</time>
      </trkpt>
      <trkpt lat="47.97093320" lon="11.47958080">
        <ele>561.00000</ele>
        <time>2010-01-01T11:12:06Z</time>
      </trkpt>
      <trkpt lat="47.97081730" lon="11.47956590">
        <ele>560.00000</ele>
        <time>2010-01-01T11:12:11Z</time>
      </trkpt>
      <trkpt lat="47.97051160" lon="11.47971250">
        <ele>562.00000</ele>
        <time>2010-01-01T11:12:24Z</time>
      </trkpt>
      <trkpt lat="47.97031860" lon="11.47972340">
        <ele>562.00000</ele>
        <time>2010-01-01T11:12:32Z</time>
      </trkpt>
      <trkpt lat="47.97018380" lon="11.47957350">
        <ele>561.00000</ele>
        <time>2010-01-01T11:12:38Z</time>
      </trkpt>
      <trkpt lat="47.97013450" lon="11.47935660">
        <ele>559.00000</ele>
        <time>2010-01-01T11:12:44Z</time>
      </trkpt>
      <trkpt lat="47.97019820" lon="11.47918270">
        <ele>557.00000</ele>
        <time>2010-01-01T11:12:50Z</time>
      </trkpt>
      <trkpt lat="47.97051720" lon="11.47884550">
        <ele>556.00000</ele>
        <time>2010-01-01T11:13:05Z</time>
      </trkpt>
      <trkpt lat="47.97082930" lon="11.47866900">
        <ele>555.00000</ele>
        <time>2010-01-01T11:13:19Z</time>
      </trkpt>
      <trkpt lat="47.97146180" lon="11.47804430">
        <ele>554.00000</ele>
        <time>2010-01-01T11:13:49Z</time>
      </trkpt>
      <trkpt lat="47.97180760" lon="11.47781950">
        <ele>554.00000</ele>
        <time>2010-01-01T11:14:04Z</time>
      </trkpt>
      <trkpt lat="47.97215110" lon="11.47777490">
        <ele>554.00000</ele>
        <time>2010-01-01T11:14:18Z</time>
      </trkpt>
      <trkpt lat="47.97277030" lon="11.47798180">
        <ele>554.00000</ele>
        <time>2010-01-01T11:14:43Z</time>
      </trkpt>
      <trkpt lat="47.97330820" lon="11.47803090">
        <ele>554.00000</ele>
        <time>2010-01-01T11:15:05Z</time>
      </trkpt>
      <trkpt lat="47.97346250" lon="11.47792440">
        <ele>554.00000</ele>
        <time>2010-01-01T11:15:12Z</time>
      </trkpt>
      <trkpt lat="47.97353320" lon="11.47771350">
        <ele>553.00000</ele>
        <time>2010-01-01T11:15:18Z</time>
      </trkpt>
      <trkpt lat="47.97353990" lon="11.47738720">
        <ele>553.00000</ele>
        <time>2010-01-01T11:15:27Z</time>
      </trkpt>
      <trkpt lat="47.97345550" lon="11.47705500">
        <ele>553.00000</ele>
        <time>2010-01-01T11:15:36Z</time>
      </trkpt>
      <trkpt lat="47.97326930" lon="11.47673690">
        <ele>553.00000</ele>
        <time>2010-01-01T11:15:48Z</time>
      </trkpt>
      <trkpt lat="47.97289650" lon="11.47665710">
        <ele>554.00000</ele>
        <time>2010-01-01T11:16:03Z</time>
      </trkpt>
      <trkpt lat="47.97279300" lon="11.47657330">
        <ele>554.00000</ele>
        <time>2010-01-01T11:16:08Z</time>
      </trkpt>
      <trkpt lat="47.97267480" lon="11.47632840">
        <ele>554.00000</ele>
        <time>2010-01-01T11:16:16Z</time>
      </trkpt>
      <trkpt lat="47.97247320" lon="11.47498580">
        <ele>556.00000</ele>
        <time>2010-01-01T11:16:53Z</time>
      </trkpt>
      <trkpt lat="47.97255110" lon="11.47438890">
        <ele>557.00000</ele>
        <time>2010-01-01T11:17:09Z</time>
      </trkpt>
      <trkpt lat="47.97280660" lon="11.47396280">
        <ele>557.00000</ele>
        <time>2010-01-01T11:17:24Z</time>
      </trkpt>
      <trkpt lat="47.97341720" lon="11.47334180">
        <ele>557.00000</ele>
        <time>2010-01-01T11:17:54Z</time>
      </trkpt>
      <trkpt lat="47.97375320" lon="11.47289720">
        <ele>557.00000</ele>
        <time>2010-01-01T11:18:12Z</time>
      </trkpt>
      <trkpt lat="47.97457950" lon="11.47172200">
        <ele>558.00000</ele>
        <time>2010-01-01T11:18:57Z</time>
      </trkpt>
      <trkpt lat="47.97497440" lon="11.47105780">
        <ele>558.00000</ele>
        <time>2010-01-01T11:19:21Z</time>
      </trkpt>
      <trkpt lat="47.97558270" lon="11.46988380">
        <ele>559.00000</ele>
        <time>2010-01-01T11:20:01Z</time>
      </trkpt>
      <trkpt lat="47.97612430" lon="11.46865070">
        <ele>560.00000</ele>
        <time>2010-01-01T11:20:40Z</time>
      </trkpt>
      <trkpt lat="47.97650810" lon="11.46804470">
        <ele>560.00000</ele>
        <time>2010-01-01T11:21:03Z</time>
      </trkpt>
      <trkpt lat="47.97681020" lon="11.46717970">
        <ele>564.00000</ele>
        <time>2010-01-01T11:21:29Z</time>
      </trkpt>
      <trkpt lat="47.97798340" lon="11.46675990">
        <ele>567.00000</ele>
        <time>2010-01-01T11:22:17Z</time>
      </trkpt>
      <trkpt lat="47.97842790" lon="11.46645090">
        <ele>568.00000</ele>
        <time>2010-01-01T11:22:37Z</time>
      </trkpt>
      <trkpt lat="47.97905410" lon="11.46645870">
        <ele>563.00000</ele>
        <time>2010-01-01T11:23:02Z</time>
      </trkpt>
      <trkpt lat="47.97948280" lon="11.46632550">
        <ele>562.00000</ele>
        <time>2010-01-01T11:23:19Z</time>
      </trkpt>
      <trkpt lat="47.97998680" lon="11.46595920">
        <ele>560.00000</ele>
        <time>2010-01-01T11:23:42Z</time>
      </trkpt>
      <trkpt lat="47.98055530" lon="11.46539050">
        <ele>562.00000</ele>
        <time>2010-01-01T11:24:09Z</time>
      </trkpt>
      <trkpt lat="47.98086910" lon="11.46519690">
        <ele>563.00000</ele>
        <time>2010-01-01T11:24:23Z</time>
      </trkpt>
      <trkpt lat="47.98122140" lon="11.46535530">
        <ele>566.00000</ele>
        <time>2010-01-01T11:24:38Z</time>
      </trkpt>
      <trkpt lat="47.98163510" lon="11.46514160">
        <ele>572.00000</ele>
        <time>2010-01-01T11:24:55Z</time>
      </trkpt>
      <trkpt lat="47.98210750" lon="11.46544260">
        <ele>574.00000</ele>
        <time>2010-01-01T11:25:16Z</time>
      </trkpt>
      <trkpt lat="47.98242310" lon="11.46543880">
        <ele>578.00000</ele>
        <time>2010-01-01T11:25:28Z</time>
      </trkpt>
      <trkpt lat="47.98309760" lon="11.46510530">
        <ele>585.00000</ele>
        <time>2010-01-01T11:25:57Z</time>
      </trkpt>
      <trkpt lat="47.98367490" lon="11.46531230">
        <ele>588.00000</ele>
        <time>2010-01-01T11:26:21Z</time>
      </trkpt>
      <trkpt lat="47.98391820" lon="11.46524130">
        <ele>591.00000</ele>
        <time>2010-01-01T11:26:30Z</time>
      </trkpt>
      <trkpt lat="47.98416620" lon="11.46503370">
        <ele>595.00000</ele>
        <time>2010-01-01T11:26:42Z</time>
      </trkpt>
      <trkpt lat="47.98425880" lon="11.46468870">
        <ele>599.00000</ele>
        <time>2010-01-01T11:26:52Z</time>
      </trkpt>
      <trkpt lat="47.98414170" lon="11.46433280">
        <ele>601.00000</ele>
        <time>2010-01-01T11:27:02Z</time>
      </trkpt>
      <trkpt lat="47.98386710" lon="11.46404110">
        <ele>600.00000</ele>
        <time>2010-01-01T11:27:16Z</time>
      </trkpt>
      <trkpt lat="47.98376680" lon="11.46404540">
        <ele>599.00000</ele>
        <time>2010-01-01T11:27:20Z</time>
      </trkpt>
      <trkpt lat="47.98371110" lon="11.46387860">
        <ele>599.00000</ele>
        <time>2010-01-01T11:27:25Z</time>
      </trkpt>
      <trkpt lat="47.98369790" lon="11.46353170">
        <ele>601.00000</ele>
        <time>2010-01-01T11:27:34Z</time>
      </trkpt>
      <trkpt lat="47.98384780" lon="11.46329690">
        <ele>605.00000</ele>
        <time>2010-01-01T11:27:43Z</time>
      </trkpt>
      <trkpt lat="47.98404260" lon="11.46341670">
        <ele>607.00000</ele>
        <time>2010-01-01T11:27:51Z</time>
      </trkpt>
      <trkpt lat="47.98433700" lon="11.46347750">
        <ele>611.00000</ele>
        <time>2010-01-01T11:28:03Z</time>
      </trkpt>
      <trkpt lat="47.98449840" lon="11.46384530">
        <ele>610.00000</ele>
        <time>2010-01-01T11:28:15Z</time>
      </trkpt>
      <trkpt lat="47.98480820" lon="11.46430000">
        <ele>611.00000</ele>
        <time>2010-01-01T11:28:32Z</time>
      </trkpt>
      <trkpt lat="47.98493980" lon="11.46432380">
        <ele>612.00000</ele>
        <time>2010-01-01T11:28:38Z</time>
      </trkpt>
      <trkpt lat="47.98496980" lon="11.46442410">
        <ele>612.00000</ele>
        <time>2010-01-01T11:28:41Z</time>
      </trkpt>
      <trkpt lat="47.98524170" lon="11.46443120">
        <ele>614.00000</ele>
        <time>2010-01-01T11:28:52Z</time>
      </trkpt>
      <trkpt lat="47.98551880" lon="11.46415480">
        <ele>620.00000</ele>
        <time>2010-01-01T11:29:05Z</time>
      </trkpt>
      <trkpt lat="47.98563400" lon="11.46391450">
        <ele>623.00000</ele>
        <time>2010-01-01T11:29:13Z</time>
      </trkpt>
      <trkpt lat="47.98562170" lon="11.46368220">
        <ele>624.00000</ele>
        <time>2010-01-01T11:29:19Z</time>
      </trkpt>
      <trkpt lat="47.98538920" lon="11.46337700">
        <ele>624.00000</ele>
        <time>2010-01-01T11:29:31Z</time>
      </trkpt>
      <trkpt lat="47.98466540" lon="11.46286670">
        <ele>620.00000</ele>
        <time>2010-01-01T11:30:03Z</time>
      </trkpt>
      <trkpt lat="47.98454880" lon="11.46253630">
        <ele>620.00000</ele>
        <time>2010-01-01T11:30:13Z</time>
      </trkpt>
      <trkpt lat="47.98460690" lon="11.46230240">
        <ele>623.00000</ele>
        <time>2010-01-01T11:30:20Z</time>
      </trkpt>
      <trkpt lat="47.98488080" lon="11.46180850">
        <ele>629.00000</ele>
        <time>2010-01-01T11:30:37Z</time>
      </trkpt>
      <trkpt lat="47.98519250" lon="11.46153730">
        <ele>633.00000</ele>
        <time>2010-01-01T11:30:52Z</time>
      </trkpt>
      <trkpt lat="47.98542790" lon="11.46156260">
        <ele>634.00000</ele>
        <time>2010-01-01T11:31:01Z</time>
      </trkpt>
      <trkpt lat="47.98562950" lon="11.46171740">
        <ele>635.00000</ele>
        <time>2010-01-01T11:31:10Z</time>
      </trkpt>
      <trkpt lat="47.98579620" lon="11.46224840">
        <ele>633.00000</ele>
        <time>2010-01-01T11:31:26Z</time>
      </trkpt>
      <trkpt lat="47.98590840" lon="11.46240240">
        <ele>633.00000</ele>
        <time>2010-01-01T11:31:32Z</time>
      </trkpt>
      <trkpt lat="47.98602920" lon="11.46242610">
        <ele>634.00000</ele>
        <time>2010-01-01T11:31:37Z</time>
      </trkpt>
      <trkpt lat="47.98649150" lon="11.46223590">
        <ele>639.00000</ele>
        <time>2010-01-01T11:31:56Z</time>
      </trkpt>
      <trkpt lat="47.98682180" lon="11.46219810">
        <ele>642.00000</ele>
        <time>2010-01-01T11:32:09Z</time>
      </trkpt>
      <trkpt lat="47.98691680" lon="11.46223600">
        <ele>643.00000</ele>
        <time>2010-01-01T11:32:13Z</time>
      </trkpt>
      <trkpt lat="47.98758770" lon="11.46344600">
        <ele>647.00000</ele>
        <time>2010-01-01T11:32:56Z</time>
      </trkpt>
      <trkpt lat="47.98785980" lon="11.46367130">
        <ele>651.00000</ele>
        <time>2010-01-01T11:33:08Z</time>
      </trkpt>
      <trkpt lat="47.98805970" lon="11.46371940">
        <ele>654.00000</ele>
        <time>2010-01-01T11:33:16Z</time>
      </trkpt>
      <trkpt lat="47.98848620" lon="11.46367800">
        <ele>659.00000</ele>
        <time>2010-01-01T11:33:33Z</time>
      </trkpt>
      <trkpt lat="47.98860700" lon="11.46360450">
        <ele>659.00000</ele>
        <time>2010-01-01T11:33:38Z</time>
      </trkpt>
      <trkpt lat="47.98882790" lon="11.46331830">
        <ele>660.00000</ele>
        <time>2010-01-01T11:33:50Z</time>
      </trkpt>
      <trkpt lat="47.98893270" lon="11.46302260">
        <ele>660.00000</ele>
        <time>2010-01-01T11:33:59Z</time>
      </trkpt>
      <trkpt lat="47.98900830" lon="11.46239460">
        <ele>660.00000</ele>
        <time>2010-01-01T11:34:16Z</time>
      </trkpt>
      <trkpt lat="47.98943550" lon="11.46090310">
        <ele>660.00000</ele>
        <time>2010-01-01T11:35:00Z</time>
      </trkpt>
      <trkpt lat="47.98965490" lon="11.45965940">
        <ele>660.00000</ele>
        <time>2010-01-01T11:35:34Z</time>
      </trkpt>
      <trkpt lat="47.99054720" lon="11.45649020">
        <ele>660.00000</ele>
        <time>2010-01-01T11:37:06Z</time>
      </trkpt>
      <trkpt lat="47.99059520" lon="11.45636510">
        <ele>660.00000</ele>
        <time>2010-01-01T11:37:10Z</time>
      </trkpt>
      <trkpt lat="47.99062620" lon="11.45638570">
        <ele>660.00000</ele>
        <time>2010-01-01T11:37:11Z</time>
      </trkpt>
      <trkpt lat="47.99059480" lon="11.45628420">
        <ele>660.00000</ele>
        <time>2010-01-01T11:37:14Z</time>
      </trkpt>
      <trkpt lat="47.99065860" lon="11.45609500">
        <ele>660.00000</ele>
        <time>2010-01-01T11:37:20Z</time>
      </trkpt>
      <trkpt lat="47.99152140" lon="11.45522270">
        <ele>667.00000</ele>
        <time>2010-01-01T11:38:02Z</time>
      </trkpt>
      <trkpt lat="47.99198240" lon="11.45442090">
        <ele>675.00000</ele>
        <time>2010-01-01T11:38:30Z</time>
      </trkpt>
      <trkpt lat="47.99173220" lon="11.45351030">
        <ele>677.00000</ele>
        <time>2010-01-01T11:38:56Z</time>
      </trkpt>
      <trkpt lat="47.99165910" lon="11.45296450">
        <ele>679.00000</ele>
        <time>2010-01-01T11:39:11Z</time>
      </trkpt>
      <trkpt lat="47.99168480" lon="11.45230930">
        <ele>680.00000</ele>
        <time>2010-01-01T11:39:29Z</time>
      </trkpt>
      <trkpt lat="47.99122550" lon="11.45132320">
        <ele>679.00000</ele>
        <time>2010-01-01T11:40:01Z</time>
      </trkpt>
      <trkpt lat="47.99111910" lon="11.45036810">
        <ele>680.00000</ele>
        <time>2010-01-01T11:40:27Z</time>
      </trkpt>
      <trkpt lat="47.99161840" lon="11.44857600">
        <ele>680.00000</ele>
        <time>2010-01-01T11:41:19Z</time>
      </trkpt>
      <trkpt lat="47.99188600" lon="11.44723480">
        <ele>680.00000</ele>
        <time>2010-01-01T11:41:57Z</time>
      </trkpt>
      <trkpt lat="47.99227620" lon="11.44569270">
        <ele>680.00000</ele>
        <time>2010-01-01T11:42:41Z</time>
      </trkpt>
      <trkpt lat="47.99244420" lon="11.44516430">
        <ele>680.00000</ele>
        <time>2010-01-01T11:42:56Z</time>
      </trkpt>
      <trkpt lat="47.99269300" lon="11.44487430">
        <ele>680.00000</ele>
        <time>2010-01-01T11:43:09Z</time>
      </trkpt>
      <trkpt lat="47.99266710" lon="11.44449010">
        <ele>680.00000</ele>
        <time>2010-01-01T11:43:19Z</time>
      </trkpt>
      <trkpt lat="47.99271260" lon="11.44422020">
        <ele>680.00000</ele>
        <time>2010-01-01T11:43:27Z</time>
      </trkpt>
      <trkpt lat="47.99322880" lon="11.44201420">
        <ele>678.00000</ele>
        <time>2010-01-01T11:44:29Z</time>
      </trkpt>
      <trkpt lat="47.99361290" lon="11.43974290">
        <ele>676.00000</ele>
        <time>2010-01-01T11:45:32Z</time>
      </trkpt>
      <trkpt lat="47.99399970" lon="11.43808290">
        <ele>679.00000</ele>
        <time>2010-01-01T11:46:19Z</time>
      </trkpt>
      <trkpt lat="47.99442600" lon="11.43497630">
        <ele>680.00000</ele>
        <time>2010-01-01T11:47:44Z</time>
      </trkpt>
      <trkpt lat="47.99456600" lon="11.43176380">
        <ele>675.00000</ele>
        <time>2010-01-01T11:49:11Z</time>
      </trkpt>
      <trkpt lat="47.99463090" lon="11.43108320">
        <ele>672.00000</ele>
        <time>2010-01-01T11:49:29Z</time>
      </trkpt>
      <trkpt lat="47.99475160" lon="11.43066110">
        <ele>671.00000</ele>
        <time>2010-01-01T11:49:41Z</time>
      </trkpt>
      <trkpt lat="47.99553490" lon="11.43037910">
        <ele>672.00000</ele>
        <time>2010-01-01T11:50:13Z</time>
      </trkpt>
      <trkpt lat="47.99594180" lon="11.43000430">
        <ele>672.00000</ele>
        <time>2010-01-01T11:50:33Z</time>
      </trkpt>
      <trkpt lat="47.99717060" lon="11.42845570">
        <ele>670.00000</ele>
        <time>2010-01-01T11:51:37Z</time>
      </trkpt>
      <trkpt lat="47.99881580" lon="11.42750280">
        <ele>668.00000</ele>
        <time>2010-01-01T11:52:48Z</time>
      </trkpt>
      <trkpt lat="48.00014270" lon="11.42642740">
        <ele>679.00000</ele>
        <time>2010-01-01T11:53:48Z</time>
      </trkpt>
      <trkpt lat="48.00265760" lon="11.42413670">
        <ele>670.00000</ele>
        <time>2010-01-01T11:55:46Z</time>
      </trkpt>
      <trkpt lat="48.00285830" lon="11.42404150">
        <ele>669.00000</ele>
        <time>2010-01-01T11:55:54Z</time>
      </trkpt>
      <trkpt lat="48.00317920" lon="11.42403160">
        <ele>667.00000</ele>
        <time>2010-01-01T11:56:07Z</time>
      </trkpt>
      <trkpt lat="48.00395600" lon="11.42425590">
        <ele>668.00000</ele>
        <time>2010-01-01T11:56:39Z</time>
      </trkpt>
      <trkpt lat="48.00557250" lon="11.42459980">
        <ele>677.00000</ele>
        <time>2010-01-01T11:57:44Z</time>
      </trkpt>
      <trkpt lat="48.00881990" lon="11.42583420">
        <ele>666.00000</ele>
        <time>2010-01-01T11:59:58Z</time>
      </trkpt>
      <trkpt lat="48.00986820" lon="11.42595500">
        <ele>658.00000</ele>
        <time>2010-01-01T12:00:40Z</time>
      </trkpt>
      <trkpt lat="48.01089980" lon="11.42592840">
        <ele>650.00000</ele>
        <time>2010-01-01T12:01:22Z</time>
      </trkpt>
      <trkpt lat="48.01143200" lon="11.42607850">
        <ele>649.00000</ele>
        <time>2010-01-01T12:01:43Z</time>
      </trkpt>
      <trkpt lat="48.01253830" lon="11.42603910">
        <ele>647.00000</ele>
        <time>2010-01-01T12:02:28Z</time>
      </trkpt>
      <trkpt lat="48.01284540" lon="11.42583840">
        <ele>645.00000</ele>
        <time>2010-01-01T12:02:41Z</time>
      </trkpt>
      <trkpt lat="48.01340550" lon="11.42450250">
        <ele>644.00000</ele>
        <time>2010-01-01T12:03:23Z</time>
      </trkpt>
      <trkpt lat="48.01353760" lon="11.42403460">
        <ele>644.00000</ele>
        <time>2010-01-01T12:03:37Z</time>
      </trkpt>
      <trkpt lat="48.01355740" lon="11.42352990">
        <ele>644.00000</ele>
        <time>2010-01-01T12:03:50Z</time>
      </trkpt>
      <trkpt lat="48.01329050" lon="11.42295860">
        <ele>647.00000</ele>
        <time>2010-01-01T12:04:09Z</time>
      </trkpt>
      <trkpt lat="48.01298970" lon="11.42204320">
        <ele>652.00000</ele>
        <time>2010-01-01T12:04:36Z</time>
      </trkpt>
      <trkpt lat="48.01237680" lon="11.41904200">
        <ele>653.00000</ele>
        <time>2010-01-01T12:06:00Z</time>
      </trkpt>
      <trkpt lat="48.01188100" lon="11.41792620">
        <ele>645.00000</ele>
        <time>2010-01-01T12:06:36Z</time>
      </trkpt>
      <trkpt lat="48.01175670" lon="11.41702480">
        <ele>638.00000</ele>
        <time>2010-01-01T12:07:01Z</time>
      </trkpt>
      <trkpt lat="48.01185140" lon="11.41613890">
        <ele>632.00000</ele>
        <time>2010-01-01T12:07:25Z</time>
      </trkpt>
      <trkpt lat="48.01120260" lon="11.41503610">
        <ele>632.00000</ele>
        <time>2010-01-01T12:08:04Z</time>
      </trkpt>
      <trkpt lat="48.01086180" lon="11.41459490">
        <ele>632.00000</ele>
        <time>2010-01-01T12:08:22Z</time>
      </trkpt>
      <trkpt lat="48.01063990" lon="11.41379920">
        <ele>629.00000</ele>
        <time>2010-01-01T12:08:45Z</time>
      </trkpt>
      <trkpt lat="48.01068000" lon="11.41343400">
        <ele>628.00000</ele>
        <time>2010-01-01T12:08:55Z</time>
      </trkpt>
      <trkpt lat="48.01108690" lon="11.41182160">
        <ele>627.00000</ele>
        <time>2010-01-01T12:09:42Z</time>
      </trkpt>
      <trkpt lat="48.01126000" lon="11.41067710">
        <ele>626.00000</ele>
        <time>2010-01-01T12:10:13Z</time>
      </trkpt>
      <trkpt lat="48.01132580" lon="11.40759550">
        <ele>633.00000</ele>
        <time>2010-01-01T12:11:36Z</time>
      </trkpt>
      <trkpt lat="48.01187970" lon="11.40596800">
        <ele>637.00000</ele>
        <time>2010-01-01T12:12:24Z</time>
      </trkpt>
      <trkpt lat="48.01197850" lon="11.40486790">
        <ele>642.00000</ele>
        <time>2010-01-01T12:12:54Z</time>
      </trkpt>
      <trkpt lat="48.01186580" lon="11.40567960">
        <ele>638.00000</ele>
        <time>2010-01-01T12:13:16Z</time>
      </trkpt>
      <trkpt lat="48.01193820" lon="11.40601700">
        <ele>637.00000</ele>
        <time>2010-01-01T12:13:26Z</time>
      </trkpt>
      <trkpt lat="48.01249580" lon="11.40689980">
        <ele>639.00000</ele>
        <time>2010-01-01T12:13:58Z</time>
      </trkpt>
      <trkpt lat="48.01327460" lon="11.40767360">
        <ele>645.00000</ele>
        <time>2010-01-01T12:14:36Z</time>
      </trkpt>
      <trkpt lat="48.01428000" lon="11.40915070">
        <ele>647.00000</ele>
        <time>2010-01-01T12:15:32Z</time>
      </trkpt>
      <trkpt lat="48.01729950" lon="11.41254630">
        <ele>635.00000</ele>
        <time>2010-01-01T12:18:03Z</time>
      </trkpt>
      <trkpt lat="48.02080110" lon="11.41665690">
        <ele>635.00000</ele>
        <time>2010-01-01T12:21:02Z</time>
      </trkpt>
      <trkpt lat="48.02418430" lon="11.42001900">
        <ele>637.00000</ele>
        <time>2010-01-01T12:23:44Z</time>
      </trkpt>
      <trkpt lat="48.02492330" lon="11.42094220">
        <ele>638.00000</ele>
        <time>2010-01-01T12:24:23Z</time>
      </trkpt>
      <trkpt lat="48.02622580" lon="11.42279470">
        <ele>625.00000</ele>
        <time>2010-01-01T12:25:35Z</time>
      </trkpt>
      <trkpt lat="48.02671170" lon="11.42329860">
        <ele>624.00000</ele>
        <time>2010-01-01T12:25:58Z</time>
      </trkpt>
      <trkpt lat="48.02726400" lon="11.42368690">
        <ele>621.00000</ele>
        <time>2010-01-01T12:26:23Z</time>
      </trkpt>
      <trkpt lat="48.02812230" lon="11.42415020">
        <ele>621.00000</ele>
        <time>2010-01-01T12:26:59Z</time>
      </trkpt>
      <trkpt lat="48.02998100" lon="11.42492560">
        <ele>628.00000</ele>
        <time>2010-01-01T12:28:17Z</time>
      </trkpt>
      <trkpt lat="48.03077270" lon="11.42543280">
        <ele>628.00000</ele>
        <time>2010-01-01T12:28:51Z</time>
      </trkpt>
      <trkpt lat="48.03158580" lon="11.42620290">
        <ele>623.00000</ele>
        <time>2010-01-01T12:29:30Z</time>
      </trkpt>
      <trkpt lat="48.03343050" lon="11.42830750">
        <ele>622.00000</ele>
        <time>2010-01-01T12:31:03Z</time>
      </trkpt>
      <trkpt lat="48.03424760" lon="11.42911980">
        <ele>616.00000</ele>
        <time>2010-01-01T12:31:42Z</time>
      </trkpt>
      <trkpt lat="48.03553880" lon="11.42997000">
        <ele>613.00000</ele>
        <time>2010-01-01T12:32:38Z</time>
      </trkpt>
      <trkpt lat="48.03699490" lon="11.43112270">
        <ele>615.00000</ele>
        <time>2010-01-01T12:33:44Z</time>
      </trkpt>
      <trkpt lat="48.03821980" lon="11.43237310">
        <ele>610.00000</ele>
        <time>2010-01-01T12:34:44Z</time>
      </trkpt>
      <trkpt lat="48.03939280" lon="11.43383700">
        <ele>608.00000</ele>
        <time>2010-01-01T12:35:45Z</time>
      </trkpt>
      <trkpt lat="48.04003570" lon="11.43478710">
        <ele>606.00000</ele>
        <time>2010-01-01T12:36:21Z</time>
      </trkpt>
      <trkpt lat="48.04112680" lon="11.43672830">
        <ele>606.00000</ele>
        <time>2010-01-01T12:37:29Z</time>
      </trkpt>
      <trkpt lat="48.04276400" lon="11.44044090">
        <ele>604.00000</ele>
        <time>2010-01-01T12:39:28Z</time>
      </trkpt>
      <trkpt lat="48.04328440" lon="11.44145360">
        <ele>604.00000</ele>
        <time>2010-01-01T12:40:02Z</time>
      </trkpt>
      <trkpt lat="48.04393370" lon="11.44254960">
        <ele>601.00000</ele>
        <time>2010-01-01T12:40:41Z</time>
      </trkpt>
      <trkpt lat="48.04495640" lon="11.44462630">
        <ele>600.00000</ele>
        <time>2010-01-01T12:41:50Z</time>
      </trkpt>
      <trkpt lat="48.04687710" lon="11.44756270">
        <ele>600.00000</ele>
        <time>2010-01-01T12:43:40Z</time>
      </trkpt>
      <trkpt lat="48.04931610" lon="11.45090320">
        <ele>597.00000</ele>
        <time>2010-01-01T12:45:53Z</time>
      </trkpt>
      <trkpt lat="48.05068860" lon="11.45297130">
        <ele>595.00000</ele>
        <time>2010-01-01T12:47:11Z</time>
      </trkpt>
      <trkpt lat="48.05179800" lon="11.45450950">
        <ele>595.00000</ele>
        <time>2010-01-01T12:48:11Z</time>
      </trkpt>
      <trkpt lat="48.05347640" lon="11.45730550">
        <ele>591.00000</ele>
        <time>2010-01-01T12:49:52Z</time>
      </trkpt>
      <trkpt lat="48.05451540" lon="11.45878340">
        <ele>589.00000</ele>
        <time>2010-01-01T12:50:49Z</time>
      </trkpt>
      <trkpt lat="48.05532700" lon="11.46057090">
        <ele>590.00000</ele>
        <time>2010-01-01T12:51:47Z</time>
      </trkpt>
      <trkpt lat="48.05643290" lon="11.46258460">
        <ele>589.00000</ele>
        <time>2010-01-01T12:52:57Z</time>
      </trkpt>
      <trkpt lat="48.05831240" lon="11.46663080">
        <ele>587.00000</ele>
        <time>2010-01-01T12:55:08Z</time>
      </trkpt>
      <trkpt lat="48.05960680" lon="11.46970440">
        <ele>583.00000</ele>
        <time>2010-01-01T12:56:46Z</time>
      </trkpt>
      <trkpt lat="48.06048440" lon="11.47122520">
        <ele>582.00000</ele>
        <time>2010-01-01T12:57:39Z</time>
      </trkpt>
      <trkpt lat="48.06272970" lon="11.47406520">
        <ele>582.00000</ele>
        <time>2010-01-01T12:59:37Z</time>
      </trkpt>
      <trkpt lat="48.06493850" lon="11.47619950">
        <ele>579.00000</ele>
        <time>2010-01-01T13:01:22Z</time>
      </trkpt>
      <trkpt lat="48.06593740" lon="11.47700270">
        <ele>579.00000</ele>
        <time>2010-01-01T13:02:08Z</time>
      </trkpt>
      <trkpt lat="48.06717840" lon="11.47820230">
        <ele>578.00000</ele>
        <time>2010-01-01T13:03:07Z</time>
      </trkpt>
      <trkpt lat="48.07008410" lon="11.48052600">
        <ele>578.00000</ele>
        <time>2010-01-01T13:05:19Z</time>
      </trkpt>
      <trkpt lat="48.07120290" lon="11.48134410">
        <ele>575.00000</ele>
        <time>2010-01-01T13:06:09Z</time>
      </trkpt>
      <trkpt lat="48.07142060" lon="11.48124280">
        <ele>576.00000</ele>
        <time>2010-01-01T13:06:18Z</time>
      </trkpt>
      <trkpt lat="48.07161660" lon="11.48099670">
        <ele>576.00000</ele>
        <time>2010-01-01T13:06:28Z</time>
      </trkpt>
      <trkpt lat="48.07165460" lon="11.48111970">
        <ele>576.00000</ele>
        <time>2010-01-01T13:06:32Z</time>
      </trkpt>
      <trkpt lat="48.07159340" lon="11.48164990">
        <ele>574.00000</ele>
        <time>2010-01-01T13:06:46Z</time>
      </trkpt>
      <trkpt lat="48.07234390" lon="11.48256680">
        <ele>577.00000</ele>
        <time>2010-01-01T13:07:25Z</time>
      </trkpt>
      <trkpt lat="48.07303530" lon="11.48326950">
        <ele>576.00000</ele>
        <time>2010-01-01T13:07:58Z</time>
      </trkpt>
      <trkpt lat="48.07452180" lon="11.48448490">
        <ele>576.00000</ele>
        <time>2010-01-01T13:09:06Z</time>
      </trkpt>
      <trkpt lat="48.07548570" lon="11.48538370">
        <ele>575.00000</ele>
        <time>2010-01-01T13:09:52Z</time>
      </trkpt>
      <trkpt lat="48.07682790" lon="11.48634270">
        <ele>573.00000</ele>
        <time>2010-01-01T13:10:51Z</time>
      </trkpt>
      <trkpt lat="48.07818680" lon="11.48693970">
        <ele>571.00000</ele>
        <time>2010-01-01T13:11:48Z</time>
      </trkpt>
      <trkpt lat="48.07855950" lon="11.48730770">
        <ele>570.00000</ele>
        <time>2010-01-01T13:12:06Z</time>
      </trkpt>
      <trkpt lat="48.07875210" lon="11.48740590">
        <ele>570.00000</ele>
        <time>2010-01-01T13:12:14Z</time>
      </trkpt>
      <trkpt lat="48.07957200" lon="11.48752500">
        <ele>571.00000</ele>
        <time>2010-01-01T13:12:47Z</time>
      </trkpt>
      <trkpt lat="48.08056750" lon="11.48743680">
        <ele>570.00000</ele>
        <time>2010-01-01T13:13:27Z</time>
      </trkpt>
      <trkpt lat="48.08154060" lon="11.48726350">
        <ele>569.00000</ele>
        <time>2010-01-01T13:14:06Z</time>
      </trkpt>
      <trkpt lat="48.08176820" lon="11.48726370">
        <ele>569.00000</ele>
        <time>2010-01-01T13:14:15Z</time>
      </trkpt>
      <trkpt lat="48.08211550" lon="11.48738150">
        <ele>568.00000</ele>
        <time>2010-01-01T13:14:29Z</time>
      </trkpt>
      <trkpt lat="48.08297760" lon="11.48723360">
        <ele>566.00000</ele>
        <time>2010-01-01T13:15:04Z</time>
      </trkpt>
      <trkpt lat="48.08450750" lon="11.48733240">
        <ele>565.00000</ele>
        <time>2010-01-01T13:16:05Z</time>
      </trkpt>
      <trkpt lat="48.08509780" lon="11.48715960">
        <ele>567.00000</ele>
        <time>2010-01-01T13:16:29Z</time>
      </trkpt>
      <trkpt lat="48.08572570" lon="11.48684010">
        <ele>567.00000</ele>
        <time>2010-01-01T13:16:56Z</time>
      </trkpt>
      <trkpt lat="48.08608920" lon="11.48677510">
        <ele>566.00000</ele>
        <time>2010-01-01T13:17:11Z</time>
      </trkpt>
      <trkpt lat="48.08677210" lon="11.48692110">
        <ele>564.00000</ele>
        <time>2010-01-01T13:17:38Z</time>
      </trkpt>
      <trkpt lat="48.08711940" lon="11.48721830">
        <ele>563.00000</ele>
        <time>2010-01-01T13:17:54Z</time>
      </trkpt>
      <trkpt lat="48.08739830" lon="11.48735630">
        <ele>563.00000</ele>
        <time>2010-01-01T13:18:06Z</time>
      </trkpt>
      <trkpt lat="48.08910330" lon="11.48743770">
        <ele>562.00000</ele>
        <time>2010-01-01T13:19:14Z</time>
      </trkpt>
      <trkpt lat="48.09078400" lon="11.48760420">
        <ele>563.00000</ele>
        <time>2010-01-01T13:20:22Z</time>
      </trkpt>
      <trkpt lat="48.09396370" lon="11.48762770">
        <ele>560.00000</ele>
        <time>2010-01-01T13:22:29Z</time>
      </trkpt>
      <trkpt lat="48.09473450" lon="11.48786930">
        <ele>560.00000</ele>
        <time>2010-01-01T13:23:00Z</time>
      </trkpt>
      <trkpt lat="48.09567290" lon="11.48843030">
        <ele>559.00000</ele>
        <time>2010-01-01T13:23:41Z</time>
      </trkpt>
      <trkpt lat="48.09607810" lon="11.48846260">
        <ele>560.00000</ele>
        <time>2010-01-01T13:23:57Z</time>
      </trkpt>
      <trkpt lat="48.09725040" lon="11.49067760">
        <ele>559.00000</ele>
        <time>2010-01-01T13:25:13Z</time>
      </trkpt>
      <trkpt lat="48.10076440" lon="11.49777640">
        <ele>556.00000</ele>
        <time>2010-01-01T13:29:09Z</time>
      </trkpt>
      <trkpt lat="48.10150440" lon="11.49912660">
        <ele>555.00000</ele>
        <time>2010-01-01T13:29:56Z</time>
      </trkpt>
      <trkpt lat="48.10192020" lon="11.50004480">
        <ele>553.00000</ele>
        <time>2010-01-01T13:30:25Z</time>
      </trkpt>
      <trkpt lat="48.10217170" lon="11.50044570">
        <ele>552.00000</ele>
        <time>2010-01-01T13:30:40Z</time>
      </trkpt>
      <trkpt lat="48.10241180" lon="11.50067220">
        <ele>551.00000</ele>
        <time>2010-01-01T13:30:51Z</time>
      </trkpt>
      <trkpt lat="48.10412120" lon="11.50139980">
        <ele>553.00000</ele>
        <time>2010-01-01T13:32:03Z</time>
      </trkpt>
      <trkpt lat="48.10534840" lon="11.50187780">
        <ele>555.00000</ele>
        <time>2010-01-01T13:32:53Z</time>
      </trkpt>
      <trkpt lat="48.10579470" lon="11.50199790">
        <ele>556.00000</ele>
        <time>2010-01-01T13:33:11Z</time>
      </trkpt>
      <trkpt lat="48.10656170" lon="11.50209160">
        <ele>555.00000</ele>
        <time>2010-01-01T13:33:42Z</time>
      </trkpt>
      <trkpt lat="48.10789300" lon="11.50207240">
        <ele>550.00000</ele>
        <time>2010-01-01T13:34:36Z</time>
      </trkpt>
      <trkpt lat="48.10824480" lon="11.50204860">
        <ele>549.00000</ele>
        <time>2010-01-01T13:34:50Z</time>
      </trkpt>
      <trkpt lat="48.10831200" lon="11.50197980">
        <ele>550.00000</ele>
        <time>2010-01-01T13:34:53Z</time>
      </trkpt>
      <trkpt lat="48.10831350" lon="11.50186300">
        <ele>550.00000</ele>
        <time>2010-01-01T13:34:56Z</time>
      </trkpt>
      <trkpt lat="48.10820080" lon="11.50197690">
        <ele>550.00000</ele>
        <time>2010-01-01T13:35:01Z</time>
      </trkpt>
      <trkpt lat="48.10804370" lon="11.50233920">
        <ele>548.00000</ele>
        <time>2010-01-01T13:35:13Z</time>
      </trkpt>
      <trkpt lat="48.10755000" lon="11.50255270">
        <ele>548.00000</ele>
        <time>2010-01-01T13:35:34Z</time>
      </trkpt>
      <trkpt lat="48.10751450" lon="11.50242540">
        <ele>549.00000</ele>
        <time>2010-01-01T13:35:37Z</time>
      </trkpt>
      <trkpt lat="48.10756300" lon="11.50237480">
        <ele>549.00000</ele>
        <time>2010-01-01T13:35:40Z</time>
      </trkpt>
      <trkpt lat="48.11043810" lon="11.50245060">
        <ele>548.00000</ele>
        <time>2010-01-01T13:37:35Z</time>
      </trkpt>
      <trkpt lat="48.11127460" lon="11.50253250">
        <ele>544.00000</ele>
        <time>2010-01-01T13:38:08Z</time>
      </trkpt>
      <trkpt lat="48.11465740" lon="11.50260340">
        <ele>545.00000</ele>
        <time>2010-01-01T13:40:24Z</time>
      </trkpt>
      <trkpt lat="48.11565200" lon="11.50256630">
        <ele>543.00000</ele>
        <time>2010-01-01T13:41:04Z</time>
      </trkpt>
      <trkpt lat="48.11615940" lon="11.50262570">
        <ele>542.00000</ele>
        <time>2010-01-01T13:41:24Z</time>
      </trkpt>
      <trkpt lat="48.11622660" lon="11.50326900">
        <ele>543.00000</ele>
        <time>2010-01-01T13:41:41Z</time>
      </trkpt>
      <trkpt lat="48.11644320" lon="11.50437200">
        <ele>542.00000</ele>
        <time>2010-01-01T13:42:12Z</time>
      </trkpt>
      <trkpt lat="48.11676570" lon="11.50559730">
        <ele>543.00000</ele>
        <time>2010-01-01T13:42:47Z</time>
      </trkpt>
      <trkpt lat="48.11701460" lon="11.50697380">
        <ele>544.00000</ele>
        <time>2010-01-01T13:43:25Z</time>
      </trkpt>
      <trkpt lat="48.11714470" lon="11.50730440">
        <ele>544.00000</ele>
        <time>2010-01-01T13:43:36Z</time>
      </trkpt>
      <trkpt lat="48.11733190" lon="11.50737470">
        <ele>544.00000</ele>
        <time>2010-01-01T13:43:43Z</time>
      </trkpt>
      <trkpt lat="48.11760320" lon="11.50737320">
        <ele>544.00000</ele>
        <time>2010-01-01T13:43:54Z</time>
      </trkpt>
      <trkpt lat="48.11964860" lon="11.50717310">
        <ele>541.00000</ele>
        <time>2010-01-01T13:45:16Z</time>
      </trkpt>
      <trkpt lat="48.11979450" lon="11.50737430">
        <ele>540.00000</ele>
        <time>2010-01-01T13:45:24Z</time>
      </trkpt>
      <trkpt lat="48.11987830" lon="11.50801690">
        <ele>541.00000</ele>
        <time>2010-01-01T13:45:42Z</time>
      </trkpt>
      <trkpt lat="48.12026140" lon="11.50856070">
        <ele>541.00000</ele>
        <time>2010-01-01T13:46:03Z</time>
      </trkpt>
      <trkpt lat="48.12036570" lon="11.50888890">
        <ele>540.00000</ele>
        <time>2010-01-01T13:46:13Z</time>
      </trkpt>
      <trkpt lat="48.12080600" lon="11.50973140">
        <ele>538.00000</ele>
        <time>2010-01-01T13:46:41Z</time>
      </trkpt>
      <trkpt lat="48.12097920" lon="11.51029320">
        <ele>537.00000</ele>
        <time>2010-01-01T13:46:58Z</time>
      </trkpt>
      <trkpt lat="48.12103920" lon="11.51277910">
        <ele>536.00000</ele>
        <time>2010-01-01T13:48:04Z</time>
      </trkpt>
      <trkpt lat="48.12126150" lon="11.51404690">
        <ele>534.00000</ele>
        <time>2010-01-01T13:48:39Z</time>
      </trkpt>
      <trkpt lat="48.12157960" lon="11.51479580">
        <ele>531.00000</ele>
        <time>2010-01-01T13:49:03Z</time>
      </trkpt>
      <trkpt lat="48.12207120" lon="11.51549750">
        <ele>534.00000</ele>
        <time>2010-01-01T13:49:30Z</time>
      </trkpt>
      <trkpt lat="48.12254760" lon="11.51602840">
        <ele>537.00000</ele>
        <time>2010-01-01T13:49:54Z</time>
      </trkpt>
      <trkpt lat="48.12274810" lon="11.51658910">
        <ele>539.00000</ele>
        <time>2010-01-01T13:50:11Z</time>
      </trkpt>
      <trkpt lat="48.12285950" lon="11.51716160">
        <ele>541.00000</ele>
        <time>2010-01-01T13:50:27Z</time>
      </trkpt>
      <trkpt lat="48.12281450" lon="11.51772200">
        <ele>542.00000</ele>
        <time>2010-01-01T13:50:42Z</time>
      </trkpt>
      <trkpt lat="48.12247750" lon="11.51869330">
        <ele>544.00000</ele>
        <time>2010-01-01T13:51:11Z</time>
      </trkpt>
      <trkpt lat="48.12252420" lon="11.52012240">
        <ele>542.00000</ele>
        <time>2010-01-01T13:51:49Z</time>
      </trkpt>
      <trkpt lat="48.12242070" lon="11.52142530">
        <ele>539.00000</ele>
        <time>2010-01-01T13:52:24Z</time>
      </trkpt>
      <trkpt lat="48.12249200" lon="11.52218820">
        <ele>536.00000</ele>
        <time>2010-01-01T13:52:45Z</time>
      </trkpt>
      <trkpt lat="48.12261800" lon="11.52269330">
        <ele>535.00000</ele>
        <time>2010-01-01T13:52:59Z</time>
      </trkpt>
      <trkpt lat="48.12290470" lon="11.52340630">
        <ele>535.00000</ele>
        <time>2010-01-01T13:53:22Z</time>
      </trkpt>
      <trkpt lat="48.12306050" lon="11.52418010">
        <ele>534.00000</ele>
        <time>2010-01-01T13:53:43Z</time>
      </trkpt>
      <trkpt lat="48.12317550" lon="11.52589810">
        <ele>532.00000</ele>
        <time>2010-01-01T13:54:29Z</time>
      </trkpt>
      <trkpt lat="48.12333480" lon="11.52629210">
        <ele>530.00000</ele>
        <time>2010-01-01T13:54:42Z</time>
      </trkpt>
      <trkpt lat="48.12329300" lon="11.52657760">
        <ele>530.00000</ele>
        <time>2010-01-01T13:54:49Z</time>
      </trkpt>
      <trkpt lat="48.12364840" lon="11.52755600">
        <ele>533.00000</ele>
        <time>2010-01-01T13:55:19Z</time>
      </trkpt>
      <trkpt lat="48.12374690" lon="11.52767400">
        <ele>533.00000</ele>
        <time>2010-01-01T13:55:24Z</time>
      </trkpt>
      <trkpt lat="48.12437180" lon="11.52805230">
        <ele>531.00000</ele>
        <time>2010-01-01T13:55:51Z</time>
      </trkpt>
      <trkpt lat="48.12454920" lon="11.52829920">
        <ele>531.00000</ele>
        <time>2010-01-01T13:56:01Z</time>
      </trkpt>
      <trkpt lat="48.12473820" lon="11.52886520">
        <ele>532.00000</ele>
        <time>2010-01-01T13:56:18Z</time>
      </trkpt>
      <trkpt lat="48.12469430" lon="11.52917820">
        <ele>533.00000</ele>
        <time>2010-01-01T13:56:26Z</time>
      </trkpt>
      <trkpt lat="48.12437090" lon="11.53002580">
        <ele>533.00000</ele>
        <time>2010-01-01T13:56:52Z</time>
      </trkpt>
      <trkpt lat="48.12439830" lon="11.53063810">
        <ele>532.00000</ele>
        <time>2010-01-01T13:57:09Z</time>
      </trkpt>
      <trkpt lat="48.12457300" lon="11.53106700">
        <ele>531.00000</ele>
        <time>2010-01-01T13:57:22Z</time>
      </trkpt>
      <trkpt lat="48.12516650" lon="11.53173080">
        <ele>530.00000</ele>
        <time>2010-01-01T13:57:52Z</time>
      </trkpt>
      <trkpt lat="48.12540910" lon="11.53217540">
        <ele>532.00000</ele>
        <time>2010-01-01T13:58:07Z</time>
      </trkpt>
      <trkpt lat="48.12559580" lon="11.53287600">
        <ele>533.00000</ele>
        <time>2010-01-01T13:58:27Z</time>
      </trkpt>
      <trkpt lat="48.12564860" lon="11.53382590">
        <ele>534.00000</ele>
        <time>2010-01-01T13:58:53Z</time>
      </trkpt>
      <trkpt lat="48.12573640" lon="11.53423580">
        <ele>534.00000</ele>
        <time>2010-01-01T13:59:04Z</time>
      </trkpt>
      <trkpt lat="48.12587520" lon="11.53449730">
        <ele>534.00000</ele>
        <time>2010-01-01T13:59:13Z</time>
      </trkpt>
      <trkpt lat="48.12642570" lon="11.53511130">
        <ele>534.00000</ele>
        <time>2010-01-01T13:59:41Z</time>
      </trkpt>
      <trkpt lat="48.12663640" lon="11.53559050">
        <ele>533.00000</ele>
        <time>2010-01-01T13:59:56Z</time>
      </trkpt>
      <trkpt lat="48.12699050" lon="11.53703510">
        <ele>534.00000</ele>
        <time>2010-01-01T14:00:37Z</time>
      </trkpt>
      <trkpt lat="48.12721820" lon="11.53930210">
        <ele>534.00000</ele>
        <time>2010-01-01T14:01:39Z</time>
      </trkpt>
      <trkpt lat="48.12761550" lon="11.53965720">
        <ele>533.00000</ele>
        <time>2010-01-01T14:01:57Z</time>
      </trkpt>
      <trkpt lat="48.12806680" lon="11.53930230">
        <ele>532.00000</ele>
        <time>2010-01-01T14:02:17Z</time>
      </trkpt>
      <trkpt lat="48.12822640" lon="11.53931580">
        <ele>532.00000</ele>
        <time>2010-01-01T14:02:24Z</time>
      </trkpt>
      <trkpt lat="48.12848620" lon="11.53958880">
        <ele>532.00000</ele>
        <time>2010-01-01T14:02:37Z</time>
      </trkpt>
      <trkpt lat="48.12891140" lon="11.53990300">
        <ele>531.00000</ele>
        <time>2010-01-01T14:02:56Z</time>
      </trkpt>
      <trkpt lat="48.12998430" lon="11.54118650">
        <ele>533.00000</ele>
        <time>2010-01-01T14:03:51Z</time>
      </trkpt>
      <trkpt lat="48.13018920" lon="11.54137920">
        <ele>534.00000</ele>
        <time>2010-01-01T14:04:00Z</time>
      </trkpt>
      <trkpt lat="48.13031360" lon="11.54140060">
        <ele>534.00000</ele>
        <time>2010-01-01T14:04:05Z</time>
      </trkpt>
      <trkpt lat="48.13060410" lon="11.54133050">
        <ele>534.00000</ele>
        <time>2010-01-01T14:04:17Z</time>
      </trkpt>
      <trkpt lat="48.13063520" lon="11.54125370">
        <ele>533.00000</ele>
        <time>2010-01-01T14:04:19Z</time>
      </trkpt>
      <trkpt lat="48.13063850" lon="11.54100360">
        <ele>532.00000</ele>
        <time>2010-01-01T14:04:26Z</time>
      </trkpt>
      <trkpt lat="48.13070850" lon="11.54089310">
        <ele>532.00000</ele>
        <time>2010-01-01T14:04:30Z</time>
      </trkpt>
      <trkpt lat="48.13066990" lon="11.53999280">
        <ele>528.00000</ele>
        <time>2010-01-01T14:04:54Z</time>
      </trkpt>
      <trkpt lat="48.13072490" lon="11.53964780">
        <ele>529.00000</ele>
        <time>2010-01-01T14:05:04Z</time>
      </trkpt>
      <trkpt lat="48.13090260" lon="11.53945960">
        <ele>529.00000</ele>
        <time>2010-01-01T14:05:12Z</time>
      </trkpt>
      <trkpt lat="48.13193840" lon="11.53963840">
        <ele>529.00000</ele>
        <time>2010-01-01T14:05:54Z</time>
      </trkpt>
      <trkpt lat="48.13235470" lon="11.53965560">
        <ele>530.00000</ele>
        <time>2010-01-01T14:06:11Z</time>
      </trkpt>
      <trkpt lat="48.13323670" lon="11.53991200">
        <ele>529.00000</ele>
        <time>2010-01-01T14:06:47Z</time>
      </trkpt>
      <trkpt lat="48.13400950" lon="11.53989460">
        <ele>529.00000</ele>
        <time>2010-01-01T14:07:18Z</time>
      </trkpt>
      <trkpt lat="48.13526370" lon="11.54009140">
        <ele>535.00000</ele>
        <time>2010-01-01T14:08:08Z</time>
      </trkpt>
      <trkpt lat="48.13607880" lon="11.54030050">
        <ele>533.00000</ele>
        <time>2010-01-01T14:08:41Z</time>
      </trkpt>
      <trkpt lat="48.13635000" lon="11.54029690">
        <ele>532.00000</ele>
        <time>2010-01-01T14:08:52Z</time>
      </trkpt>
      <trkpt lat="48.13765150" lon="11.54055280">
        <ele>529.00000</ele>
        <time>2010-01-01T14:09:45Z</time>
      </trkpt>
      <trkpt lat="48.13793940" lon="11.54070490">
        <ele>528.00000</ele>
        <time>2010-01-01T14:09:57Z</time>
      </trkpt>
      <trkpt lat="48.13819990" lon="11.54145830">
        <ele>530.00000</ele>
        <time>2010-01-01T14:10:20Z</time>
      </trkpt>
      <trkpt lat="48.13919850" lon="11.54159400">
        <ele>531.00000</ele>
        <time>2010-01-01T14:11:00Z</time>
      </trkpt>
      <trkpt lat="48.13925220" lon="11.54353920">
        <ele>531.00000</ele>
        <time>2010-01-01T14:11:52Z</time>
      </trkpt>
      <trkpt lat="48.13919850" lon="11.54517500">
        <ele>530.00000</ele>
        <time>2010-01-01T14:12:36Z</time>
      </trkpt>
      <trkpt lat="48.13922270" lon="11.54688790">
        <ele>532.00000</ele>
        <time>2010-01-01T14:13:21Z</time>
      </trkpt>
      <trkpt lat="48.13973150" lon="11.54714480">
        <ele>527.00000</ele>
        <time>2010-01-01T14:13:43Z</time>
      </trkpt>
      <trkpt lat="48.13979660" lon="11.54722540">
        <ele>527.00000</ele>
        <time>2010-01-01T14:13:46Z</time>
      </trkpt>
      <trkpt lat="48.13994130" lon="11.54768710">
        <ele>526.00000</ele>
        <time>2010-01-01T14:14:00Z</time>
      </trkpt>
      <trkpt lat="48.14027540" lon="11.54821360">
        <ele>525.00000</ele>
        <time>2010-01-01T14:14:19Z</time>
      </trkpt>
      <trkpt lat="48.14048940" lon="11.54830670">
        <ele>525.00000</ele>
        <time>2010-01-01T14:14:28Z</time>
      </trkpt>
      <trkpt lat="48.14159520" lon="11.54848970">
        <ele>521.00000</ele>
        <time>2010-01-01T14:15:13Z</time>
      </trkpt>
      <trkpt lat="48.14234720" lon="11.54850870">
        <ele>523.00000</ele>
        <time>2010-01-01T14:15:43Z</time>
      </trkpt>
      <trkpt lat="48.14337360" lon="11.54871910">
        <ele>525.00000</ele>
        <time>2010-01-01T14:16:24Z</time>
      </trkpt>
      <trkpt lat="48.14451760" lon="11.54919330">
        <ele>524.00000</ele>
        <time>2010-01-01T14:17:12Z</time>
      </trkpt>
      <trkpt lat="48.14560940" lon="11.54953860">
        <ele>524.00000</ele>
        <time>2010-01-01T14:17:56Z</time>
      </trkpt>
      <trkpt lat="48.14599510" lon="11.54973170">
        <ele>525.00000</ele>
        <time>2010-01-01T14:18:13Z</time>
      </trkpt>
      <trkpt lat="48.14632490" lon="11.55006370">
        <ele>528.00000</ele>
        <time>2010-01-01T14:18:29Z</time>
      </trkpt>
      <trkpt lat="48.14690960" lon="11.55101140">
        <ele>525.00000</ele>
        <time>2010-01-01T14:19:03Z</time>
      </trkpt>
      <trkpt lat="48.14728020" lon="11.55173640">
        <ele>525.00000</ele>
        <time>2010-01-01T14:19:27Z</time>
      </trkpt>
      <trkpt lat="48.14788860" lon="11.55248360">
        <ele>524.00000</ele>
        <time>2010-01-01T14:19:59Z</time>
      </trkpt>
      <trkpt lat="48.14817820" lon="11.55277320">
        <ele>524.00000</ele>
        <time>2010-01-01T14:20:13Z</time>
      </trkpt>
      <trkpt lat="48.14835350" lon="11.55283860">
        <ele>524.00000</ele>
        <time>2010-01-01T14:20:20Z</time>
      </trkpt>
      <trkpt lat="48.14842670" lon="11.55311890">
        <ele>525.00000</ele>
        <time>2010-01-01T14:20:28Z</time>
      </trkpt>
      <trkpt lat="48.14859900" lon="11.55301400">
        <ele>524.00000</ele>
        <time>2010-01-01T14:20:36Z</time>
      </trkpt>
      <trkpt lat="48.14901990" lon="11.55134760">
        <ele>523.00000</ele>
        <time>2010-01-01T14:21:23Z</time>
      </trkpt>
      <trkpt lat="48.14948530" lon="11.54887760">
        <ele>523.00000</ele>
        <time>2010-01-01T14:22:32Z</time>
      </trkpt>
      <trkpt lat="48.14967930" lon="11.54825720">
        <ele>525.00000</ele>
        <time>2010-01-01T14:22:50Z</time>
      </trkpt>
      <trkpt lat="48.15012580" lon="11.54849320">
        <ele>525.00000</ele>
        <time>2010-01-01T14:23:09Z</time>
      </trkpt>
      <trkpt lat="48.15056360" lon="11.54857370">
        <ele>524.00000</ele>
        <time>2010-01-01T14:23:27Z</time>
      </trkpt>
      <trkpt lat="48.15101330" lon="11.54882820">
        <ele>524.00000</ele>
        <time>2010-01-01T14:23:46Z</time>
      </trkpt>
      <trkpt lat="48.15186640" lon="11.54959770">
        <ele>522.00000</ele>
        <time>2010-01-01T14:24:26Z</time>
      </trkpt>
      <trkpt lat="48.15376800" lon="11.55297040">
        <ele>520.00000</ele>
        <time>2010-01-01T14:26:24Z</time>
      </trkpt>
      <trkpt lat="48.15568420" lon="11.55666940">
        <ele>521.00000</ele>
        <time>2010-01-01T14:28:29Z</time>
      </trkpt>
      <trkpt lat="48.15668390" lon="11.55842980">
        <ele>517.00000</ele>
        <time>2010-01-01T14:29:30Z</time>
      </trkpt>
    </trkseg>
  </trk>
</gpx>

